Date StartTime U_cm/s V_cm/s W_cm/s Ustd_cm/s Vstd_cm/s Wstd_cm/s Uvar_(cm/s)^2 Vvar_(cm/s)^2 Wvar_(cm/s)^2 KE_(m/s)^2 TurbulentKE_(m/s)^2 HorizWindSpeed_cm/s FrictionSpeec_cm/s DragCoef SpeedOfSound_m/s SonicTemperature_C Pressure_mb 
11/17/2014  00:00:00      -53.583      -17.689       -7.706       20.682        9.583       11.405      427.738       91.831      130.074        0.195        0.032       56.427       12.896        0.052      329.950       -2.989      871.467
11/17/2014  00:01:00      -56.812      -30.091       -5.547       22.504       12.684       10.600      506.409      160.875      112.350        0.247        0.039       64.289        6.918        0.012      329.980       -2.941      871.472
11/17/2014  00:02:00      -59.423      -39.436      -11.064       13.623       10.340        7.534      185.584      106.916       56.757        0.278        0.017       71.318        5.664        0.006      329.951       -2.987      871.477
11/17/2014  00:03:00      -56.784      -41.673      -13.022       13.621       10.645       13.813      185.536      113.326      190.794        0.281        0.024       70.435        6.443        0.008      329.909       -3.056      871.481
11/17/2014  00:04:00      -45.384      -29.065       -9.735       13.767       14.067       10.848      189.543      197.879      117.669        0.175        0.025       53.893        5.140        0.009      329.927       -3.026      871.502
11/17/2014  00:05:00      -50.172      -18.672       -7.787       14.340       12.808        8.571      205.648      164.047       73.460        0.168        0.022       53.534        7.194        0.018      329.986       -2.930      871.511
11/17/2014  00:06:00      -61.137      -15.112       -5.166       13.807       16.451       10.252      190.639      270.644      105.100        0.228        0.028       62.977        7.958        0.016      329.940       -3.005      871.516
11/17/2014  00:07:00      -56.584      -16.914       -5.228       21.592       18.068       13.290      466.205      326.469      176.637        0.224        0.048       59.058       12.563        0.045      329.886       -3.094      871.518
11/17/2014  00:08:00      -61.742       -5.919       -4.850       24.590       17.128       11.713      604.650      293.381      137.198        0.245        0.052       62.025       11.925        0.037      329.878       -3.107      871.528
11/17/2014  00:09:00      -48.995      -14.611       -5.294       25.582       17.755       13.067      654.438      315.231      170.757        0.189        0.057       51.127       13.119        0.066      329.870       -3.120      871.520
11/17/2014  00:10:00      -68.872      -13.639       -7.471       21.057       14.739        9.789      443.403      217.226       95.834        0.287        0.038       70.210        8.628        0.015      329.842       -3.166      871.514
11/17/2014  00:11:00      -55.641      -16.625      -12.119       24.708       15.495       12.111      610.463      240.084      146.685        0.226        0.050       58.072       11.506        0.039      329.896       -3.079      871.506
11/17/2014  00:12:00      -70.743      -23.338      -10.453        9.179        9.835        7.406       84.260       96.720       54.845        0.295        0.012       74.493        2.642        0.001      329.855       -3.146      871.507
11/17/2014  00:13:00      -53.342      -34.207       -8.773        8.660       18.732        8.463       75.001      350.869       71.621        0.229        0.025       63.368        5.976        0.009      329.956       -2.978      871.508
11/17/2014  00:14:00       -6.381      -19.418       -1.721       19.535       18.203       11.056      381.634      331.358      122.232        0.063        0.042       20.440       10.959        0.287      329.980       -2.941      871.511
11/17/2014  00:15:00      -10.715      -19.527        6.503       14.292       10.241       11.063      204.257      104.872      122.383        0.048        0.022       22.273        2.277        0.010      329.953       -2.984      871.511
11/17/2014  00:16:00      -17.105      -12.031        8.859       15.760       10.189        8.249      248.378      103.819       68.043        0.047        0.021       20.912        7.492        0.128      329.940       -3.006      871.517
11/17/2014  00:17:00      -25.373      -12.887        1.942       16.278       11.137        8.251      264.987      124.038       68.075        0.064        0.023       28.458        4.905        0.030      329.952       -2.986      871.526
11/17/2014  00:18:00      -33.985      -14.535       -0.394       21.020       13.026       11.969      441.858      169.667      143.255        0.106        0.038       36.962       13.445        0.132      329.929       -3.023      871.537
11/17/2014  00:19:00      -57.105      -18.863      -10.322       11.889        8.089        5.196      141.340       65.428       26.994        0.198        0.012       60.140        3.930        0.004      330.014       -2.885      871.534
11/17/2014  00:20:00      -66.117      -25.867      -10.621        8.304        8.348        6.404       68.962       69.697       41.011        0.267        0.009       70.996        4.023        0.003      329.961       -2.972      871.523
11/17/2014  00:21:00      -78.754      -24.220      -10.322        7.845       11.082        7.646       61.543      122.809       58.465        0.357        0.012       82.394        5.832        0.005      329.996       -2.914      871.519
11/17/2014  00:22:00      -77.737      -30.050      -11.020        8.976        9.979        7.883       80.570       99.573       62.146        0.365        0.012       83.343        2.991        0.001      329.986       -2.932      871.519
11/17/2014  00:23:00      -68.273      -31.459       -9.558        9.530        9.069        8.364       90.821       82.246       69.959        0.299        0.012       75.173        2.340        0.001      329.954       -2.981      871.537
11/17/2014  00:24:00      -67.077      -35.976       -7.855       14.577       12.867        8.997      212.487      165.567       80.942        0.316        0.023       76.116        2.883        0.001      329.856       -3.142      871.550
11/17/2014  00:25:00      -40.750      -13.477       -7.393       19.716        7.619        9.240      388.706       58.046       85.383        0.121        0.027       42.921        9.636        0.050      329.844       -3.161      871.552
11/17/2014  00:26:00      -23.800      -18.506       -3.099       14.901        9.255        8.973      222.026       85.657       80.521        0.065        0.019       30.148        9.338        0.096      329.914       -3.048      871.552
11/17/2014  00:27:00      -32.904      -19.498       -7.796        9.736        7.496        7.503       94.791       56.183       56.300        0.087        0.010       38.247        4.346        0.013      329.947       -2.994      871.550
11/17/2014  00:28:00      -45.028      -13.549      -11.312        8.702       10.219        8.330       75.728      104.435       69.395        0.129        0.012       47.022        5.480        0.014      329.972       -2.952      871.544
11/17/2014  00:29:00      -53.201      -14.591       -7.387       11.810       13.688        6.729      139.481      187.358       45.278        0.173        0.019       55.165        4.136        0.006      329.927       -3.026      871.534
11/17/2014  00:30:00      -52.155      -32.522       -6.235       12.111       11.473       10.637      146.682      131.624      113.139        0.210        0.020       61.464        4.075        0.004      329.950       -2.990      871.526
11/17/2014  00:31:00      -64.071      -14.236       -9.846       11.398       12.655       10.634      129.907      160.151      113.090        0.240        0.020       65.633        6.173        0.009      329.913       -3.050      871.512
11/17/2014  00:32:00      -68.984      -21.117      -15.337        8.050       10.040        7.314       64.804      100.795       53.489        0.283        0.011       72.143        4.182        0.003      329.866       -3.127      871.502
11/17/2014  00:33:00      -64.019      -16.955      -10.324        9.473        9.573        9.323       89.744       91.647       86.910        0.238        0.013       66.226        5.020        0.006      329.834       -3.181      871.491
11/17/2014  00:34:00      -76.160      -28.307      -20.243       11.783        8.714        6.303      138.849       75.942       39.725        0.363        0.013       81.251        4.517        0.003      329.814       -3.212      871.488
11/17/2014  00:35:00      -70.047      -21.646      -14.142       13.039        9.633        9.204      170.007       92.785       84.721        0.296        0.017       73.316        6.804        0.009      329.837       -3.175      871.483
11/17/2014  00:36:00      -75.662      -26.284       -9.574       12.502       11.942        8.929      156.307      142.607       79.730        0.344        0.019       80.098        6.700        0.007      329.807       -3.223      871.486
11/17/2014  00:37:00      -92.256      -34.305      -12.328       10.396       14.601        7.409      108.086      213.188       54.888        0.511        0.019       98.428        4.394        0.002      329.749       -3.317      871.466
11/17/2014  00:38:00      -69.347      -36.757       -6.925       11.708       12.253        8.919      137.088      150.131       79.544        0.329        0.018       78.486        3.316        0.002      329.726       -3.356      871.454
11/17/2014  00:39:00      -74.905      -36.339      -13.393       12.457        9.551       10.232      155.180       91.228      104.701        0.373        0.018       83.254        6.516        0.006      329.745       -3.324      871.453
11/17/2014  00:40:00      -88.912      -35.714      -17.582       11.865       13.606       10.424      140.768      185.117      108.661        0.496        0.022       95.816        7.621        0.006      329.759       -3.301      871.460
11/17/2014  00:41:00      -98.849      -43.632      -16.477       15.949       10.549        8.142      254.368      111.292       66.296        0.619        0.022      108.050        4.721        0.002      329.734       -3.341      871.460
11/17/2014  00:42:00      -86.173      -53.704      -12.941       24.398       15.765       14.318      595.266      248.543      204.999        0.576        0.052      101.538       10.608        0.011      329.696       -3.406      871.469
11/17/2014  00:43:00      -76.114      -43.330       -1.343       36.581       17.710       16.145     1338.190      313.646      260.652        0.479        0.096       87.584       17.064        0.038      329.680       -3.432      871.485
11/17/2014  00:44:00      -79.480      -48.062       -5.511       27.661       15.021       14.776      765.146      225.620      218.319        0.493        0.060       92.881       14.723        0.025      329.669       -3.449      871.493
11/17/2014  00:45:00      -44.654      -32.818        0.666       27.946       16.341       14.421      780.953      267.038      207.977        0.216        0.063       55.417       10.674        0.037      329.647       -3.486      871.496
11/17/2014  00:46:00      -72.116      -41.375       -5.590       26.246       20.383       14.144      688.840      415.472      200.045        0.412        0.065       83.142       11.721        0.020      329.614       -3.538      871.499
11/17/2014  00:47:00     -103.967      -44.758      -10.771       14.275       12.321        8.724      203.779      151.797       76.111        0.668        0.022      113.191        3.440        0.001      329.566       -3.618      871.493
11/17/2014  00:48:00      -95.358      -38.193      -15.103       13.019       11.918        6.532      169.486      142.047       42.665        0.557        0.018      102.722        3.400        0.001      329.574       -3.605      871.487
11/17/2014  00:49:00      -83.647      -38.269       -7.905       26.592       17.750       12.570      707.133      315.051      157.997        0.485        0.059       91.985       11.429        0.015      329.518       -3.696      871.478
11/17/2014  00:50:00      -94.401      -43.259       -8.337       11.297       15.244        8.988      127.614      232.373       80.782        0.565        0.022      103.841        6.278        0.004      329.539       -3.660      871.470
11/17/2014  00:51:00     -101.098      -49.077      -13.155       10.060       16.129       10.467      101.198      260.140      109.563        0.664        0.024      112.380        6.298        0.003      329.560       -3.626      871.478
11/17/2014  00:52:00      -47.797      -42.527       -1.904       31.808       14.141       18.278     1011.744      199.969      334.092        0.282        0.077       63.977       18.393        0.083      329.583       -3.591      871.484
11/17/2014  00:53:00      -18.792       -8.254        8.519       18.315       16.073       13.584      335.421      258.326      184.525        0.064        0.039       20.525       11.809        0.331      329.547       -3.648      871.480
11/17/2014  00:54:00      -78.139      -17.263       -5.651       11.011       14.376       10.591      121.252      206.682      112.171        0.344        0.022       80.023        3.191        0.002      329.557       -3.631      871.474
11/17/2014  00:55:00      -64.032      -34.633       -5.873       13.319       14.664        9.853      177.397      215.028       97.083        0.291        0.024       72.799        3.724        0.003      329.517       -3.697      871.478
11/17/2014  00:56:00      -66.045      -12.784       -9.802       10.044       10.837        6.738      100.889      117.450       45.398        0.244        0.013       67.271        4.666        0.005      329.543       -3.655      871.499
11/17/2014  00:57:00      -47.535      -21.450      -13.392       10.006        9.276        8.556      100.128       86.035       73.208        0.158        0.013       52.150        5.568        0.011      329.565       -3.618      871.505
11/17/2014  00:58:00      -25.950      -31.330      -14.952       23.068       12.873       11.614      532.148      165.711      134.893        0.136        0.042       40.681        7.724        0.036      329.598       -3.566      871.512
11/17/2014  00:59:00      -41.879      -28.713        4.170       32.528       15.880       17.873     1058.044      252.185      319.434        0.211        0.081       50.777       16.432        0.105      329.530       -3.675      871.517
11/17/2014  01:00:00      -62.547      -31.012       -7.063       18.322       12.743       11.542      335.682      162.372      133.224        0.278        0.032       69.813        8.371        0.014      329.493       -3.735      871.522
11/17/2014  01:01:00      -68.779      -21.848       -9.829        8.912        7.928        5.375       79.416       62.856       28.894        0.274        0.009       72.165        1.849        0.001      329.469       -3.777      871.540
11/17/2014  01:02:00      -69.583      -22.365       -7.510       11.968       12.964        6.553      143.223      168.070       42.945        0.288        0.018       73.089        6.685        0.008      329.437       -3.830      871.557
11/17/2014  01:03:00      -81.940      -29.101      -10.901       11.600       11.118        6.849      134.561      123.618       46.914        0.399        0.015       86.955        4.902        0.003      329.487       -3.745      871.558
11/17/2014  01:04:00      -86.975      -30.462       -6.948       10.353       14.620        9.061      107.193      213.749       82.104        0.447        0.020       92.155        7.581        0.007      329.534       -3.668      871.559
11/17/2014  01:05:00      -70.088      -21.919      -12.671       13.296       19.945       10.056      176.778      397.800      101.120        0.311        0.034       73.436        4.412        0.004      329.531       -3.674      871.557
11/17/2014  01:06:00      -68.380      -13.712      -14.741       13.230       14.004       10.374      175.023      196.108      107.621        0.278        0.024       69.741        5.441        0.006      329.426       -3.848      871.562
11/17/2014  01:07:00      -59.130      -27.681       -7.995       11.483       11.376        9.402      131.848      129.418       88.395        0.234        0.017       65.289        7.085        0.012      329.460       -3.790      871.578
11/17/2014  01:08:00      -72.645      -26.348       -9.979        9.610       10.258        9.398       92.357      105.232       88.330        0.318        0.014       77.276        6.252        0.007      329.458       -3.794      871.588
11/17/2014  01:09:00      -70.557      -33.824       -7.883       29.110       15.718       10.496      847.407      247.063      110.168        0.369        0.060       78.245        1.450        0.000      329.511       -3.707      871.594
11/17/2014  01:10:00      -65.669      -14.652       -5.899       16.316       12.735       11.395      266.207      162.168      129.838        0.256        0.028       67.284        3.681        0.003      329.482       -3.754      871.613
11/17/2014  01:11:00      -76.023      -16.683      -12.486       11.991        9.846        7.498      143.785       96.935       56.224        0.326        0.015       77.832        3.060        0.002      329.456       -3.797      871.623
11/17/2014  01:12:00      -89.950      -41.461      -13.796       12.570       13.417        8.968      157.993      180.026       80.427        0.521        0.021       99.045        5.873        0.004      329.447       -3.812      871.639
11/17/2014  01:13:00      -99.126      -19.620       -7.860       18.377       18.116       12.208      337.700      328.191      149.039        0.554        0.041      101.049       10.178        0.010      329.409       -3.875      871.647
11/17/2014  01:14:00     -105.292      -25.914       -6.660       18.696       15.319       13.720      349.556      234.673      188.240        0.629        0.039      108.434       11.969        0.012      329.327       -4.008      871.651
11/17/2014  01:15:00     -117.186      -46.609      -10.325       18.189       12.161       10.802      330.842      147.885      116.691        0.830        0.030      126.115        8.344        0.004      329.318       -4.021      871.651
11/17/2014  01:16:00     -118.937      -32.617       -9.664       13.439       16.459       10.122      180.594      270.893      102.448        0.793        0.028      123.329        7.216        0.003      329.293       -4.064      871.657
11/17/2014  01:17:00      -91.539      -43.795       -8.215       20.324       22.150       14.499      413.082      490.636      210.219        0.574        0.056      101.476        8.376        0.007      329.298       -4.056      871.659
11/17/2014  01:18:00      -97.017      -27.444       -9.031       20.335       14.430       12.988      413.504      208.221      168.679        0.552        0.040      100.824       12.732        0.016      329.327       -4.008      871.652
11/17/2014  01:19:00     -106.629      -38.012      -10.718       11.180        7.690        9.724      124.982       59.142       94.560        0.660        0.014      113.202        5.102        0.002      329.359       -3.956      871.651
11/17/2014  01:20:00      -84.758      -33.840      -12.066       11.837       10.803        8.212      140.116      116.704       67.436        0.440        0.016       91.264        3.369        0.001      329.375       -3.930      871.656
11/17/2014  01:21:00      -88.270      -26.396       -8.393       11.374        9.687        8.274      129.368       93.841       68.455        0.443        0.015       92.132        5.550        0.004      329.324       -4.012      871.655
11/17/2014  01:22:00      -79.473      -27.374       -8.549       21.092       11.537       11.877      444.854      133.095      141.068        0.393        0.036       84.056        5.203        0.004      329.337       -3.991      871.651
11/17/2014  01:23:00      -53.134      -23.812       -1.529       17.530       12.988        9.114      307.286      168.692       83.072        0.198        0.028       58.225        7.041        0.015      329.316       -4.027      871.646
11/17/2014  01:24:00      -80.683      -20.450       -8.183       16.049       12.453       11.695      257.580      155.074      136.766        0.377        0.027       83.235        9.276        0.012      329.368       -3.941      871.659
11/17/2014  01:25:00      -68.985      -19.784       -7.308       13.433       13.898       10.727      180.436      193.155      115.072        0.285        0.024       71.766        8.186        0.013      329.378       -3.925      871.670
11/17/2014  01:26:00      -80.436      -10.484      -11.545       12.778       12.047       11.513      163.270      145.127      132.541        0.358        0.022       81.116        9.142        0.013      329.377       -3.928      871.670
11/17/2014  01:27:00      -89.076       -8.981      -12.831       11.718       10.125       10.500      137.307      102.510      110.252        0.426        0.018       89.528        7.504        0.007      329.320       -4.018      871.684
11/17/2014  01:28:00      -82.887      -14.728      -12.304       12.479        9.687       11.871      155.731       93.835      140.925        0.381        0.020       84.185        5.744        0.005      329.288       -4.073      871.697
11/17/2014  01:29:00      -72.859      -18.250      -10.064       15.116        9.617        8.743      228.498       92.485       76.447        0.307        0.020       75.110        3.474        0.002      329.261       -4.116      871.717
11/17/2014  01:30:00      -76.508      -22.777       -9.935       13.324       14.242       10.718      177.528      202.824      114.878        0.348        0.025       79.827        7.379        0.009      329.295       -4.061      871.736
11/17/2014  01:31:00      -76.969      -19.941       -8.939       12.156       10.114       10.005      147.775      102.301      100.094        0.338        0.018       79.510        4.867        0.004      329.252       -4.131      871.750
11/17/2014  01:32:00      -85.583      -17.236      -10.266       11.460       12.635        8.692      131.338      159.638       75.553        0.405        0.018       87.301        7.175        0.007      329.312       -4.033      871.755
11/17/2014  01:33:00      -75.578      -24.889       -3.645       19.339       11.097        9.800      373.994      123.142       96.044        0.347        0.030       79.571        9.231        0.013      329.293       -4.061      871.768
11/17/2014  01:34:00      -96.439      -28.392       -8.109       22.430       14.907       10.771      503.090      222.206      116.023        0.551        0.042      100.531       11.063        0.012      329.284       -4.078      871.797
11/17/2014  01:35:00      -88.056      -27.270       -5.740       23.794       18.188       15.222      566.177      330.819      231.710        0.483        0.056       92.182       12.765        0.019      329.273       -4.097      871.834
11/17/2014  01:36:00      -89.752      -28.473       -4.833       24.144       16.682       11.730      582.937      278.283      137.595        0.494        0.050       94.161       11.744        0.016      329.262       -4.114      871.853
11/17/2014  01:37:00      -88.676      -19.008       -7.371       26.822       17.457       12.733      719.408      304.745      162.127        0.473        0.059       90.690       12.282        0.018      329.250       -4.134      871.871
11/17/2014  01:38:00      -99.695      -23.335       -6.190       20.134       15.073       11.763      405.377      227.192      138.362        0.565        0.039      102.389        9.222        0.008      329.190       -4.234      871.870
11/17/2014  01:39:00      -95.610      -27.012       -1.889       17.157       13.859       11.118      294.372      192.074      123.608        0.524        0.031       99.353       10.343        0.011      329.194       -4.227      871.868
11/17/2014  01:40:00      -91.222      -42.237      -10.814       12.967       12.527       10.049      168.150      156.938      100.981        0.532        0.021      100.526        5.162        0.003      329.268       -4.105      871.856
11/17/2014  01:41:00      -89.581      -40.200       -5.476       12.783       14.197       11.003      163.404      201.553      121.059        0.508        0.024       98.187        6.372        0.004      329.210       -4.199      871.833
11/17/2014  01:42:00      -77.450      -45.503       -2.283       32.080       21.248       14.755     1029.152      451.469      217.703        0.489        0.085       89.828       13.787        0.024      329.201       -4.215      871.810
11/17/2014  01:43:00      -74.899      -52.009        0.286       26.134       21.755       17.921      682.997      473.301      321.178        0.490        0.074       91.186       10.930        0.014      329.205       -4.207      871.786
11/17/2014  01:44:00      -73.678      -29.022        6.008       30.686       20.647       19.035      941.628      426.281      362.340        0.402        0.087       79.188       16.725        0.045      329.079       -4.413      871.773
11/17/2014  01:45:00      -58.627      -33.003       -2.810       30.566       14.315       14.494      934.295      204.918      210.078        0.294        0.067       67.278        7.133        0.011      329.126       -4.336      871.762
11/17/2014  01:46:00      -61.971      -38.404       -1.473       36.883       24.661       18.700     1360.346      608.187      349.680        0.382        0.116       72.906       14.500        0.040      329.128       -4.333      871.739
11/17/2014  01:47:00      -68.801      -54.114       -1.437       30.297       21.676       15.720      917.926      469.850      247.124        0.465        0.082       87.532        8.745        0.010      329.210       -4.200      871.715
11/17/2014  01:48:00     -114.563      -46.016       -6.210       20.108       16.751       13.220      404.314      280.607      174.763        0.807        0.043      123.459       12.315        0.010      329.147       -4.304      871.701
11/17/2014  01:49:00     -101.054      -42.219      -10.493       18.209       13.106       11.065      331.579      171.756      122.427        0.636        0.031      109.519        9.677        0.008      329.146       -4.304      871.706
11/17/2014  01:50:00      -87.880      -49.386      -13.291       15.444       17.157       12.764      238.527      294.348      162.912        0.552        0.035      100.806        9.930        0.010      329.153       -4.293      871.701
11/17/2014  01:51:00     -103.441      -46.606      -12.465       14.863       18.563        9.140      220.901      344.590       83.548        0.684        0.032      113.455        4.802        0.002      329.102       -4.374      871.694
11/17/2014  01:52:00     -101.801      -48.287       -8.631       16.194       16.306       13.369      262.240      265.883      178.724        0.674        0.035      112.672        7.583        0.005      329.076       -4.417      871.694
11/17/2014  01:53:00     -110.789      -18.339      -13.563       14.131       16.046       12.936      199.699      257.473      167.339        0.671        0.031      112.297        6.059        0.003      329.002       -4.539      871.706
11/17/2014  01:54:00      -85.303      -15.639       -5.349       27.523       16.543       15.430      757.491      273.662      238.090        0.441        0.063       86.725       15.046        0.030      328.939       -4.644      871.705
11/17/2014  01:55:00     -101.325      -33.440      -12.733       18.105       17.249       12.646      327.776      297.534      159.909        0.617        0.039      106.701        6.450        0.004      328.949       -4.626      871.705
11/17/2014  01:56:00      -92.528      -34.914      -10.456       13.939       14.484       14.981      194.283      209.788      224.421        0.526        0.031       98.896        6.264        0.004      328.976       -4.581      871.698
11/17/2014  01:57:00     -108.567      -29.759       -9.419       18.493       15.073       13.215      341.984      227.181      174.629        0.675        0.037      112.572        9.565        0.007      328.969       -4.593      871.697
11/17/2014  01:58:00      -81.151      -42.661       -3.898       26.078       17.343       11.644      680.072      300.792      135.573        0.477        0.056       91.681       12.775        0.019      329.001       -4.543      871.694
11/17/2014  01:59:00      -86.399      -43.313       -7.347       17.300       22.152       15.837      299.279      490.725      250.817        0.522        0.052       96.648       12.311        0.016      328.965       -4.600      871.693
11/17/2014  02:00:00      -72.068      -54.887       -5.596       28.328       19.879       18.622      802.470      395.161      346.764        0.489        0.077       90.589       14.502        0.026      329.042       -4.476      871.668
11/17/2014  02:01:00      -59.266      -41.529       -4.710       32.190       21.474       16.233     1036.186      461.114      263.498        0.351        0.088       72.368       14.105        0.038      329.094       -4.389      871.636
11/17/2014  02:02:00      -66.951      -44.294        1.796       33.723       20.446       19.342     1137.266      418.053      374.107        0.419        0.096       80.277       19.321        0.058      329.081       -4.410      871.602
11/17/2014  02:03:00      -98.378      -27.513       -8.150       12.366       17.759       11.333      152.924      315.383      128.432        0.555        0.030      102.153        5.712        0.003      329.062       -4.441      871.577
11/17/2014  02:04:00      -92.578      -29.359       -9.920       18.412       21.664       10.748      339.004      469.313      115.516        0.523        0.046       97.122        7.406        0.006      329.109       -4.364      871.567
11/17/2014  02:05:00      -84.771      -51.273      -12.777       20.864       18.799       13.081      435.322      353.386      171.119        0.547        0.048       99.071       10.158        0.011      329.100       -4.379      871.556
11/17/2014  02:06:00      -88.040      -47.961       -9.906       14.610       18.558       14.254      213.446      344.395      203.166        0.546        0.038      100.256        7.839        0.006      329.136       -4.321      871.553
11/17/2014  02:07:00      -68.239      -51.502       -4.575       28.799       19.511       15.237      829.373      380.679      232.156        0.439        0.072       85.493        8.710        0.010      329.155       -4.289      871.573
11/17/2014  02:08:00      -61.590      -35.019       -0.083       38.922       15.743       16.763     1514.915      247.833      280.998        0.353        0.102       70.850       15.679        0.049      329.089       -4.397      871.591
11/17/2014  02:09:00     -107.506      -54.438      -13.620       19.195       18.239       12.973      368.443      332.653      168.292        0.779        0.043      120.503        7.001        0.003      329.056       -4.452      871.603
11/17/2014  02:10:00     -122.714      -53.825      -13.373       15.855       14.334       12.733      251.371      205.462      162.126        0.938        0.031      133.999        3.233        0.001      329.029       -4.497      871.602
11/17/2014  02:11:00      -82.295      -52.313       -6.049       19.903       18.670       15.744      396.113      348.583      247.881        0.527        0.050       97.515       12.338        0.016      329.034       -4.487      871.598
11/17/2014  02:12:00      -85.233      -49.953       -7.562       25.953       22.466       19.124      673.572      504.723      365.728        0.568        0.077       98.792       11.614        0.014      329.017       -4.516      871.594
11/17/2014  02:13:00     -104.351      -41.734       -2.099       31.343       20.049       14.725      982.407      401.951      216.838        0.712        0.080      112.387       15.255        0.018      329.017       -4.514      871.586
11/17/2014  02:14:00      -54.380      -20.209        8.713       48.970       25.859       21.181     2398.105      668.701      448.628        0.348        0.176       58.014       25.052        0.186      328.981       -4.571      871.581
11/17/2014  02:15:00     -145.945      -18.520      -13.992       37.450       19.157       18.033     1402.505      366.981      325.202        1.197        0.105      147.115       20.026        0.019      328.912       -4.688      871.579
11/17/2014  02:16:00     -119.872      -44.771       -9.048       24.110       20.932       15.395      581.294      438.158      237.009        0.886        0.063      127.960       14.636        0.013      328.901       -4.703      871.586
11/17/2014  02:17:00      -99.837      -67.050        2.321       44.190       23.680       18.596     1952.745      560.746      345.796        0.866        0.143      120.263       19.099        0.025      328.937       -4.646      871.587
11/17/2014  02:18:00      -83.765      -31.103       -3.024       42.125       28.829       20.775     1774.502      831.131      431.621        0.551        0.152       89.353       19.910        0.050      328.908       -4.693      871.584
11/17/2014  02:19:00     -105.459      -21.708      -10.160       24.825       22.444       16.728      616.304      503.735      279.823        0.655        0.070      107.670       11.923        0.012      328.833       -4.815      871.572
11/17/2014  02:20:00     -126.778      -37.883       -9.998       53.529       35.383       26.498     2865.341     1251.925      702.151        1.121        0.241      132.317       29.045        0.048      328.769       -4.921      871.549
11/17/2014  02:21:00     -117.577      -25.573        3.420       50.321       32.371       21.082     2532.222     1047.855      444.439        0.926        0.201      120.326       24.997        0.043      328.779       -4.901      871.528
11/17/2014  02:22:00      -52.723      -43.033        0.882       55.562       30.540       25.358     3087.181      932.665      643.026        0.465        0.233       68.055       31.473        0.214      328.855       -4.780      871.513
11/17/2014  02:23:00      -86.124      -15.180       -6.634       43.584       31.239       19.313     1899.555      975.868      372.979        0.547        0.162       87.452       18.190        0.043      328.929       -4.659      871.494
11/17/2014  02:24:00     -132.234      -41.031       -7.826       37.632       29.788       17.490     1416.131      887.353      305.909        1.092        0.130      138.454       22.007        0.025      328.864       -4.764      871.485
11/17/2014  02:25:00     -122.083      -17.281       -8.962       37.421       31.813       21.395     1400.349     1012.085      457.763        0.908        0.144      123.300       18.898        0.023      328.828       -4.822      871.489
11/17/2014  02:26:00     -103.321       -6.129       -8.674       23.375       33.038       21.493      546.381     1091.481      461.945        0.644        0.105      103.502       13.782        0.018      328.834       -4.813      871.484
11/17/2014  02:27:00     -101.347      -45.657       -1.468       34.760       31.435       20.765     1208.252      988.183      431.181        0.749        0.131      111.156       16.137        0.021      328.848       -4.790      871.484
11/17/2014  02:28:00     -113.811      -29.580       -3.563       25.987       34.520       16.148      675.326     1191.599      260.759        0.798        0.106      117.592       10.347        0.008      328.829       -4.821      871.486
11/17/2014  02:29:00     -135.188      -48.101       -8.343       31.076       28.365       22.575      965.724      804.597      509.610        1.147        0.114      143.491       17.391        0.015      328.880       -4.738      871.503
11/17/2014  02:30:00     -127.905      -46.834       -2.614       26.476       33.243       14.555      700.985     1105.065      211.855        1.029        0.101      136.210       14.870        0.012      328.873       -4.750      871.514
11/17/2014  02:31:00      -93.622      -44.468       -1.159       26.676       27.386       19.546      711.614      749.994      382.043        0.629        0.092      103.646       12.887        0.015      328.889       -4.723      871.516
11/17/2014  02:32:00      -98.475      -53.055       -6.319       29.615       30.514       18.609      877.025      931.106      346.308        0.735        0.108      111.858       15.130        0.018      328.875       -4.746      871.514
11/17/2014  02:33:00      -81.129      -54.718       -1.904       32.870       37.328       17.158     1080.412     1393.350      294.402        0.617        0.138       97.857       17.737        0.033      328.893       -4.718      871.516
11/17/2014  02:34:00      -75.823      -22.368       -1.986       30.739       35.460       18.726      944.882     1257.409      350.653        0.440        0.128       79.054       14.575        0.034      328.796       -4.875      871.499
11/17/2014  02:35:00      -76.917      -34.496       -5.131       35.366       29.636       13.920     1250.761      878.290      193.765        0.473        0.116       84.299       11.460        0.018      328.810       -4.853      871.473
11/17/2014  02:36:00      -76.264      -42.871       -0.525       28.266       25.871       18.609      798.953      669.309      346.305        0.473        0.091       87.488       14.387        0.027      328.789       -4.884      871.463
11/17/2014  02:37:00      -94.389      -43.367       -3.285       26.656       23.606       18.322      710.532      557.258      335.707        0.620        0.080      103.875       13.577        0.017      328.853       -4.783      871.444
11/17/2014  02:38:00      -92.764      -19.865       -9.177       15.605       17.362       12.729      243.529      301.449      162.022        0.490        0.035       94.867        7.543        0.006      328.883       -4.733      871.423
11/17/2014  02:39:00      -88.537      -17.728       -5.556       21.391       17.140       15.746      457.564      293.765      247.948        0.459        0.050       90.294       12.603        0.019      328.865       -4.763      871.409
11/17/2014  02:40:00      -78.828      -23.235       -5.405       25.318       18.265       13.098      641.013      333.617      171.568        0.396        0.057       82.181       11.842        0.021      328.832       -4.815      871.402
11/17/2014  02:41:00      -83.776      -23.350      -10.679       23.998       17.784       13.856      575.901      316.274      192.001        0.438        0.054       86.969       12.169        0.020      328.804       -4.861      871.400
11/17/2014  02:42:00      -59.960      -16.289       -3.505       15.979       15.170        9.217      255.342      230.142       84.947        0.222        0.029       62.133        9.280        0.022      328.819       -4.838      871.403
11/17/2014  02:43:00      -59.417      -13.350       -2.798       15.610       18.381       10.340      243.679      337.845      106.914        0.220        0.034       60.899        7.463        0.015      328.818       -4.840      871.395
11/17/2014  02:44:00      -69.930      -21.869       -7.760       11.576       11.110        9.181      134.009      123.427       84.285        0.289        0.017       73.270        3.712        0.003      328.836       -4.811      871.379
11/17/2014  02:45:00      -75.571      -12.110       -3.960       20.861       15.371       11.081      435.199      236.269      122.780        0.333        0.040       76.535       11.186        0.021      328.773       -4.912      871.371
11/17/2014  02:46:00     -106.879      -16.059      -12.665       13.474       12.161       10.281      181.539      147.890      105.692        0.614        0.022      108.079        6.730        0.004      328.819       -4.837      871.369
11/17/2014  02:47:00     -104.926       -8.396      -12.371       13.841       13.369        8.820      191.574      178.726       77.784        0.584        0.022      105.261        3.018        0.001      328.778       -4.905      871.355
11/17/2014  02:48:00      -98.996      -11.933       -9.069       26.049       18.172       17.078      678.533      330.222      291.665        0.566        0.065       99.712       17.227        0.030      328.734       -4.976      871.342
11/17/2014  02:49:00      -76.669      -13.092        0.728       22.288       19.534       16.847      496.733      381.583      283.834        0.361        0.058       77.779       14.890        0.037      328.734       -4.977      871.330
11/17/2014  02:50:00      -84.233      -11.004       -3.355       20.757       14.760       12.253      430.856      217.847      150.141        0.401        0.040       84.949       10.042        0.014      328.725       -4.992      871.327
11/17/2014  02:51:00     -107.011      -15.809       -8.783       16.912       14.651       10.219      286.031      214.651      104.434        0.619        0.030      108.173        6.560        0.004      328.753       -4.944      871.333
11/17/2014  02:52:00      -98.027      -36.984       -9.613       25.517       17.162       10.898      651.128      294.540      118.761        0.607        0.053      104.772       10.164        0.009      328.758       -4.936      871.335
11/17/2014  02:53:00     -101.598      -36.105      -14.405       14.095       17.626       14.169      198.670      310.660      200.762        0.627        0.036      107.823        9.721        0.008      328.694       -5.042      871.334
11/17/2014  02:54:00      -93.945      -19.459      -10.848       15.489       15.986       16.034      239.904      255.546      257.103        0.504        0.038       95.939        7.510        0.006      328.663       -5.091      871.330
11/17/2014  02:55:00      -89.161      -14.260       -7.397       29.763       15.128       14.680      885.852      228.866      215.514        0.477        0.067       90.294       15.071        0.028      328.628       -5.150      871.323
11/17/2014  02:56:00      -76.294        1.695       -2.480       29.367       16.634       16.392      862.407      276.690      268.695        0.362        0.070       76.313       16.874        0.049      328.548       -5.279      871.307
11/17/2014  02:57:00      -69.141       -9.186       -6.796       25.396       19.259       13.730      644.942      370.899      188.509        0.306        0.060       69.748       13.542        0.038      328.577       -5.232      871.293
11/17/2014  02:58:00      -92.822       -1.130      -11.011       19.915       16.733       13.981      396.593      279.985      195.472        0.481        0.044       92.829       10.852        0.014      328.517       -5.330      871.284
11/17/2014  02:59:00      -75.845      -16.363      -10.241       25.185       19.613       12.815      634.276      384.688      164.236        0.365        0.059       77.590       12.178        0.025      328.607       -5.184      871.273
11/17/2014  03:00:00      -74.563      -20.912       -4.295       22.140       13.202        8.188      490.180      174.283       67.040        0.337        0.037       77.440        9.023        0.014      328.597       -5.200      871.265
11/17/2014  03:01:00      -98.121      -19.775      -15.029       16.396       19.955       10.788      268.840      398.187      116.382        0.551        0.039      100.094        4.983        0.002      328.573       -5.238      871.267
11/17/2014  03:02:00      -81.626      -32.706      -16.185       18.113       16.471       10.817      328.080      271.301      117.009        0.436        0.036       87.935        6.958        0.006      328.540       -5.294      871.267
11/17/2014  03:03:00      -72.874      -18.497      -11.205       14.002       19.538       10.085      196.057      381.748      101.717        0.323        0.034       75.185        5.930        0.006      328.604       -5.189      871.266
11/17/2014  03:04:00      -38.279      -18.893        1.583       25.359       22.098       11.630      643.091      488.324      135.246        0.155        0.063       42.688       12.011        0.079      328.575       -5.235      871.279
11/17/2014  03:05:00      -73.336      -11.841       -5.718       24.945       11.660       11.506      622.272      135.947      132.399        0.322        0.045       74.286       14.006        0.036      328.603       -5.189      871.287
11/17/2014  03:06:00      -76.683      -11.972       -6.245       22.269       16.005       13.349      495.897      256.159      178.206        0.350        0.047       77.612       13.304        0.029      328.614       -5.172      871.298
11/17/2014  03:07:00      -89.074      -13.382       -6.205       11.867       12.383       10.405      140.829      153.347      108.255        0.428        0.020       90.074        5.352        0.004      328.614       -5.172      871.317
11/17/2014  03:08:00      -91.348       -5.471      -10.361       21.693       13.207       13.500      470.606      174.421      182.256        0.465        0.041       91.512       13.407        0.021      328.523       -5.322      871.343
11/17/2014  03:09:00      -90.965        0.045       -6.027       20.788       14.128       14.357      432.123      199.607      206.134        0.457        0.042       90.965       12.408        0.019      328.534       -5.303      871.363
11/17/2014  03:10:00      -73.154       -2.147       -4.379       28.691       19.161       16.325      823.175      367.134      266.514        0.342        0.073       73.185       16.231        0.049      328.481       -5.390      871.373
11/17/2014  03:11:00      -62.280        0.947       -5.004       26.399       19.105       16.195      696.906      365.015      262.272        0.261        0.066       62.288        9.930        0.025      328.530       -5.308      871.377
11/17/2014  03:12:00      -75.638       -6.794       -1.317       21.910       19.210       15.427      480.037      369.018      237.997        0.343        0.054       75.942       12.158        0.026      328.453       -5.436      871.369
11/17/2014  03:13:00      -93.025      -14.052       -7.854       20.258       13.093       10.377      410.381      171.416      107.685        0.480        0.034       94.081        9.928        0.011      328.485       -5.383      871.356
11/17/2014  03:14:00      -92.996      -10.295       -9.120       20.136       12.913       14.995      405.441      166.753      224.841        0.482        0.040       93.564       14.661        0.025      328.439       -5.456      871.341
11/17/2014  03:15:00      -63.586      -14.367        0.857       26.807       18.216       14.173      718.637      331.809      200.862        0.275        0.063       65.189       14.219        0.048      328.403       -5.517      871.324
11/17/2014  03:16:00      -77.762      -14.043       -2.018       15.263       18.703       10.184      232.968      349.811      103.713        0.347        0.034       79.020        6.688        0.007      328.482       -5.390      871.309
11/17/2014  03:17:00      -59.054      -17.404       -1.497       19.991       16.721       12.193      399.648      279.598      148.680        0.231        0.041       61.565       10.904        0.031      328.560       -5.261      871.290
11/17/2014  03:18:00      -45.860      -14.784        8.733       31.920       20.813       17.328     1018.857      433.184      300.270        0.207        0.088       48.184       19.632        0.166      328.521       -5.325      871.282
11/17/2014  03:19:00      -68.670      -10.522        1.327       29.690       23.047       15.377      881.507      531.175      236.462        0.324        0.082       69.471       15.395        0.049      328.537       -5.298      871.273
11/17/2014  03:20:00      -83.032      -34.058        0.732       20.644       19.065       14.032      426.187      363.478      196.909        0.452        0.049       89.746       10.091        0.013      328.523       -5.320      871.262
11/17/2014  03:21:00      -92.711      -47.380       -6.729       16.565       20.884       18.046      274.389      436.130      325.675        0.596        0.052      104.117       12.329        0.014      328.519       -5.326      871.260
11/17/2014  03:22:00      -91.748      -19.519       -6.934       16.973       15.721       13.153      288.077      247.163      173.013        0.478        0.035       93.801        9.038        0.009      328.523       -5.321      871.269
11/17/2014  03:23:00      -65.653      -13.255       -0.957       25.204       17.303       13.556      635.238      299.379      183.759        0.280        0.056       66.978       12.908        0.037      328.412       -5.501      871.299
11/17/2014  03:24:00      -60.112       -7.683       -1.225       22.167       23.933       14.824      491.358      572.801      219.741        0.248        0.064       60.601       10.980        0.033      328.344       -5.612      871.319
11/17/2014  03:25:00      -74.301       -9.988        1.635       25.882       19.364       15.881      669.857      374.968      252.203        0.346        0.065       74.969       14.972        0.040      328.371       -5.568      871.338
11/17/2014  03:26:00      -66.330      -16.589        0.099       24.769       18.246       12.219      613.511      332.933      149.297        0.289        0.055       68.373       13.711        0.040      328.359       -5.588      871.356
11/17/2014  03:27:00      -53.909      -24.746       -7.285       14.324       17.394        9.467      205.182      302.536       89.630        0.208        0.030       59.318        7.543        0.016      328.452       -5.437      871.361
11/17/2014  03:28:00      -75.172      -16.367       -6.784       19.148       16.499       12.937      366.660      272.219      167.366        0.339        0.040       76.933       11.614        0.023      328.400       -5.521      871.362
11/17/2014  03:29:00      -78.429       -7.315       -5.139       22.360       17.514       17.583      499.952      306.743      309.145        0.367        0.056       78.769       14.451        0.034      328.321       -5.649      871.361
11/17/2014  03:30:00      -83.814      -46.413       -3.420       22.246       19.878       16.292      494.873      395.130      265.421        0.517        0.058       95.807       11.632        0.015      328.349       -5.605      871.358
11/17/2014  03:31:00      -69.179      -45.851       -4.270       44.184       24.114       18.283     1952.258      581.466      334.255        0.489        0.143       82.994       17.536        0.045      328.461       -5.422      871.368
11/17/2014  03:32:00      -58.566      -40.714        8.282       39.055       31.483       29.244     1525.259      991.208      855.194        0.426        0.169       71.327       26.413        0.137      328.395       -5.529      871.379
11/17/2014  03:33:00      -48.769      -38.972        3.215       42.392       24.360       19.805     1797.040      593.399      392.232        0.334        0.139       62.428       19.152        0.094      328.446       -5.447      871.382
11/17/2014  03:34:00      -66.125      -43.180        5.849       44.577       25.078       22.855     1987.132      628.931      522.354        0.470        0.157       78.974       19.719        0.062      328.382       -5.550      871.386
11/17/2014  03:35:00      -61.708      -45.568        5.253       38.510       28.601       20.252     1483.000      818.020      410.130        0.431        0.136       76.710       17.413        0.052      328.431       -5.471      871.378
11/17/2014  03:36:00      -33.310      -35.460       18.523       42.412       26.189       23.577     1798.803      685.879      555.866        0.287        0.152       48.651       23.742        0.238      328.459       -5.424      871.349
11/17/2014  03:37:00      -35.511      -44.094        9.781       35.790       36.549       23.510     1280.946     1335.815      552.702        0.323        0.158       56.615       21.907        0.150      328.466       -5.414      871.313
11/17/2014  03:38:00      -54.806      -58.742       -0.810       29.161       22.244       14.509      850.373      494.808      210.502        0.401        0.078       80.339        9.734        0.015      328.442       -5.452      871.274
11/17/2014  03:39:00      -75.511      -52.239       -2.582       34.047       20.949       20.081     1159.188      438.855      403.261        0.522        0.100       91.819       18.475        0.040      328.458       -5.426      871.241
11/17/2014  03:40:00      -50.900      -41.875        9.394       38.059       16.483       17.389     1448.493      271.674      302.374        0.323        0.101       65.911       20.873        0.100      328.496       -5.365      871.226
11/17/2014  03:41:00      -76.463      -23.457       -3.257       34.934       21.626       18.920     1220.370      467.705      357.971        0.423        0.102       79.981       21.727        0.074      328.334       -5.629      871.225
11/17/2014  03:42:00     -108.946      -19.730       -2.760       22.759       18.285       14.462      517.977      334.354      209.149        0.666        0.053      110.718       10.649        0.009      328.257       -5.755      871.218
11/17/2014  03:43:00     -100.514      -18.633       -2.559       30.538       19.584       18.757      932.590      383.544      351.824        0.606        0.083      102.227       18.385        0.032      328.234       -5.790      871.211
11/17/2014  03:44:00     -112.515      -18.900       -6.565       34.297       24.454       19.472     1176.306      597.983      379.178        0.761        0.108      114.092       18.506        0.026      328.212       -5.827      871.201
11/17/2014  03:45:00      -86.866      -10.670       -1.107       42.094       23.311       20.754     1771.903      543.383      430.748        0.520        0.137       87.519       20.440        0.055      328.187       -5.870      871.187
11/17/2014  03:46:00      -87.323      -33.688       -1.367       35.561       31.690       19.629     1264.619     1004.239      385.314        0.571        0.133       93.596       18.016        0.037      328.135       -5.954      871.192
11/17/2014  03:47:00     -120.657      -17.920       -7.819       27.786       18.551       16.406      772.081      344.135      269.143        0.816        0.069      121.981       14.013        0.013      328.107       -5.999      871.193
11/17/2014  03:48:00     -117.612      -35.178       -5.214       36.861       24.038       20.732     1358.757      577.832      429.800        0.873        0.118      122.760       21.465        0.031      328.112       -5.990      871.194
11/17/2014  03:49:00     -122.812      -23.930       -8.854       28.366       21.624       17.623      804.614      467.582      310.555        0.866        0.079      125.122       15.377        0.015      328.110       -5.992      871.189
11/17/2014  03:50:00     -112.435      -29.386       -4.518       33.033       22.808       17.249     1091.197      520.199      297.528        0.772        0.095      116.212       17.726        0.023      328.114       -5.988      871.187
11/17/2014  03:51:00     -120.976      -32.825       -3.487       27.685       28.758       21.628      766.454      827.001      467.760        0.889        0.103      125.350       16.756        0.018      328.059       -6.077      871.184
11/17/2014  03:52:00      -99.357      -24.750       -2.579       35.516       24.302       19.445     1261.380      590.599      378.100        0.636        0.112      102.393       22.408        0.048      328.103       -6.005      871.163
11/17/2014  03:53:00     -107.958      -34.494       -2.138       30.478       19.643       14.644      928.916      385.842      214.451        0.719        0.076      113.335       16.479        0.021      328.077       -6.049      871.131
11/17/2014  03:54:00      -99.850      -34.302       -2.688       19.456       19.197       13.528      378.518      368.529      183.006        0.604        0.047      105.578        9.653        0.008      328.127       -5.967      871.107
11/17/2014  03:55:00      -87.796      -27.951       -7.021       34.215       30.328       18.191     1170.634      919.767      330.909        0.548        0.121       92.138       18.733        0.041      328.084       -6.037      871.092
11/17/2014  03:56:00     -103.590      -28.464       -7.846       30.038       20.035       17.299      902.284      401.398      299.265        0.660        0.080      107.430        7.894        0.005      328.171       -5.894      871.079
11/17/2014  03:57:00      -96.267      -25.604       -3.000       21.490       20.401       11.939      461.841      416.204      142.535        0.548        0.051       99.614       10.193        0.010      328.190       -5.864      871.064
11/17/2014  03:58:00      -73.386      -32.600        0.135       34.222       24.259       18.215     1171.178      588.501      331.786        0.427        0.105       80.301       19.795        0.061      328.112       -5.991      871.048
11/17/2014  03:59:00      -86.822      -45.553       -2.773       24.072       22.525       16.728      579.449      507.357      279.833        0.549        0.068       98.047       14.894        0.023      328.206       -5.837      871.040
11/17/2014  04:00:00      -88.648      -37.567       -4.046       20.696       23.327       14.005      428.305      544.158      196.133        0.523        0.058       96.280       11.866        0.015      328.258       -5.751      871.043
11/17/2014  04:01:00      -87.142      -41.718       -2.175       22.104       20.434       13.754      488.584      417.534      189.165        0.522        0.055       96.613       11.262        0.014      328.236       -5.788      871.040
11/17/2014  04:02:00      -88.303      -48.360       -2.993       19.145       17.879       12.791      366.522      319.674      163.601        0.550        0.042      100.678       10.365        0.011      328.310       -5.669      871.046
11/17/2014  04:03:00      -69.238      -33.545        1.724       35.012       14.595       14.750     1225.807      213.024      217.563        0.379        0.083       76.936       17.077        0.049      328.283       -5.712      871.066
11/17/2014  04:04:00      -49.398      -16.767       -0.703       18.347       17.222       12.281      336.619      296.599      150.832        0.175        0.039       52.166        6.324        0.015      328.288       -5.703      871.084
11/17/2014  04:05:00      -50.435      -23.532       -7.138       11.608       15.612       10.528      134.754      243.735      110.846        0.182        0.024       55.655        6.419        0.013      328.240       -5.783      871.093
11/17/2014  04:06:00      -49.699      -29.849       -6.848       20.463       10.574       14.208      418.743      111.808      201.871        0.207        0.037       57.974        8.972        0.024      328.290       -5.699      871.098
11/17/2014  04:07:00      -38.202      -20.889       -3.218       16.417       11.453        9.756      269.524      131.174       95.173        0.120        0.025       43.540        7.673        0.031      328.298       -5.689      871.112
11/17/2014  04:08:00      -67.372       -8.233       -6.066       24.633       12.148       14.271      606.793      147.583      203.650        0.280        0.048       67.873       14.059        0.043      328.286       -5.707      871.106
11/17/2014  04:09:00      -70.485      -12.957       -6.781       28.268       15.423       13.799      799.103      237.858      190.413        0.320        0.061       71.666       15.337        0.046      328.181       -5.878      871.095
11/17/2014  04:10:00      -84.642       -4.696       -9.254       21.286       16.976       13.395      453.081      288.191      179.414        0.410        0.046       84.772       12.662        0.022      328.166       -5.903      871.080
11/17/2014  04:11:00      -86.198       -7.682       -6.327       18.714       12.620       12.943      350.200      159.272      167.524        0.410        0.034       86.540       11.739        0.018      328.174       -5.890      871.069
11/17/2014  04:12:00      -82.704      -11.637      -12.708       23.210       16.465       11.189      538.719      271.106      125.201        0.404        0.047       83.519        6.465        0.006      328.165       -5.903      871.055
11/17/2014  04:13:00      -94.685      -26.822       -7.576       20.059       15.835       11.924      402.359      250.754      142.187        0.527        0.040       98.411       11.298        0.013      328.147       -5.932      871.047
11/17/2014  04:14:00      -87.870      -27.520      -10.415       16.067       20.980       13.042      258.163      440.160      170.102        0.473        0.043       92.078        6.570        0.005      328.053       -6.086      871.041
11/17/2014  04:15:00      -91.260      -28.080       -7.163       15.452       15.563       10.470      238.759      242.210      109.615        0.488        0.030       95.483        6.901        0.005      328.109       -5.996      871.048
11/17/2014  04:16:00      -77.127      -18.452       -4.510       26.170       21.125       16.064      684.858      446.253      258.042        0.385        0.069       79.304       13.048        0.027      328.083       -6.038      871.074
11/17/2014  04:17:00      -79.998        0.593       -2.637       35.949       23.336       20.589     1292.348      544.559      423.895        0.433        0.113       80.000       20.261        0.064      327.903       -6.331      871.089
11/17/2014  04:18:00      -77.908      -35.991       -3.550       35.207       29.595       12.944     1239.531      875.892      167.549        0.483        0.114       85.820       15.446        0.032      327.918       -6.305      871.081
11/17/2014  04:19:00      -80.822      -40.058       -4.772       22.444       21.832       13.237      503.748      476.631      175.218        0.466        0.058       90.204       11.681        0.017      328.022       -6.139      871.057
11/17/2014  04:20:00      -78.353      -37.973       -2.977       20.694       21.682       11.729      428.234      470.098      137.577        0.431        0.052       87.070        5.319        0.004      328.054       -6.085      871.011
11/17/2014  04:21:00      -54.318      -18.745        3.733       27.581       27.485       15.697      760.729      755.439      246.402        0.254        0.088       57.461       16.347        0.081      328.065       -6.068      870.968
11/17/2014  04:22:00      -60.772      -22.890       -3.006       24.105       28.407       15.408      581.058      806.967      237.394        0.293        0.081       64.940       10.040        0.024      328.150       -5.928      870.950
11/17/2014  04:23:00      -49.834      -27.281        0.681       32.741       22.878       14.052     1071.946      523.414      197.451        0.251        0.090       56.812       18.118        0.102      328.189       -5.866      870.945
11/17/2014  04:24:00      -30.177      -19.104        3.785       25.593       16.391       13.981      654.990      268.658      195.463        0.120        0.056       35.716       16.865        0.223      328.179       -5.882      870.962
11/17/2014  04:25:00      -41.350       -6.617       -4.652       20.593       15.800       12.248      424.060      249.633      150.015        0.130        0.041       41.876       13.596        0.105      328.140       -5.945      870.978
11/17/2014  04:26:00      -37.982      -10.439       -1.282       14.064        9.861        8.456      197.787       97.245       71.500        0.096        0.018       39.391        4.217        0.011      328.175       -5.888      870.997
11/17/2014  04:27:00      -57.399      -18.683       -2.826       26.398       15.165        8.505      696.829      229.983       72.341        0.233        0.050       60.363        8.678        0.021      328.158       -5.916      871.011
11/17/2014  04:28:00      -87.632      -38.143       -8.599       16.789       14.081       11.920      281.856      198.280      142.079        0.492        0.031       95.573        9.734        0.010      328.177       -5.884      871.008
11/17/2014  04:29:00      -85.536      -47.491      -11.297       16.635       18.140       12.328      276.719      329.065      151.990        0.523        0.038       97.836        9.638        0.010      328.208       -5.835      871.008
11/17/2014  04:30:00      -90.324      -34.248       -9.765       17.793       22.822        9.711      316.592      520.850       94.298        0.518        0.047       96.599        6.446        0.004      328.176       -5.886      871.002
11/17/2014  04:31:00      -68.299      -10.587       -4.181       22.585       19.210       12.178      510.060      369.023      148.302        0.291        0.051       69.115       12.314        0.032      328.053       -6.086      870.995
11/17/2014  04:32:00      -85.634       -3.255       -2.022       23.382       18.790       15.438      546.729      353.077      238.341        0.424        0.057       85.696       15.171        0.031      328.010       -6.157      870.983
11/17/2014  04:33:00      -91.577       -8.855       -7.885       16.284       16.612       13.948      265.154      275.947      194.539        0.463        0.037       92.004        9.998        0.012      327.923       -6.298      870.971
11/17/2014  04:34:00      -86.324       -4.157       -6.987       29.462       15.554       13.668      868.023      241.939      186.811        0.441        0.065       86.424       12.822        0.022      327.907       -6.324      870.964
11/17/2014  04:35:00      -91.926       -1.715       -8.406       26.569       15.545       15.568      705.894      241.642      242.362        0.486        0.059       91.942       14.465        0.025      327.909       -6.322      870.959
11/17/2014  04:36:00      -88.522      -16.945       -0.383       28.356       17.895       14.572      804.073      320.247      212.340        0.473        0.067       90.130       13.853        0.024      327.955       -6.246      870.953
11/17/2014  04:37:00      -65.800      -24.464        0.645       28.476       19.771       14.327      810.885      390.903      205.249        0.317        0.070       70.201       12.902        0.034      327.938       -6.272      870.952
11/17/2014  04:38:00      -56.236      -22.619       -4.274       20.488       14.889        9.000      419.763      221.688       80.993        0.221        0.036       60.615        9.113        0.023      328.041       -6.106      870.968
11/17/2014  04:39:00      -73.900      -13.195       -8.793       13.406       10.356        7.783      179.726      107.249       60.581        0.303        0.017       75.069        6.692        0.008      327.988       -6.193      870.989
11/17/2014  04:40:00      -60.941      -16.985       -3.187       24.980       15.465       11.021      623.980      239.162      121.465        0.250        0.049       63.264       12.008        0.036      327.985       -6.198      870.998
11/17/2014  04:41:00      -55.775      -19.827       -4.634       33.520       22.064       14.543     1123.605      486.802      211.504        0.267        0.091       59.195       14.316        0.058      328.033       -6.118      870.998
11/17/2014  04:42:00      -68.025      -26.126       -1.852       23.118       20.518       14.643      534.433      420.979      214.424        0.324        0.058       72.870       14.790        0.041      328.042       -6.104      870.986
11/17/2014  04:43:00      -52.012      -22.883        2.803       20.873       19.388       11.696      435.670      375.881      136.802        0.209        0.047       56.823        7.255        0.016      327.971       -6.220      870.971
11/17/2014  04:44:00      -38.091      -13.198        7.300       29.955       17.937       12.481      897.313      321.727      155.779        0.153        0.069       40.312        9.553        0.056      327.908       -6.322      870.945
11/17/2014  04:45:00      -34.949      -10.426        3.101       30.296       16.442       13.714      917.873      270.355      188.074        0.136        0.069       36.471       16.582        0.207      327.884       -6.361      870.937
11/17/2014  04:46:00      -39.533      -16.643        3.460       25.111       15.967       13.561      630.570      254.957      183.911        0.146        0.053       42.894       10.701        0.062      327.978       -6.209      870.930
11/17/2014  04:47:00      -33.820       -7.435       -0.675       25.450       12.780        8.184      647.716      163.336       66.986        0.104        0.044       34.628        8.371        0.058      328.005       -6.165      870.926
11/17/2014  04:48:00      -21.619        1.313       -1.343       12.977        9.663        8.407      168.397       93.377       70.680        0.040        0.017       21.659        6.870        0.101      327.968       -6.226      870.919
11/17/2014  04:49:00      -26.682       -7.680       -4.731       10.806        7.782        6.305      116.773       60.552       39.748        0.051        0.011       27.765        3.199        0.013      328.011       -6.153      870.925
11/17/2014  04:50:00      -67.564       -3.680       -7.211       25.385        8.143       10.215      644.418       66.315      104.345        0.272        0.041       67.664       10.115        0.022      327.999       -6.173      870.922
11/17/2014  04:51:00      -85.056       -7.637      -12.387       14.365       12.745       11.036      206.354      162.442      121.799        0.397        0.025       85.398        8.291        0.009      328.008       -6.160      870.922
11/17/2014  04:52:00      -82.805       -8.561       -6.998       26.753       18.994       15.490      715.715      360.786      239.946        0.415        0.066       83.246       12.605        0.023      327.995       -6.182      870.908
11/17/2014  04:53:00      -76.760       -2.887       -4.586       29.203       21.503       16.048      852.832      462.368      257.541        0.375        0.079       76.814       13.537        0.031      327.911       -6.318      870.887
11/17/2014  04:54:00      -57.902      -11.952        1.048       34.188       28.251       18.753     1168.825      798.104      351.684        0.291        0.116       59.123       16.465        0.078      327.802       -6.495      870.865
11/17/2014  04:55:00      -94.844      -19.335        2.427       36.363       32.771       19.299     1322.262     1073.945      372.466        0.607        0.138       96.794       20.598        0.045      327.806       -6.488      870.861
11/17/2014  04:56:00      -80.863      -15.785       -7.853       36.621       26.412       16.610     1341.099      697.604      275.904        0.458        0.116       82.389       17.027        0.043      327.750       -6.579      870.859
11/17/2014  04:57:00      -89.771      -26.022        0.611       31.008       25.063       14.855      961.468      628.132      220.682        0.527        0.091       93.466       14.379        0.024      327.791       -6.514      870.864
11/17/2014  04:58:00      -86.869      -31.969        1.973       31.280       25.815       16.556      978.430      666.424      274.106        0.525        0.096       92.565       14.826        0.026      327.854       -6.411      870.869
11/17/2014  04:59:00     -100.748      -38.910       -2.585       33.274       23.464       18.158     1107.174      550.557      329.697        0.683        0.099      108.000       16.593        0.024      327.826       -6.456      870.873
11/17/2014  05:00:00      -86.729      -14.795        0.609       33.210       26.770       15.278     1102.883      716.658      233.414        0.490        0.103       87.982       13.054        0.022      327.815       -6.475      870.882
11/17/2014  05:01:00      -91.892       -8.993       -3.793       32.491       22.689       16.924     1055.652      514.794      286.429        0.520        0.093       92.331       18.114        0.038      327.724       -6.622      870.873
11/17/2014  05:02:00      -73.014      -23.172       -1.208       31.190       24.981       18.064      972.835      624.073      326.298        0.390        0.096       76.603       18.308        0.057      327.758       -6.567      870.857
11/17/2014  05:03:00      -61.683      -43.326        1.938       30.293       31.021       18.397      917.665      962.280      338.460        0.395        0.111       75.378       13.639        0.033      327.824       -6.459      870.854
11/17/2014  05:04:00      -93.925      -22.588       -6.623       33.187       21.173       14.501     1101.363      448.277      210.292        0.557        0.088       96.603        9.232        0.009      327.711       -6.642      870.855
11/17/2014  05:05:00     -120.972      -16.717      -11.469       21.994       17.262       14.820      483.733      297.978      219.640        0.802        0.050      122.122        9.528        0.006      327.730       -6.612      870.833
11/17/2014  05:06:00     -106.731      -38.363       -6.944       20.528       22.338       15.518      421.402      498.981      240.814        0.704        0.058      113.416       13.613        0.014      327.652       -6.740      870.812
11/17/2014  05:07:00      -82.820      -27.699       -2.284       33.074       32.580       15.546     1093.884     1061.439      241.684        0.501        0.120       87.330       16.465        0.036      327.618       -6.794      870.787
11/17/2014  05:08:00     -103.499      -15.069       -6.259       37.148       22.253       16.538     1380.005      495.212      273.496        0.656        0.107      104.590       18.249        0.030      327.591       -6.838      870.779
11/17/2014  05:09:00     -107.146      -13.644       -7.289       30.999       22.518       17.776      960.956      507.064      315.993        0.675        0.089      108.011       13.571        0.016      327.563       -6.883      870.778
11/17/2014  05:10:00     -106.406      -26.660       -8.751       32.245       21.026       17.135     1039.757      442.100      293.604        0.694        0.089      109.695       19.050        0.030      327.551       -6.903      870.765
11/17/2014  05:11:00      -89.767      -48.749       -7.066       22.542       22.810       13.716      508.137      520.274      188.138        0.585        0.061      102.149        8.209        0.006      327.545       -6.913      870.772
11/17/2014  05:12:00      -91.063      -27.720       -9.523       20.416       23.008       11.983      416.801      529.375      143.597        0.512        0.054       95.189       10.143        0.011      327.594       -6.833      870.760
11/17/2014  05:13:00     -115.854      -23.804      -10.588       15.434       12.237       10.446      238.194      149.739      109.120        0.730        0.025      118.275        8.302        0.005      327.603       -6.819      870.743
11/17/2014  05:14:00      -66.922      -35.755       -7.121       30.525       19.721       14.981      931.786      388.922      224.427        0.368        0.077       75.875       13.254        0.031      327.694       -6.671      870.716
11/17/2014  05:15:00      -71.752      -48.595       -2.833       39.606       18.463       17.425     1568.653      340.895      303.624        0.487        0.111       86.660       15.723        0.033      327.679       -6.696      870.688
11/17/2014  05:16:00      -80.748      -33.403       -2.668       22.859       20.122       15.011      522.549      404.895      225.329        0.440        0.058       87.384       10.887        0.016      327.760       -6.564      870.688
11/17/2014  05:17:00      -80.904      -52.143       -1.924       26.045       25.742       15.970      678.346      662.666      255.041        0.543        0.080       96.252       12.616        0.017      327.754       -6.573      870.694
11/17/2014  05:18:00      -96.111      -34.177       -6.153       21.065       18.072       12.082      443.718      326.601      145.978        0.568        0.046      102.007        9.022        0.008      327.748       -6.582      870.694
11/17/2014  05:19:00      -95.028      -15.774      -11.634       16.948       15.792       12.360      287.225      249.396      152.779        0.505        0.034       96.329        8.494        0.008      327.736       -6.603      870.700
11/17/2014  05:20:00      -85.844      -11.718       -4.602       18.108       15.269       12.375      327.911      233.141      153.145        0.412        0.036       86.640       10.677        0.015      327.720       -6.627      870.704
11/17/2014  05:21:00     -114.983       -7.474      -11.626       17.788       12.236       12.296      316.401      149.709      151.190        0.701        0.031      115.226       10.998        0.009      327.718       -6.633      870.707
11/17/2014  05:22:00     -112.705      -11.441      -11.770       24.924       17.546       13.179      621.183      307.861      173.678        0.704        0.055      113.284       12.549        0.012      327.723       -6.623      870.732
11/17/2014  05:23:00     -103.088      -10.271       -9.021       21.744       18.559       12.223      472.819      344.427      149.396        0.589        0.048      103.598        9.088        0.008      327.685       -6.685      870.778
11/17/2014  05:24:00      -91.489      -30.121       -1.940       17.449       15.783       11.966      304.482      249.098      143.179        0.499        0.035       96.320        9.360        0.009      327.725       -6.621      870.818
11/17/2014  05:25:00     -101.947      -30.142       -7.813       18.709       24.734       13.219      350.033      611.791      174.733        0.625        0.057      106.310        6.386        0.004      327.746       -6.587      870.819
11/17/2014  05:26:00      -79.885      -23.023       -5.492       33.607       33.158       18.032     1129.397     1099.448      325.169        0.475        0.128       83.136       16.004        0.037      327.713       -6.640      870.804
11/17/2014  05:27:00      -19.888      -22.030        2.542       27.079       30.614       24.783      733.274      937.241      614.220        0.159        0.114       29.680       22.220        0.561      327.694       -6.672      870.793
11/17/2014  05:28:00      -10.460      -23.920       -3.537       31.760       22.148       16.342     1008.729      490.537      267.056        0.123        0.088       26.107       15.635        0.359      327.727       -6.618      870.778
11/17/2014  05:29:00      -20.580      -35.109       -5.433       48.946       18.757       17.739     2395.694      351.809      314.676        0.237        0.153       40.696       12.517        0.095      327.729       -6.614      870.760
11/17/2014  05:30:00      -98.060      -30.740       -7.134       21.838       25.699       13.788      476.886      660.462      190.097        0.597        0.066      102.766        8.704        0.007      327.667       -6.716      870.763
11/17/2014  05:31:00      -91.458      -32.564      -10.965       14.893       18.333       13.952      221.798      336.084      194.665        0.515        0.038       97.083        7.633        0.006      327.681       -6.693      870.789
11/17/2014  05:32:00      -71.664      -22.005       -9.858       16.282       23.810       13.125      265.117      566.918      172.276        0.336        0.050       74.967        5.302        0.005      327.660       -6.728      870.817
11/17/2014  05:33:00      -34.559      -16.208        5.165       16.472       15.141       13.398      271.319      229.245      179.507        0.108        0.034       38.170        9.081        0.057      327.741       -6.594      870.836
11/17/2014  05:34:00      -45.821       -8.466      -11.206       15.758       10.046       12.644      248.324      100.924      159.867        0.140        0.025       46.597        7.891        0.029      327.828       -6.453      870.856
11/17/2014  05:35:00      -63.811      -12.068      -12.476       14.615       16.719       16.231      213.599      279.531      263.447        0.256        0.038       64.942        4.418        0.005      327.876       -6.376      870.880
11/17/2014  05:36:00      -57.032      -18.843       -8.983       14.606       12.483       13.542      213.324      155.819      183.373        0.212        0.028       60.064        9.751        0.026      327.851       -6.415      870.891
11/17/2014  05:37:00      -66.127      -20.644       -1.499       23.335       14.372       15.451      544.540      206.547      238.730        0.290        0.049       69.275       15.850        0.052      327.800       -6.498      870.887
11/17/2014  05:38:00      -75.409      -32.199      -14.944       11.990       13.553       13.290      143.761      183.694      176.615        0.373        0.025       81.995        9.960        0.015      327.756       -6.571      870.874
11/17/2014  05:39:00      -89.228      -35.540      -15.487       23.601       16.231       13.424      556.997      263.443      180.203        0.523        0.050       96.045        7.516        0.006      327.678       -6.698      870.853
11/17/2014  05:40:00      -95.722      -23.111      -10.116       17.940       24.758       16.034      321.852      612.954      257.096        0.550        0.060       98.472        8.301        0.007      327.733       -6.606      870.836
11/17/2014  05:41:00     -105.991      -29.260      -11.460       21.416       28.319       15.982      458.661      801.971      255.433        0.687        0.076      109.955       12.797        0.014      327.683       -6.688      870.809
11/17/2014  05:42:00     -125.026       -2.648      -24.401       34.707       24.417       17.617     1204.571      596.193      310.361        0.917        0.106      125.054       10.831        0.008      327.595       -6.831      870.793
11/17/2014  05:43:00     -114.494       -8.689      -21.234       21.432       20.265       17.731      459.318      410.659      314.391        0.741        0.059      114.823       13.079        0.013      327.526       -6.945      870.779
11/17/2014  05:44:00     -130.330      -21.451      -19.631       24.898       20.897       13.688      619.933      436.685      187.369        0.954        0.062      132.084        9.637        0.005      327.495       -6.995      870.771
11/17/2014  05:45:00     -122.197      -23.340      -15.160       28.182       24.691       18.904      794.233      609.651      357.366        0.873        0.088      124.406       13.490        0.012      327.466       -7.042      870.761
11/17/2014  05:46:00     -126.948      -21.345      -11.727       29.508       28.783       18.990      870.736      828.452      360.632        0.938        0.103      128.730       14.089        0.012      327.456       -7.057      870.755
11/17/2014  05:47:00     -106.548      -28.533      -10.902       32.576       22.579       18.488     1061.215      509.816      341.793        0.710        0.096      110.303       12.491        0.013      327.430       -7.100      870.752
11/17/2014  05:48:00      -94.587      -26.240       -6.371       24.703       22.109       16.104      610.238      488.821      259.335        0.552        0.068       98.159        9.457        0.009      327.614       -6.800      870.733
11/17/2014  05:49:00      -97.354      -46.983       -4.524       28.294       30.611       17.661      800.563      937.037      311.914        0.688        0.102      108.098        7.910        0.005      327.566       -6.878      870.713
11/17/2014  05:50:00     -130.977      -30.143       -5.142       36.959       27.464       18.762     1365.960      754.273      351.999        1.028        0.124      134.401       17.800        0.018      327.511       -6.969      870.709
11/17/2014  05:51:00     -101.512      -10.204       -9.473       23.508       17.815       15.088      552.614      317.390      227.635        0.580        0.055      102.023       12.814        0.016      327.514       -6.964      870.725
11/17/2014  05:52:00      -97.184      -21.265       -2.653       37.368       22.307       17.686     1396.372      497.608      312.806        0.605        0.110       99.483       20.520        0.043      327.566       -6.879      870.747
11/17/2014  05:53:00      -94.006      -34.362       -9.756       25.031       21.892       14.692      626.556      479.241      215.866        0.572        0.066      100.090        9.861        0.010      327.573       -6.865      870.770
11/17/2014  05:54:00      -61.465      -31.647       -1.170       29.990       34.734       21.311      899.389     1206.427      454.167        0.367        0.128       69.134       12.348        0.032      327.549       -6.906      870.788
11/17/2014  05:55:00     -102.705      -18.685       -3.999       29.717       28.244       17.176      883.078      797.724      295.012        0.644        0.099      104.391       13.079        0.016      327.540       -6.920      870.799
11/17/2014  05:56:00     -100.600      -24.814       -5.402       33.257       31.260       20.524     1106.011      977.209      421.244        0.663        0.125      103.616       17.038        0.027      327.539       -6.922      870.815
11/17/2014  05:57:00     -114.837      -24.304      -11.282       23.764       22.130       15.889      564.729      489.751      252.463        0.761        0.065      117.381        9.407        0.006      327.611       -6.807      870.809
11/17/2014  05:58:00     -108.748      -48.984      -20.492       24.298       22.305       11.898      590.407      497.532      141.574        0.794        0.061      119.271        7.208        0.004      327.666       -6.717      870.781
11/17/2014  05:59:00      -70.474      -42.147       -5.663       42.648       25.111       20.970     1818.848      630.550      439.725        0.483        0.144       82.116       23.472        0.082      327.676       -6.701      870.772
11/17/2014  06:00:00      -67.888      -31.730       -7.451       41.403       22.610       18.014     1714.176      511.234      324.512        0.411        0.127       74.937       22.546        0.091      327.684       -6.687      870.789
11/17/2014  06:01:00      -67.990      -20.526       -5.087       31.871       18.424       13.910     1015.733      339.437      193.496        0.331        0.077       71.021       14.089        0.039      327.689       -6.680      870.809
11/17/2014  06:02:00     -105.609       -6.088       -8.442       18.432       16.139       13.454      339.720      260.476      180.998        0.602        0.039      105.784       11.101        0.011      327.623       -6.787      870.825
11/17/2014  06:03:00     -115.118      -19.793      -12.097       17.232       12.766       14.791      296.953      162.974      218.781        0.723        0.034      116.807        8.588        0.005      327.662       -6.723      870.845
11/17/2014  06:04:00     -122.626      -23.781      -13.741       14.759       17.334       13.201      217.821      300.478      174.269        0.824        0.035      124.910        6.819        0.003      327.628       -6.778      870.867
11/17/2014  06:05:00     -108.248      -10.660      -10.637       31.114       22.796       18.535      968.098      519.676      343.542        0.689        0.092      108.772       16.762        0.024      327.659       -6.728      870.867
11/17/2014  06:06:00     -114.700      -10.666       -9.282       37.185       27.315       18.834     1382.742      746.103      354.706        0.792        0.124      115.194       18.841        0.027      327.603       -6.819      870.857
11/17/2014  06:07:00     -107.522      -16.880       -8.049       34.341       20.747       17.465     1179.307      430.420      305.039        0.691        0.096      108.839       17.152        0.025      327.594       -6.833      870.850
11/17/2014  06:08:00      -93.238      -24.013        0.283       32.673       31.227       21.283     1067.520      975.134      452.978        0.588        0.125       96.281       19.777        0.042      327.567       -6.877      870.851
11/17/2014  06:09:00      -80.412      -34.751       -0.456       29.215       30.385       18.730      853.523      923.223      350.822        0.490        0.106       87.599       14.777        0.028      327.640       -6.759      870.853
11/17/2014  06:10:00      -49.919      -17.052       -2.771       37.235       28.307       15.621     1386.451      801.293      244.001        0.261        0.122       52.751       13.789        0.068      327.701       -6.661      870.851
11/17/2014  06:11:00      -10.186      -14.343       16.553       24.578       19.455       23.841      604.055      378.501      568.409        0.107        0.078       17.592       15.253        0.752      327.599       -6.826      870.855
11/17/2014  06:12:00      -51.207      -24.527       -3.158       30.740       20.878       16.880      944.956      435.910      284.940        0.245        0.083       56.778       15.786        0.077      327.625       -6.783      870.866
11/17/2014  06:13:00      -86.166      -27.090      -12.097       21.969       18.611       13.216      482.656      346.362      174.672        0.465        0.050       90.324       12.519        0.019      327.560       -6.888      870.901
11/17/2014  06:14:00      -92.309      -29.641      -14.659       20.738       15.056       15.253      430.053      226.672      232.663        0.525        0.044       96.951       11.381        0.014      327.605       -6.815      870.932
11/17/2014  06:15:00      -96.822      -16.455       -2.926       23.228       16.765       17.288      539.540      281.056      298.889        0.539        0.056       98.210       13.721        0.020      327.542       -6.918      870.956
11/17/2014  06:16:00     -104.948      -25.708      -19.063       13.461       19.975       10.932      181.193      398.994      119.517        0.637        0.035      108.051        3.901        0.001      327.590       -6.839      870.958
11/17/2014  06:17:00      -94.534      -35.666       -9.089       31.449       23.159       15.223      989.048      536.352      231.728        0.602        0.088      101.038        3.720        0.001      327.647       -6.748      870.963
11/17/2014  06:18:00     -105.392      -18.621       -8.123       31.472       19.648       19.233      990.484      386.045      369.924        0.663        0.087      107.025       18.473        0.030      327.561       -6.887      870.968
11/17/2014  06:19:00     -112.827      -17.677      -13.534       17.948       14.329       12.312      322.122      205.331      151.575        0.695        0.034      114.203        8.470        0.006      327.632       -6.772      870.959
11/17/2014  06:20:00     -102.197      -19.436      -14.215       29.785       17.702       15.594      887.166      313.360      243.177        0.623        0.072      104.028       14.937        0.021      327.589       -6.842      870.942
11/17/2014  06:21:00     -103.614      -25.179      -12.361       21.768       24.773       13.013      473.865      613.706      169.340        0.639        0.063      106.629       10.552        0.010      327.636       -6.765      870.937
11/17/2014  06:22:00     -110.723      -39.957      -19.576       24.437       22.840       10.902      597.152      521.678      118.861        0.774        0.062      117.713        6.442        0.003      327.649       -6.744      870.934
11/17/2014  06:23:00     -110.168      -54.335       -7.559       24.941       24.595       18.355      622.071      604.920      336.900        0.835        0.078      122.838       11.860        0.009      327.677       -6.698      870.940
11/17/2014  06:24:00     -113.347      -44.256      -13.586       24.766       18.891       15.588      613.370      356.859      242.984        0.810        0.061      121.681       11.055        0.008      327.690       -6.678      870.949
11/17/2014  06:25:00     -105.613      -34.253      -19.088       31.117       24.540       14.209      968.290      602.207      201.896        0.723        0.089      111.029       11.027        0.010      327.608       -6.811      870.955
11/17/2014  06:26:00     -115.566      -35.584       -9.871       25.965       25.074       14.330      674.187      628.695      205.351        0.811        0.075      120.920        9.546        0.006      327.623       -6.786      870.949
11/17/2014  06:27:00     -111.451      -24.973      -16.598       16.368       15.955       13.651      267.913      254.574      186.361        0.701        0.035      114.215        6.600        0.003      327.571       -6.870      870.947
11/17/2014  06:28:00     -115.527      -29.500      -14.673       18.583       20.053       14.979      345.325      402.141      224.356        0.770        0.049      119.234        9.677        0.007      327.571       -6.871      870.957
11/17/2014  06:29:00      -92.612      -21.028       -8.007       23.451       19.801       15.533      549.945      392.078      241.281        0.513        0.059       94.969       12.650        0.018      327.485       -7.010      870.966
11/17/2014  06:30:00     -131.960      -11.370      -14.659       32.059       24.113       18.365     1027.755      581.418      337.258        0.985        0.097      132.449       14.268        0.012      327.536       -6.927      870.978
11/17/2014  06:31:00     -111.064       -8.569       -6.509       34.835       28.518       18.088     1213.494      813.288      327.172        0.740        0.118      111.394       16.131        0.021      327.464       -7.044      870.982
11/17/2014  06:32:00      -96.405      -23.782       -9.339       33.900       22.280       15.861     1149.207      496.380      251.560        0.592        0.095       99.295       15.541        0.024      327.603       -6.820      870.991
11/17/2014  06:33:00      -14.364      -23.474       -5.719       16.460       14.637       14.129      270.928      214.232      199.642        0.074        0.034       27.520        5.259        0.037      327.690       -6.678      871.005
11/17/2014  06:34:00       -8.178      -24.068      -16.134       19.132       15.408       12.964      366.049      237.421      168.068        0.084        0.039       25.419       10.472        0.170      327.732       -6.609      871.021
11/17/2014  06:35:00      -14.121        8.013        9.379        9.628       19.585       13.895       92.693      383.589      193.084        0.051        0.033       16.236       12.577        0.600      327.816       -6.472      871.027
11/17/2014  06:36:00      -22.794       16.742        8.607       12.246        6.848        8.623      149.960       46.890       74.358        0.057        0.014       28.281        5.249        0.034      327.794       -6.507      871.042
11/17/2014  06:37:00       17.650       13.897       11.380       20.866       17.639       15.856      435.391      311.130      251.399        0.082        0.050       22.465       15.361        0.468      327.759       -6.565      871.054
11/17/2014  06:38:00       17.150       15.815        5.929       11.019        9.051       10.963      121.425       81.915      120.195        0.045        0.016       23.328        3.393        0.021      327.741       -6.593      871.067
11/17/2014  06:39:00       13.982       13.022       -1.184        8.259        6.390        6.803       68.219       40.837       46.274        0.026        0.008       19.107        4.400        0.053      327.741       -6.596      871.079
11/17/2014  06:40:00       25.053       24.186        7.900        6.946        5.089        5.894       48.249       25.895       34.743        0.069        0.005       34.823        2.483        0.005      327.732       -6.608      871.096
11/17/2014  06:41:00       35.635       26.489       -0.228        8.275        5.527        6.257       68.468       30.545       39.146        0.105        0.007       44.402        4.533        0.010      327.755       -6.573      871.113
11/17/2014  06:42:00       37.433       24.687        3.591        9.765        9.510        9.137       95.348       90.442       83.491        0.115        0.013       44.841        5.503        0.015      327.706       -6.651      871.119
11/17/2014  06:43:00       33.193       39.144        1.486       16.646        6.611       10.723      277.083       43.706      114.993        0.154        0.022       51.323       10.395        0.041      327.713       -6.640      871.123
11/17/2014  06:44:00       30.667       33.603        4.068        8.239        8.306        6.963       67.878       68.986       48.483        0.114        0.009       45.493        4.528        0.010      327.709       -6.647      871.123
11/17/2014  06:45:00       27.704       20.532       -5.077        7.391        4.806        3.314       54.634       23.094       10.984        0.065        0.004       34.483        2.223        0.004      327.789       -6.517      871.120
11/17/2014  06:46:00        2.678       12.152       -1.185        5.947        5.823        4.759       35.370       33.912       22.645        0.012        0.005       12.444        5.112        0.169      327.852       -6.415      871.120
11/17/2014  06:47:00      -18.782       -4.074       -0.663        6.352        7.496        5.560       40.343       56.191       30.914        0.025        0.006       19.218        2.088        0.012      327.852       -6.413      871.119
11/17/2014  06:48:00      -24.761        0.891       -3.378        8.674        3.215        3.349       75.240       10.333       11.214        0.036        0.005       24.777        2.410        0.009      327.794       -6.509      871.116
11/17/2014  06:49:00      -21.277        0.032       -5.575       12.166        4.412        4.757      148.022       19.466       22.632        0.034        0.010       21.277        2.168        0.010      327.856       -6.408      871.121
11/17/2014  06:50:00      -29.786       -5.235       -3.581        8.983        7.534        5.080       80.690       56.756       25.805        0.055        0.008       30.243        2.494        0.007      327.831       -6.449      871.130
11/17/2014  06:51:00      -27.771       -7.671       -1.760       10.035        9.079        6.125      100.706       82.425       37.512        0.053        0.011       28.811        4.088        0.020      327.801       -6.497      871.139
11/17/2014  06:52:00      -60.765      -11.363       -3.855        8.747       10.774        7.463       76.517      116.081       55.703        0.204        0.012       61.818        3.588        0.003      327.817       -6.470      871.157
11/17/2014  06:53:00      -58.737      -23.212       -4.220       15.440       16.144        8.647      238.396      260.637       74.762        0.229        0.029       63.157        3.387        0.003      327.780       -6.532      871.171
11/17/2014  06:54:00      -61.305      -25.278       -4.449       11.627       13.368        8.605      135.186      178.694       74.038        0.240        0.019       66.312        6.327        0.009      327.828       -6.454      871.185
11/17/2014  06:55:00      -63.118      -19.821      -10.555       11.077       11.854        9.160      122.705      140.513       83.906        0.242        0.017       66.157        3.230        0.002      327.840       -6.433      871.202
11/17/2014  06:56:00      -63.103      -14.798      -12.523       15.002       15.344        9.633      225.054      235.427       92.797        0.246        0.028       64.814        8.693        0.018      327.843       -6.428      871.219
11/17/2014  06:57:00      -56.056      -25.196       -5.149       17.186       14.969       10.636      295.345      224.064      113.128        0.222        0.032       61.458        7.496        0.015      327.843       -6.427      871.235
11/17/2014  06:58:00      -34.169      -14.689       -3.679       12.420       19.929        8.917      154.247      397.148       79.521        0.101        0.032       37.193        5.066        0.019      327.883       -6.364      871.250
11/17/2014  06:59:00      -48.191      -18.785       -5.517       21.203       13.696       11.433      449.547      187.579      130.722        0.174        0.038       51.723       10.181        0.039      327.908       -6.322      871.254
11/17/2014  07:00:00      -44.250       -0.141       -7.138        7.774        8.661        7.207       60.436       75.013       51.942        0.110        0.009       44.250        3.521        0.006      327.914       -6.314      871.258
11/17/2014  07:01:00      -46.151        3.000       -4.694        7.361        6.713        5.084       54.183       45.064       25.847        0.114        0.006       46.248        2.018        0.002      327.962       -6.233      871.266
11/17/2014  07:02:00      -35.022        3.443       -3.915        7.418        5.885        5.516       55.021       34.637       30.426        0.069        0.006       35.191        3.309        0.009      327.991       -6.187      871.276
11/17/2014  07:03:00      -37.163       -1.563       -2.851        6.864        6.029        5.397       47.118       36.352       29.130        0.075        0.006       37.195        4.174        0.013      328.010       -6.156      871.277
11/17/2014  07:04:00      -20.603       -0.752       -8.693       13.044        6.601        9.607      170.136       43.569       92.286        0.040        0.015       20.616        5.203        0.064      327.966       -6.228      871.266
11/17/2014  07:05:00       -4.470       -2.116        4.056        7.207        4.515        5.604       51.943       20.388       31.400        0.007        0.005        4.946        4.249        0.738      328.145       -5.936      871.264
11/17/2014  07:06:00       16.014        8.635        9.675       15.828       17.880        9.519      250.527      319.689       90.604        0.054        0.033       18.194        5.491        0.091      328.124       -5.971      871.274
11/17/2014  07:07:00        9.526       14.834       -0.291       14.094       11.476        9.006      198.627      131.689       81.104        0.036        0.021       17.629        7.606        0.186      328.153       -5.924      871.287
11/17/2014  07:08:00       27.588       24.962        1.664       11.076       14.510        8.104      122.677      210.531       65.674        0.089        0.020       37.205        3.755        0.010      328.139       -5.947      871.293
11/17/2014  07:09:00       27.814       34.132        1.099       10.246       10.015        8.811      104.981      100.298       77.626        0.111        0.014       44.030        7.365        0.028      328.155       -5.921      871.302
11/17/2014  07:10:00       21.772       31.933       -1.890        8.430        9.893        6.938       71.065       97.877       48.131        0.086        0.011       38.648        5.339        0.019      328.138       -5.948      871.313
11/17/2014  07:11:00       10.914       30.605       -6.705        6.804       10.727        5.931       46.293      115.068       35.179        0.065        0.010       32.493        6.041        0.035      328.174       -5.889      871.322
11/17/2014  07:12:00       12.134       20.142        0.900        6.829       11.040        9.498       46.636      121.872       90.203        0.041        0.013       23.515        8.942        0.145      328.234       -5.790      871.340
11/17/2014  07:13:00       30.965       23.185        0.919       10.560        7.740        6.092      111.521       59.901       37.111        0.085        0.010       38.683        2.317        0.004      328.239       -5.781      871.349
11/17/2014  07:14:00       35.765       25.392        2.467        6.117        6.095        7.032       37.419       37.151       49.449        0.103        0.006       43.862        3.202        0.005      328.260       -5.749      871.374
11/17/2014  07:15:00       32.295       29.404       -1.179        6.044        6.278        7.119       36.532       39.408       50.679        0.102        0.006       43.676        3.909        0.008      328.237       -5.785      871.387
11/17/2014  07:16:00       31.672       21.722        2.752        5.618        5.233        7.106       31.560       27.386       50.499        0.080        0.005       38.405        3.571        0.009      328.267       -5.739      871.409
11/17/2014  07:17:00       30.469       27.324       -0.082        7.710        7.242        6.753       59.445       52.441       45.597        0.092        0.008       40.926        3.806        0.009      328.317       -5.656      871.418
11/17/2014  07:18:00       21.281       18.554       -4.965       10.264        7.048        7.360      105.347       49.668       54.168        0.052        0.010       28.233        3.854        0.019      328.345       -5.612      871.429
11/17/2014  07:19:00        2.133        2.028        5.512        6.375        9.840        8.377       40.636       96.828       70.173        0.012        0.010        2.943        6.022        4.187      328.481       -5.389      871.427
11/17/2014  07:20:00        4.597        2.098        3.267        5.448        9.761        5.233       29.677       95.282       27.384        0.009        0.008        5.053        5.244        1.077      328.473       -5.403      871.431
11/17/2014  07:21:00      -15.394       -1.759        1.383       13.806        6.334        8.822      190.597       40.115       77.826        0.028        0.015       15.494        6.913        0.199      328.380       -5.554      871.430
11/17/2014  07:22:00      -35.928       -9.465       -4.652        7.066        7.152        6.764       49.934       51.151       45.758        0.077        0.007       37.154        3.962        0.011      328.282       -5.713      871.429
11/17/2014  07:23:00      -31.780       -0.159       -6.072        6.814        8.062        7.210       46.436       65.001       51.989        0.061        0.008       31.780        3.482        0.012      328.266       -5.740      871.421
11/17/2014  07:24:00      -26.306       -4.338       -5.547        3.897        3.551        3.702       15.190       12.609       13.705        0.039        0.002       26.661        1.129        0.002      328.276       -5.723      871.408
11/17/2014  07:25:00      -36.266       -7.344       -7.749        6.139        7.841        5.034       37.682       61.487       25.339        0.078        0.006       37.003        3.569        0.009      328.336       -5.627      871.403
11/17/2014  07:26:00      -37.281      -26.826       -4.585       23.226       11.847       12.796      539.430      140.348      163.743        0.149        0.042       45.929        4.451        0.009      328.346       -5.608      871.397
11/17/2014  07:27:00      -50.375      -49.688       -3.224       17.622       26.672       16.041      310.550      711.370      257.307        0.315        0.064       70.757       10.775        0.023      328.356       -5.592      871.400
11/17/2014  07:28:00      -75.831      -67.180       -8.327       18.822       15.944       15.113      354.253      254.208      228.403        0.558        0.042      101.309       12.593        0.015      328.325       -5.643      871.400
11/17/2014  07:29:00      -47.119      -64.061       -0.073       17.704       21.456       14.492      313.420      460.366      210.030        0.365        0.049       79.524       12.026        0.023      328.345       -5.611      871.402
11/17/2014  07:30:00      -39.119      -64.371        0.285       28.710       27.669       21.322      824.239      765.569      454.645        0.386        0.102       75.325       21.311        0.080      328.413       -5.500      871.407
11/17/2014  07:31:00      -64.402      -68.749      -10.229       21.008       21.955       16.438      441.321      482.022      270.203        0.509        0.060       94.202       12.358        0.017      328.393       -5.532      871.408
11/17/2014  07:32:00      -38.917      -51.188       -1.652       22.667       25.533       15.050      513.802      651.938      226.491        0.276        0.070       64.302        9.512        0.022      328.433       -5.468      871.409
11/17/2014  07:33:00      -66.895      -78.994      -10.633       22.207       14.836       14.949      493.156      220.117      223.472        0.588        0.047      103.514        6.802        0.004      328.372       -5.567      871.421
11/17/2014  07:34:00      -63.454      -65.997      -14.921       13.200       17.644       11.126      174.231      311.304      123.795        0.461        0.030       91.553        7.424        0.007      328.421       -5.487      871.423
11/17/2014  07:35:00      -53.011      -63.549      -10.088       27.740       28.973       14.175      769.481      839.441      200.923        0.438        0.090       82.756       11.521        0.019      328.445       -5.448      871.414
11/17/2014  07:36:00      -49.461      -67.688       -5.989       22.623       24.534       11.122      511.801      601.939      123.702        0.415        0.062       83.834        6.361        0.006      328.410       -5.506      871.404
11/17/2014  07:37:00      -48.220      -86.199       -6.988       11.591       12.328        9.827      134.356      151.974       96.575        0.509        0.019       98.769        3.956        0.002      328.420       -5.488      871.399
11/17/2014  07:38:00      -43.422      -55.491        2.634       28.882       36.991       20.303      834.168     1368.332      412.219        0.379        0.131       70.461       19.518        0.077      328.487       -5.379      871.398
11/17/2014  07:39:00      -71.861      -83.342       -6.786       26.294       17.928       11.828      691.366      321.412      139.900        0.665        0.058      110.045        9.189        0.007      328.449       -5.440      871.395
11/17/2014  07:40:00      -73.740      -79.900       -2.487       31.280       20.045       17.568      978.442      401.821      308.629        0.676        0.084      108.727       11.688        0.012      328.518       -5.327      871.393
11/17/2014  07:41:00      -86.335     -103.027      -14.909       19.382       17.021       15.185      375.660      289.710      230.572        0.959        0.045      134.418        8.229        0.004      328.489       -5.376      871.382
11/17/2014  07:42:00      -88.594     -112.203      -14.047       13.707       16.133        9.511      187.875      260.278       90.465        1.059        0.027      142.963        6.370        0.002      328.478       -5.395      871.374
11/17/2014  07:43:00      -66.099      -64.216        3.914       37.447       23.911       23.658     1402.296      571.722      559.716        0.552        0.127       92.156       19.608        0.045      328.606       -5.185      871.371
11/17/2014  07:44:00      -88.058      -79.538       -1.368       36.294       25.851       23.045     1317.285      668.286      531.057        0.830        0.126      118.661       25.079        0.045      328.587       -5.216      871.372
11/17/2014  07:45:00      -94.438      -84.597       -8.996       22.369       25.603       17.552      500.392      655.523      308.073        0.881        0.073      126.788       13.386        0.011      328.557       -5.266      871.374
11/17/2014  07:46:00      -81.832      -84.416       -9.033       16.920       15.824        9.284      286.295      250.407       86.197        0.726        0.031      117.569        4.743        0.002      328.572       -5.240      871.380
11/17/2014  07:47:00      -76.948      -63.791       -7.387       26.058       37.094       15.065      679.029     1375.950      226.940        0.616        0.114       99.951       16.279        0.027      328.641       -5.128      871.380
11/17/2014  07:48:00      -70.008      -81.775       -9.597       24.840       21.193       12.743      617.003      449.128      162.373        0.645        0.061      107.649       11.285        0.011      328.698       -5.035      871.384
11/17/2014  07:49:00      -31.279      -57.648       -2.860       28.283       28.990       17.313      799.954      840.418      299.756        0.312        0.097       65.587       13.946        0.045      328.750       -4.950      871.394
11/17/2014  07:50:00      -62.346      -49.366       -2.156       39.017       25.580       22.178     1522.306      654.351      491.854        0.450        0.133       79.524       13.314        0.028      328.756       -4.940      871.395
11/17/2014  07:51:00      -78.001      -65.466       -8.024       22.064       21.618       14.623      486.816      467.357      213.828        0.580        0.058      101.833       10.483        0.011      328.757       -4.938      871.393
11/17/2014  07:52:00      -82.652      -78.740       -9.584       26.052       32.537       18.771      678.729     1058.628      352.365        0.761        0.104      114.155        7.139        0.004      328.767       -4.923      871.385
11/17/2014  07:53:00      -44.385      -66.670       -9.443       26.503       40.242       23.993      702.399     1619.436      575.676        0.470        0.145       80.093       24.550        0.094      328.829       -4.822      871.386
11/17/2014  07:54:00      -39.020      -34.485        2.506       28.186       24.784       23.320      794.478      614.238      543.808        0.233        0.098       52.074       17.344        0.111      328.970       -4.591      871.384
11/17/2014  07:55:00      -53.656      -55.047       -6.109       35.025       28.229       20.414     1226.722      796.894      416.744        0.419        0.122       76.871       16.650        0.047      328.953       -4.619      871.375
11/17/2014  07:56:00     -106.754      -79.851       -9.524       33.389       37.712       21.759     1114.816     1422.163      473.466        1.044        0.151      133.314       17.487        0.017      328.874       -4.748      871.364
11/17/2014  07:57:00      -87.971     -106.231      -12.243       21.556       25.357       17.271      464.667      642.961      298.280        1.029        0.070      137.928       15.575        0.013      328.840       -4.804      871.348
11/17/2014  07:58:00      -67.455      -84.994       -9.111       41.432       27.996       19.477     1716.606      783.786      379.369        0.737        0.144      108.509       18.659        0.030      329.047       -4.467      871.345
11/17/2014  07:59:00      -55.284      -53.941       -6.453       34.277       32.700       22.570     1174.904     1069.313      509.395        0.438        0.138       77.240       13.821        0.032      329.041       -4.475      871.343
11/17/2014  08:00:00      -33.437      -43.292       -8.867       31.837       25.198       22.624     1013.606      634.927      511.865        0.262        0.108       54.701       17.515        0.103      329.103       -4.375      871.352
11/17/2014  08:01:00      -42.154      -81.606       -1.064       57.055       34.280       28.138     3255.246     1175.140      791.732        0.683        0.261       91.851       23.925        0.068      329.087       -4.399      871.358
11/17/2014  08:02:00      -34.084      -65.460       -7.245       30.700       49.958       31.789      942.460     2495.778     1010.560        0.497        0.222       73.802       25.298        0.117      329.175       -4.256      871.368
11/17/2014  08:03:00      -62.129      -51.362        1.252       29.476       35.065       22.141      868.820     1229.541      490.205        0.454        0.129       80.610       17.234        0.046      329.139       -4.316      871.372
11/17/2014  08:04:00      -57.570      -56.551        4.324       42.544       32.189       26.824     1809.952     1036.106      719.506        0.505        0.178       80.699       18.717        0.054      329.130       -4.329      871.370
11/17/2014  08:05:00      -75.181      -76.355      -13.833       34.588       33.642       19.526     1196.320     1131.798      381.255        0.719        0.135      107.156       16.562        0.024      329.061       -4.442      871.372
11/17/2014  08:06:00      -67.928      -96.328       -7.351       31.094       39.006       21.365      966.818     1521.453      456.453        0.845        0.147      117.870       12.111        0.011      329.047       -4.466      871.364
11/17/2014  08:07:00      -61.745      -79.172      -14.065       35.042       35.759       20.507     1227.976     1278.709      420.538        0.660        0.146      100.402       18.382        0.034      329.044       -4.471      871.364
11/17/2014  08:08:00      -46.663      -71.871       -5.416       38.590       32.410       25.111     1489.160     1050.406      630.581        0.527        0.159       85.691       11.546        0.018      329.178       -4.252      871.365
11/17/2014  08:09:00     -116.319      -91.654       -2.557       29.525       26.527       25.818      871.737      703.687      666.570        1.209        0.112      148.090       17.888        0.015      329.025       -4.502      871.371
11/17/2014  08:10:00      -79.863      -50.738      -11.871       32.889       38.459       23.675     1081.699     1479.076      560.522        0.611        0.156       94.618       16.990        0.032      329.101       -4.378      871.376
11/17/2014  08:11:00      -82.938      -68.530       -5.760       38.874       38.150       16.200     1511.158     1455.443      262.444        0.742        0.161      107.588       15.550        0.021      329.068       -4.431      871.377
11/17/2014  08:12:00      -75.781      -59.949       -6.224       18.299       16.290       13.716      334.869      265.362      188.136        0.508        0.039       96.627        6.007        0.004      329.042       -4.475      871.368
11/17/2014  08:13:00      -52.573      -49.645        2.658       35.965       26.972       20.266     1293.471      727.491      410.713        0.383        0.122       72.308       14.753        0.042      329.213       -4.194      871.363
11/17/2014  08:14:00      -56.209      -59.177       -2.395       22.403       21.237       13.602      501.889      450.996      185.026        0.390        0.057       81.618       10.491        0.017      329.161       -4.279      871.365
11/17/2014  08:15:00      -39.501      -27.524       -6.791       26.008       21.924       11.515      676.435      480.672      132.605        0.183        0.064       48.145        9.973        0.043      329.269       -4.103      871.353
11/17/2014  08:16:00      -44.573      -38.944        2.899       47.669       20.704       16.523     2272.293      428.663      273.015        0.324        0.149       59.190       25.788        0.190      329.325       -4.010      871.357
11/17/2014  08:17:00      -62.422      -36.047       -0.844       23.584       19.053       18.558      556.220      363.026      344.384        0.323        0.063       72.083       15.647        0.047      329.335       -3.995      871.350
11/17/2014  08:18:00      -33.221      -19.066       -7.621       23.629       19.060       14.354      558.321      363.265      206.046        0.133        0.056       38.303       12.722        0.110      329.468       -3.778      871.349
11/17/2014  08:19:00      -51.538      -22.177       -5.168       25.526       19.782       14.089      651.557      391.326      198.508        0.221        0.062       56.107       12.104        0.047      329.393       -3.901      871.343
11/17/2014  08:20:00      -65.087      -32.537        0.122       28.607       20.547       20.105      818.334      422.164      404.210        0.347        0.082       72.767       19.096        0.069      329.433       -3.836      871.339
11/17/2014  08:21:00      -38.104       -3.933       -4.454       16.768       17.851       12.698      281.163      318.657      161.246        0.112        0.038       38.307       10.186        0.071      329.474       -3.767      871.330
11/17/2014  08:22:00      -12.499       17.003       17.921       28.939       24.319       18.941      837.465      591.428      358.755        0.128        0.089       21.103       20.136        0.910      329.793       -3.247      871.319
11/17/2014  08:23:00       62.209       48.049       39.680       49.788       28.284       25.774     2478.801      800.006      664.300        0.585        0.197       78.604       15.672        0.040      329.832       -3.183      871.320
11/17/2014  08:24:00       60.482       46.649       30.711       25.988       21.035       23.017      675.357      442.490      529.763        0.421        0.082       76.382       10.027        0.017      329.705       -3.390      871.321
11/17/2014  08:25:00       81.559       38.933       17.147       23.763       22.370       30.835      564.702      500.403      950.816        0.524        0.101       90.375        9.313        0.011      329.730       -3.348      871.320
11/17/2014  08:26:00       24.207       -2.725        4.969       34.457       30.817       21.534     1187.259      949.683      463.703        0.161        0.130       24.360       19.041        0.611      330.055       -2.819      871.312
11/17/2014  08:27:00        3.777       41.246       60.294       33.483       37.503       33.193     1121.117     1406.512     1101.800        0.449        0.181       41.418       26.752        0.417      330.147       -2.668      871.307
11/17/2014  08:28:00       84.435      104.853       65.734       54.276       28.719       40.455     2945.849      824.768     1636.582        1.392        0.270      134.623       32.047        0.057      329.744       -3.326      871.289
11/17/2014  08:29:00       77.315       70.729       49.798       38.550       44.763       40.226     1486.136     2003.723     1618.141        0.928        0.255      104.787       29.947        0.082      329.740       -3.332      871.278
11/17/2014  08:30:00       26.117       30.996       42.440       34.486       47.278       35.039     1189.316     2235.249     1227.744        0.405        0.233       40.532       36.766        0.823      329.976       -2.946      871.260
11/17/2014  08:31:00       50.406       44.234       41.178       35.610       34.475       30.554     1268.048     1188.499      933.573        0.479        0.170       67.063       21.219        0.100      329.840       -3.170      871.247
11/17/2014  08:32:00       69.479       65.980       45.854       41.626       21.844       30.438     1732.732      477.174      926.482        0.721        0.157       95.816       25.776        0.072      329.895       -3.078      871.229
11/17/2014  08:33:00       98.810       62.440       12.987       42.539       41.450       40.982     1809.606     1718.095     1679.499        0.952        0.260      116.885       18.326        0.025      329.850       -3.154      871.215
11/17/2014  08:34:00      101.873       62.029       17.392       47.774       42.102       32.997     2282.312     1772.566     1088.774        0.983        0.257      119.272       27.522        0.053      329.929       -3.024      871.210
11/17/2014  08:35:00      112.762       78.029        6.908       36.447       29.383       32.212     1328.357      863.369     1037.637        1.104        0.161      137.127       17.136        0.016      329.855       -3.145      871.215
11/17/2014  08:36:00       94.306       53.799        3.344       39.679       33.103       26.306     1574.408     1095.795      691.984        0.758        0.168      108.572        8.707        0.006      329.831       -3.184      871.213
11/17/2014  08:37:00      155.330      112.233       24.473       30.106       25.655       27.856      906.377      658.201      775.935        1.983        0.117      191.634       15.271        0.006      329.699       -3.400      871.210
11/17/2014  08:38:00       92.154       42.081       11.217       34.298       31.986       30.749     1176.356     1023.102      945.493        0.677        0.157      101.307        9.186        0.008      329.981       -2.939      871.209
11/17/2014  08:39:00       32.382       32.512       35.523       47.022       36.187       30.021     2211.060     1309.486      901.237        0.389        0.221       45.887       20.108        0.192      330.531       -2.037      871.215
11/17/2014  08:40:00       88.438       49.313        5.650       36.801       30.339       28.165     1354.294      920.441      793.256        0.668        0.153      101.258       22.913        0.051      329.882       -3.101      871.202
11/17/2014  08:41:00       -5.197       19.063       60.773       28.630       63.159       30.674      819.693     3989.014      940.883        0.492        0.287       19.759        8.481        0.184      330.456       -2.159      871.180
11/17/2014  08:42:00        6.556       27.656       57.295       26.443       27.586       22.722      699.251      761.003      516.290        0.303        0.099       28.422       11.829        0.173      330.544       -2.015      871.165
11/17/2014  08:43:00       -6.394       42.743       34.818       28.886       40.821       31.543      834.406     1666.352      994.935        0.329        0.175       43.219       23.745        0.302      330.523       -2.049      871.162
11/17/2014  08:44:00        0.124        1.831       25.544       21.335       36.890       29.386      455.184     1360.905      863.508        0.167        0.134        1.836       21.658      139.211      330.626       -1.881      871.165
11/17/2014  08:45:00       63.385       46.708       15.268       46.493       38.214       37.977     2161.619     1460.319     1442.251        0.575        0.253       78.736       29.903        0.144      330.272       -2.462      871.177
11/17/2014  08:46:00       38.329       36.995       10.645       35.980       20.837       29.013     1294.560      434.200      841.742        0.276        0.129       53.271       16.675        0.098      330.191       -2.594      871.187
11/17/2014  08:47:00       35.170       19.430        6.630       19.787       20.342       23.137      391.509      413.786      535.333        0.150        0.067       40.180       14.710        0.134      330.249       -2.499      871.189
11/17/2014  08:48:00       37.235       59.179       -6.291       28.092       41.195       29.477      789.169     1697.028      868.883        0.414        0.168       69.919       18.729        0.072      330.024       -2.869      871.195
11/17/2014  08:49:00       20.489        5.311       19.334       22.640       16.603       14.255      512.574      275.658      203.218        0.091        0.050       21.166        5.616        0.070      330.340       -2.349      871.184
11/17/2014  08:50:00       -1.975       50.967       10.431       35.626       34.939       23.297     1269.200     1220.735      542.750        0.287        0.152       51.006       22.105        0.188      330.449       -2.171      871.183
11/17/2014  08:51:00       23.239       81.865        4.812       32.024       34.364       31.729     1025.568     1180.915     1006.725        0.524        0.161       85.100       22.054        0.067      330.436       -2.193      871.170
11/17/2014  08:52:00       83.684       71.159       -2.589       39.084       26.328       32.557     1527.574      693.161     1059.981        0.768        0.164      109.848       18.252        0.028      330.240       -2.513      871.165
11/17/2014  08:53:00       37.647       46.381       -0.298       21.544       29.253       23.571      464.162      855.721      555.580        0.272        0.094       59.737       11.957        0.040      330.183       -2.607      871.170
11/17/2014  08:54:00       41.337       32.373       37.692       42.407       42.514       30.738     1798.353     1807.437      944.795        0.436        0.228       52.505       25.475        0.235      330.644       -1.852      871.166
11/17/2014  08:55:00       39.856       69.672       73.526       45.065       44.298       31.469     2030.898     1962.332      990.274        0.842        0.249       80.266       28.667        0.128      330.389       -2.269      871.167
11/17/2014  08:56:00       41.657       32.904       67.231       32.426       46.499       22.887     1051.445     2162.173      523.801        0.554        0.187       53.084       26.526        0.250      330.491       -2.101      871.162
11/17/2014  08:57:00       32.462       51.062       67.362       38.185       27.327       23.671     1458.069      746.789      560.304        0.548        0.138       60.507       22.070        0.133      330.458       -2.156      871.143
11/17/2014  08:58:00       50.099       44.841       15.573       29.824       28.978       31.556      889.487      839.734      995.791        0.374        0.136       67.236       29.455        0.192      330.235       -2.523      871.119
11/17/2014  08:59:00       -5.962       -3.048        0.714       22.893       11.424       16.233      524.080      130.507      263.505        0.048        0.046        6.696       11.586        2.994      330.599       -1.924      871.104
11/17/2014  09:00:00        8.672        3.404       22.858       17.457       27.966       24.982      304.761      782.075      624.102        0.116        0.086        9.316       20.187        4.695      331.093       -1.114      871.091
11/17/2014  09:01:00      -12.405        8.443       39.146       14.995       33.129       18.205      224.845     1097.503      331.422        0.171        0.083       15.006       16.615        1.226      331.007       -1.253      871.084
11/17/2014  09:02:00      -22.475       13.985       41.036       17.107       32.590       19.104      292.641     1062.115      364.964        0.205        0.086       26.471       14.569        0.303      330.964       -1.325      871.080
11/17/2014  09:03:00      -29.608      -19.018        1.497       16.375       33.666       24.912      268.147     1133.395      620.607        0.163        0.101       35.189       24.238        0.474      330.578       -1.959      871.076
11/17/2014  09:04:00       -2.900      -14.348       22.139       38.631       30.582       22.051     1492.352      935.241      486.239        0.181        0.146       14.638       22.808        2.428      330.796       -1.602      871.066
11/17/2014  09:05:00       30.759       -2.239        6.935       26.684       36.943       29.520      712.027     1364.786      871.457        0.197        0.147       30.841       24.988        0.656      330.883       -1.459      871.054
11/17/2014  09:06:00        8.693        2.103        7.137       31.389       35.455       19.809      985.253     1257.082      392.390        0.138        0.132        8.944       22.057        6.082      330.930       -1.382      871.045
11/17/2014  09:07:00       71.714       56.873       -2.677       30.101       24.019       19.893      906.046      576.935      395.716        0.513        0.094       91.528       14.589        0.025      330.952       -1.346      871.036
11/17/2014  09:08:00      108.126       51.747       14.139       44.322       41.038       35.399     1964.436     1684.095     1253.113        0.973        0.245      119.871       12.550        0.011      330.818       -1.566      871.028
11/17/2014  09:09:00      101.112       94.510        5.733       36.093       23.998       24.466     1302.704      575.887      598.596        1.083        0.124      138.404       19.552        0.020      330.548       -2.008      871.026
11/17/2014  09:10:00       57.164       66.619       35.884       33.675       30.283       31.806     1133.986      917.036     1011.651        0.603        0.153       87.783       19.077        0.047      330.919       -1.401      871.021
11/17/2014  09:11:00       43.790       71.483       12.151       37.407       41.495       36.354     1399.268     1721.798     1321.641        0.581        0.222       83.829       17.090        0.042      331.212       -0.918      871.013
11/17/2014  09:12:00        5.733        7.356        6.208       30.156       38.169       26.031      909.388     1456.839      677.593        0.158        0.152        9.326       22.545        5.844      331.329       -0.725      871.008
11/17/2014  09:13:00       -5.158      -10.644       -5.365       29.485       35.362       26.505      869.373     1250.473      702.495        0.149        0.141       11.828       22.769        3.706      331.112       -1.082      871.013
11/17/2014  09:14:00      -15.053        8.651       24.011       19.167       17.135       13.026      367.368      293.608      169.683        0.085        0.042       17.362       11.625        0.448      331.732       -0.063      871.006
11/17/2014  09:15:00       -8.378       -4.544       57.851       15.326       35.622       24.098      234.883     1268.924      580.708        0.276        0.104        9.531       19.011        3.978      331.303       -0.768      871.005
11/17/2014  09:16:00      -10.027       18.602       53.960       17.695       28.223       24.430      313.095      796.545      596.806        0.253        0.085       21.132       21.634        1.048      331.214       -0.915      871.006
11/17/2014  09:17:00        6.002       19.706       45.586       21.211       30.646       23.407      449.905      939.157      547.879        0.222        0.097       20.600       21.513        1.091      331.172       -0.984      871.009
11/17/2014  09:18:00        2.461       55.892       67.213       26.171       43.158       30.211      684.927     1862.608      912.721        0.555        0.173       55.946       21.877        0.153      331.326       -0.732      871.001
11/17/2014  09:19:00       28.956       35.386       50.680       23.117       26.734       14.265      534.417      714.711      203.484        0.306        0.073       45.723       11.957        0.068      331.114       -1.080      871.007
11/17/2014  09:20:00        8.084       22.674       36.595       29.480       26.263       15.908      869.070      689.767      253.057        0.186        0.091       24.072       11.269        0.219      331.327       -0.730      870.999
11/17/2014  09:21:00      -19.694        8.525       13.423       16.209       15.170       14.680      262.728      230.142      215.509        0.067        0.035       21.460       11.393        0.282      331.427       -0.564      870.991
11/17/2014  09:22:00       -8.138       33.684       22.008       32.143       26.180       21.222     1033.147      685.417      450.374        0.193        0.108       34.653       21.953        0.401      331.283       -0.803      870.986
11/17/2014  09:23:00      -50.061      -10.778       -8.812       17.903       15.204       15.077      320.523      231.165      227.310        0.174        0.039       51.208       10.384        0.041      330.893       -1.442      870.980
11/17/2014  09:24:00       47.971        0.369       -1.793       43.133       40.727       30.290     1860.465     1658.718      917.506        0.337        0.222       47.973       20.601        0.184      331.224       -0.898      870.971
11/17/2014  09:25:00      111.103       63.363       14.950       42.461       43.601       28.450     1802.899     1901.006      809.383        1.055        0.226      127.902       24.025        0.035      331.039       -1.202      870.972
11/17/2014  09:26:00      103.207       83.462       26.681       50.159       41.851       33.827     2515.901     1751.506     1144.241        1.187        0.271      132.732       12.711        0.009      331.241       -0.871      870.961
11/17/2014  09:27:00       96.319       78.631       27.086       52.313       28.552       31.560     2736.631      815.219      996.008        1.037        0.227      124.339       10.968        0.008      331.301       -0.772      870.964
11/17/2014  09:28:00       45.245       45.182       23.174       45.546       32.897       39.842     2074.410     1082.233     1587.345        0.468        0.237       63.941       31.422        0.241      331.668       -0.168      870.967
11/17/2014  09:29:00      125.576       74.006      -10.170       33.964       22.782       27.219     1153.584      519.018      740.900        1.188        0.121      145.761       14.787        0.010      331.046       -1.191      870.964
11/17/2014  09:30:00       31.450       58.212       -8.719       30.922       41.221       20.009      956.183     1699.178      400.361        0.375        0.153       66.165       19.234        0.085      331.114       -1.079      870.976
11/17/2014  09:31:00       28.285       74.060       -4.081       46.686       52.493       27.171     2179.581     2755.491      738.256        0.599        0.284       79.278       19.535        0.061      331.253       -0.851      870.984
11/17/2014  09:32:00       14.322       38.688       20.609       22.091       41.369       28.838      488.021     1711.363      831.659        0.258        0.152       41.254       26.035        0.398      331.578       -0.317      871.002
11/17/2014  09:33:00       -8.933       62.700        4.034       22.299       36.528       24.557      497.239     1334.291      603.033        0.323        0.122       63.334       18.750        0.088      331.372       -0.656      871.011
11/17/2014  09:34:00       67.651       50.554      -10.248       30.499       26.412       20.134      930.197      697.584      405.398        0.463        0.102       84.453        9.352        0.012      331.141       -1.033      871.019
11/17/2014  09:35:00       15.947       30.484       20.079       22.467       18.418       19.562      504.763      339.220      382.678        0.141        0.061       34.403       18.484        0.289      331.479       -0.480      871.025
11/17/2014  09:36:00       76.019       45.447       15.651       27.717       26.244       26.904      768.205      688.760      723.812        0.513        0.109       88.568       11.874        0.018      331.448       -0.531      871.018
11/17/2014  09:37:00       14.768       16.471        7.472       38.130       32.441       23.761     1453.912     1052.407      564.591        0.181        0.154       22.122        7.379        0.111      331.879        0.179      871.019
11/17/2014  09:38:00       69.576       40.463       45.695       70.578       53.278       37.913     4981.236     2838.580     1437.377        0.891        0.463       80.486       42.408        0.278      331.434       -0.555      871.032
11/17/2014  09:39:00      123.896       95.253       -1.278       43.246       28.889       28.563     1870.245      834.550      815.865        1.397        0.176      156.280       26.713        0.029      330.946       -1.355      871.046
11/17/2014  09:40:00       26.524       77.857      -14.111       64.979       31.189       27.077     4222.308      972.754      733.182        0.645        0.296       82.251       20.349        0.061      331.191       -0.954      871.045
11/17/2014  09:41:00        9.293       34.073        3.551       19.099       41.851       24.120      364.771     1751.535      581.779        0.198        0.135       35.318       22.621        0.410      331.645       -0.205      871.049
11/17/2014  09:42:00       19.881      -16.561        3.625       53.167       74.047       33.512     2826.755     5482.940     1123.086        0.506        0.472       25.875       35.186        1.849      331.900        0.215      871.052
11/17/2014  09:43:00       14.703      -22.198       36.330       23.172       29.652       29.443      536.958      879.227      866.919        0.216        0.114       26.626       17.329        0.424      332.062        0.480      871.060
11/17/2014  09:44:00       69.024       50.669       27.083       43.283       31.400       29.329     1873.406      985.944      860.199        0.589        0.186       85.625       26.095        0.093      331.710       -0.099      871.066
11/17/2014  09:45:00      147.671       82.495       37.859       56.990       49.295       41.544     3247.873     2429.974     1725.865        1.872        0.370      169.151       28.142        0.028      331.356       -0.683      871.068
11/17/2014  09:46:00       32.777       85.233       58.406       52.404       43.029       42.614     2746.144     1851.534     1815.981        0.908        0.321       91.318       36.128        0.157      331.505       -0.436      871.082
11/17/2014  09:47:00      114.591       59.931      -13.802       66.212       33.349       29.822     4383.982     1112.186      889.347        1.165        0.319      129.317       19.777        0.023      331.333       -0.720      871.087
11/17/2014  09:48:00       70.411       29.845       19.958       41.955       34.587       37.079     1760.224     1196.244     1374.879        0.529        0.217       76.475       20.080        0.069      331.782        0.019      871.078
11/17/2014  09:49:00       30.424       25.177       11.962       47.000       43.750       33.636     2208.955     1914.065     1131.385        0.348        0.263       39.491       21.023        0.283      331.844        0.122      871.076
11/17/2014  09:50:00       82.447       75.303       16.072       55.464       39.741       41.797     3076.296     1579.356     1746.954        0.956        0.320      111.661       23.250        0.043      331.653       -0.193      871.081
11/17/2014  09:51:00       16.875        1.384       26.673       39.973       45.536       31.786     1597.825     2073.531     1010.322        0.284        0.234       16.932       27.942        2.723      331.903        0.218      871.083
11/17/2014  09:52:00       30.800       36.838       71.690       41.417       56.451       33.166     1715.344     3186.684     1100.009        0.672        0.300       48.017       15.207        0.100      332.073        0.498      871.091
11/17/2014  09:53:00       75.119       68.911       21.175       43.723       34.207       41.265     1911.681     1170.119     1702.779        0.781        0.239      101.940       17.055        0.028      331.512       -0.424      871.124
11/17/2014  09:54:00       25.835       30.761       23.396       24.472       27.891       24.260      598.874      777.886      588.551        0.206        0.098       40.170       19.497        0.236      331.851        0.134      871.127
11/17/2014  09:55:00        9.843       70.724      -10.280       19.552       51.502       22.588      382.292     2652.501      510.218        0.437        0.177       71.406       20.442        0.082      331.699       -0.117      871.120
11/17/2014  09:56:00        2.180       34.791        8.026       27.962       34.852       29.349      781.875     1214.685      861.364        0.207        0.143       34.859       21.379        0.376      331.964        0.319      871.114
11/17/2014  09:57:00       83.261       65.298        1.897       56.575       39.157       32.375     3200.783     1533.293     1048.113        0.849        0.289      105.812       19.474        0.034      331.852        0.135      871.108
11/17/2014  09:58:00       66.284       39.822        7.540       54.344       37.394       29.979     2953.228     1398.275      898.742        0.564        0.263       77.326       16.818        0.047      332.024        0.418      871.104
11/17/2014  09:59:00       35.409       26.810       33.424       56.934       41.123       33.692     3241.537     1691.133     1135.162        0.458        0.303       44.413       34.479        0.603      332.310        0.890      871.102
11/17/2014  10:00:00       27.037       78.628       69.577       62.441       53.306       54.681     3898.823     2841.579     2989.999        1.074        0.487       83.147       47.973        0.333      332.350        0.956      871.097
11/17/2014  10:01:00       92.748       81.580       13.090       42.695       38.282       42.055     1822.862     1465.513     1768.613        1.024        0.253      123.522       19.189        0.024      331.679       -0.151      871.106
11/17/2014  10:02:00       50.741       43.575       37.578       50.899       44.372       43.739     2590.715     1968.854     1913.141        0.618        0.324       66.884       24.901        0.139      331.880        0.180      871.104
11/17/2014  10:03:00      104.076       74.046       13.715       57.588       40.743       32.883     3316.373     1659.960     1081.306        1.128        0.303      127.728       26.646        0.044      331.776        0.011      871.106
11/17/2014  10:04:00      127.246       86.011        7.780       33.114       31.807       21.976     1096.518     1011.696      482.956        1.312        0.130      153.588       15.540        0.010      331.514       -0.421      871.109
11/17/2014  10:05:00      101.810       38.549        9.664       62.022       49.707       38.844     3846.768     2470.783     1508.879        0.988        0.391      108.864       29.387        0.073      331.893        0.204      871.112
11/17/2014  10:06:00       93.777       20.102       33.040       47.777       76.388       46.750     2282.648     5835.166     2185.561        1.029        0.515       95.907       37.990        0.157      332.084        0.517      871.113
11/17/2014  10:07:00       11.694       14.005       48.431       38.922       66.460       47.001     1514.918     4416.888     2209.101        0.541        0.407       18.245       42.504        5.427      332.439        1.102      871.110
11/17/2014  10:08:00       39.116       18.235       73.203       54.289       72.989       54.500     2947.270     5327.335     2970.296        0.923        0.562       43.158       54.642        1.603      332.419        1.069      871.117
11/17/2014  10:09:00       10.534       45.485       86.490       42.001       38.003       34.455     1764.060     1444.193     1187.171        0.703        0.220       46.689       21.061        0.203      332.332        0.924      871.118
11/17/2014  10:10:00       49.867       23.294       48.700       49.273       43.293       35.203     2427.874     1874.264     1239.234        0.547        0.277       55.039       19.863        0.130      332.269        0.822      871.124
11/17/2014  10:11:00       26.394      -17.437       16.911       36.608       52.355       35.375     1340.135     2741.069     1251.369        0.331        0.267       31.634       28.226        0.796      332.244        0.782      871.125
11/17/2014  10:12:00       20.794      -64.185       23.562       65.934       76.429       40.154     4347.298     5841.363     1612.357        0.845        0.590       67.470       30.026        0.198      332.544        1.274      871.106
11/17/2014  10:13:00       73.969       -0.289       38.289       69.440       44.866       41.533     4821.977     2012.922     1725.030        0.775        0.428       73.969       44.439        0.361      332.138        0.605      871.120
11/17/2014  10:14:00       40.756       -3.437       45.826       32.445       34.856       34.218     1052.704     1214.935     1170.843        0.360        0.172       40.901       22.711        0.308      332.340        0.939      871.120
11/17/2014  10:15:00       47.409       41.669       50.897       23.423       27.534       25.485      548.633      758.120      649.461        0.426        0.098       63.118       12.217        0.037      331.940        0.280      871.116
11/17/2014  10:16:00       29.008        0.924       20.735       42.867       46.615       35.916     1837.607     2172.979     1289.933        0.329        0.265       29.023       37.405        1.661      332.336        0.932      871.125
11/17/2014  10:17:00      137.950       89.882       61.148       51.087       38.550       37.337     2609.848     1486.085     1394.048        1.817        0.274      164.648       18.392        0.012      331.910        0.229      871.134
11/17/2014  10:18:00       35.259      128.406      126.573       49.665       62.696       51.718     2466.582     3930.844     2674.800        2.141        0.454      133.159       50.879        0.146      332.068        0.491      871.145
11/17/2014  10:19:00      122.250      133.350       76.228       79.139       57.440       71.769     6262.973     3299.336     5150.779        2.662        0.736      180.906       69.126        0.146      331.829        0.095      871.170
11/17/2014  10:20:00       99.836       93.402       34.819       32.533       23.008       29.521     1058.373      529.372      871.505        1.118        0.123      136.716       19.248        0.020      331.784        0.023      871.174
11/17/2014  10:21:00       10.617       96.254        7.077       48.081       65.619       28.942     2311.784     4305.888      837.657        0.844        0.373       96.838       24.994        0.067      332.142        0.612      871.178
11/17/2014  10:22:00       37.437      116.633       12.722       44.889       66.639       31.349     2015.007     4440.783      982.762        1.130        0.372      122.494       29.133        0.057      332.174        0.666      871.165
11/17/2014  10:23:00       32.757       39.371       30.260       31.847       29.019       29.366     1014.261      842.120      862.343        0.313        0.136       51.216       19.228        0.141      332.360        0.973      871.171
11/17/2014  10:24:00       24.528       -2.630       10.889       43.045       56.132       32.005     1852.851     3150.758     1024.328        0.338        0.301       24.669       24.229        0.965      332.420        1.071      871.163
11/17/2014  10:25:00       66.007       44.322       16.900       73.356       55.178       27.999     5381.052     3044.589      783.957        0.791        0.460       79.507       27.612        0.121      332.355        0.965      871.155
11/17/2014  10:26:00      121.319       74.074        7.549       41.377       41.594       35.379     1712.068     1730.087     1251.652        1.248        0.235      142.145       22.670        0.025      331.907        0.225      871.156
11/17/2014  10:27:00      144.559       78.645       13.877       67.739       39.536       40.592     4588.618     1563.079     1647.732        1.754        0.390      164.567       31.352        0.036      331.978        0.342      871.131
11/17/2014  10:28:00       97.192       79.610       11.073       33.628       40.669       34.157     1130.813     1653.938     1166.731        0.993        0.198      125.635       22.455        0.032      332.042        0.448      871.128
11/17/2014  10:29:00       39.130       59.894       -6.800       55.257       35.521       27.482     3053.375     1261.770      755.285        0.512        0.254       71.543       30.925        0.187      332.178        0.673      871.113
11/17/2014  10:30:00        0.125        5.212        4.123       39.253       25.886       25.506     1540.759      670.065      650.580        0.145        0.143        5.213       23.419       20.181      332.241        0.776      871.111
11/17/2014  10:31:00       17.193       41.878       24.580       40.633       34.648       31.534     1651.066     1200.490      994.384        0.325        0.192       45.270       14.429        0.102      332.704        1.541      871.118
11/17/2014  10:32:00       74.143      -65.068       40.332       52.383       85.772       43.457     2743.950     7356.762     1888.553        1.167        0.599       98.646       40.100        0.165      332.480        1.170      871.114
11/17/2014  10:33:00       18.024       16.929       72.218       43.210       67.354       34.467     1867.085     4536.531     1187.999        0.671        0.380       24.728       27.318        1.220      333.088        2.175      871.112
11/17/2014  10:34:00       39.245      -52.007       49.416       46.373       77.308       47.437     2150.432     5976.524     2250.239        0.853        0.519       65.153       49.279        0.572      332.775        1.657      871.143
11/17/2014  10:35:00       16.646      -39.803       28.974       27.567       65.332       30.241      759.932     4268.245      914.518        0.432        0.297       43.144       28.443        0.435      332.860        1.799      871.161
11/17/2014  10:36:00       -1.645       11.710       46.772       16.526       23.568       13.168      273.112      555.462      173.385        0.166        0.050       11.825       10.914        0.852      333.163        2.298      871.172
11/17/2014  10:37:00       16.830       26.450       37.371       32.947       23.852       23.141     1085.500      568.912      535.500        0.228        0.109       31.350       16.000        0.260      332.987        2.007      871.198
11/17/2014  10:38:00       13.137       43.125       57.322       26.029       33.777       17.749      677.528     1140.911      315.021        0.373        0.107       45.082       13.254        0.086      332.983        2.001      871.202
11/17/2014  10:39:00        9.648      -20.510       17.946       40.545       53.410       39.554     1643.927     2852.640     1564.549        0.345        0.303       22.666       27.240        1.444      332.816        1.726      871.192
11/17/2014  10:40:00       16.869       29.965       48.797       33.035       32.045       28.879     1091.343     1026.899      833.987        0.326        0.148       34.387       14.535        0.179      332.973        1.985      871.174
11/17/2014  10:41:00       25.702       13.486       32.856       23.473       24.623       31.820      550.990      606.279     1012.537        0.205        0.108       29.026       21.849        0.567      332.999        2.027      871.169
11/17/2014  10:42:00       14.156      -26.207       37.257       42.904       39.402       26.291     1840.736     1552.531      691.242        0.318        0.204       29.786       17.291        0.337      332.951        1.947      871.151
11/17/2014  10:43:00       32.241       17.445       56.433       40.246       35.311       22.822     1619.741     1246.839      520.837        0.396        0.169       36.658       17.811        0.236      333.091        2.179      871.149
11/17/2014  10:44:00       47.973       62.605       23.461       51.605       45.113       35.804     2663.031     2035.156     1281.959        0.637        0.299       78.872       25.632        0.106      332.730        1.584      871.148
11/17/2014  10:45:00       44.062      -52.717       19.471       49.071       67.539       37.236     2407.939     4561.497     1386.486        0.673        0.418       68.706       22.282        0.105      332.872        1.817      871.146
11/17/2014  10:46:00       98.862      -21.808       39.501       53.576       73.700       40.733     2870.364     5431.646     1659.165        1.088        0.498      101.238       40.085        0.157      332.678        1.497      871.138
11/17/2014  10:47:00       94.092      -80.982        8.194       58.651       74.006       34.216     3439.947     5476.862     1170.715        1.278        0.504      124.143       41.818        0.113      332.526        1.246      871.134
11/17/2014  10:48:00       30.617       12.382       29.251       53.068       29.861       23.353     2816.256      891.703      545.355        0.310        0.213       33.026       22.824        0.478      332.898        1.859      871.119
11/17/2014  10:49:00        4.155       -6.343       47.309       32.591       65.029       41.150     1062.193     4228.751     1693.344        0.464        0.349        7.582       38.983       26.433      333.334        2.580      871.098
11/17/2014  10:50:00       10.113       56.669       91.194       44.347       58.807       38.975     1966.632     3458.238     1519.016        0.929        0.347       57.564       32.333        0.315      333.428        2.736      871.081
11/17/2014  10:51:00       82.943      117.799      107.298       62.655       47.343       37.500     3925.634     2241.352     1406.263        1.992        0.379      144.069       33.135        0.053      332.777        1.662      871.070
11/17/2014  10:52:00      149.246      108.108       59.774       31.106       21.026       28.404      967.601      442.090      806.784        1.988        0.111      184.287       15.863        0.007      332.330        0.922      871.062
11/17/2014  10:53:00       88.334       67.325       54.060       34.441       29.230       28.116     1186.169      854.375      790.537        0.904        0.142      111.065       11.822        0.011      332.602        1.370      871.052
11/17/2014  10:54:00       66.812       62.135        7.107       24.712       13.606       36.337      610.690      185.128     1320.383        0.525        0.106       91.239       23.052        0.064      332.364        0.979      871.038
11/17/2014  10:55:00       11.867       45.339      -20.209       23.199       15.904       14.934      538.206      252.937      223.020        0.181        0.051       46.867        7.105        0.023      332.463        1.143      871.011
11/17/2014  10:56:00       -2.568       39.294      -15.173       19.955       22.787       16.823      398.217      519.258      282.999        0.149        0.060       39.378       11.351        0.083      332.733        1.587      870.994
11/17/2014  10:57:00       -5.762       43.082       -0.515       21.597       44.842       26.210      466.412     2010.791      686.954        0.253        0.158       43.465       28.332        0.425      333.022        2.066      870.967
11/17/2014  10:58:00        5.272       53.571       85.350       28.924       54.475       47.694      836.625     2967.577     2274.733        0.813        0.304       53.830       41.649        0.599      333.167        2.305      870.959
11/17/2014  10:59:00       33.693       57.745       67.030       47.749       47.231       31.685     2279.982     2230.747     1003.956        0.724        0.276       66.856       26.290        0.155      332.955        1.954      870.950
11/17/2014  11:00:00       53.173       56.478       36.892       26.812       14.498       26.543      718.901      210.196      704.529        0.451        0.082       77.570        8.669        0.012      332.865        1.805      870.948
11/17/2014  11:01:00       67.273       34.595       49.504       46.052       37.545       31.122     2120.803     1409.591      968.591        0.634        0.225       75.647       29.243        0.149      332.938        1.927      870.930
11/17/2014  11:02:00       67.662      100.872       72.087       45.664       33.402       41.864     2085.176     1115.696     1752.610        1.245        0.248      121.463       31.779        0.068      332.906        1.873      870.925
11/17/2014  11:03:00       41.190       90.885       88.200       53.260       48.633       52.878     2836.584     2365.145     2796.123        1.287        0.400       99.783       40.376        0.164      333.039        2.094      870.902
11/17/2014  11:04:00      118.883       74.965       40.474       57.902       44.071       48.354     3352.602     1942.272     2338.113        1.451        0.382      140.545       25.849        0.034      332.835        1.756      870.893
11/17/2014  11:05:00       13.019      131.387      147.730       57.336       62.030       58.554     3287.446     3847.756     3428.574        2.491        0.528      132.030       56.533        0.183      332.945        1.935      870.878
11/17/2014  11:06:00      102.107      141.738      120.076       71.417       68.719       54.714     5100.356     4722.255     2993.616        2.887        0.641      174.687       44.065        0.064      333.067        2.136      870.876
11/17/2014  11:07:00      128.967      132.087       92.231       67.286       58.506       58.943     4527.423     3422.901     3474.247        2.700        0.571      184.607       47.250        0.066      332.977        1.988      870.861
11/17/2014  11:08:00       97.003       30.572       62.527       59.667       57.268       42.104     3560.104     3279.609     1772.717        1.143        0.431      101.706       37.002        0.132      332.995        2.021      870.879
11/17/2014  11:09:00       34.893      -83.119       23.528       41.875       68.909       38.149     1753.536     4748.495     1455.370        0.832        0.398       90.146       27.436        0.093      333.277        2.487      870.852
11/17/2014  11:10:00      111.568       81.521       36.659       60.362       54.670       47.015     3643.547     2988.794     2210.437        1.464        0.442      138.177       36.716        0.071      333.199        2.358      870.837
11/17/2014  11:11:00       79.674       88.670       85.523       57.733       50.342       49.069     3333.042     2534.321     2407.724        1.490        0.414      119.207       36.640        0.094      333.252        2.445      870.823
11/17/2014  11:12:00       85.887       81.616       25.811       50.027       32.590       45.165     2502.702     1062.083     2039.913        1.015        0.280      118.481       34.242        0.084      332.992        2.016      870.818
11/17/2014  11:13:00       50.602       77.861       -8.758       38.827       33.496       36.733     1507.539     1121.959     1349.314        0.634        0.199       92.860       20.945        0.051      333.090        2.178      870.791
11/17/2014  11:14:00       58.080       64.740       11.889       45.327       32.151       37.565     2054.534     1033.704     1411.137        0.610        0.225       86.974       24.956        0.082      333.081        2.162      870.776
11/17/2014  11:15:00       65.578       29.583       10.215       35.979       32.639       21.808     1294.473     1065.321      475.592        0.406        0.142       71.942       16.546        0.053      333.098        2.190      870.750
11/17/2014  11:16:00       30.862       91.027       -1.846       48.090       54.827       23.742     2312.670     3005.979      563.684        0.756        0.294       96.116       22.885        0.057      333.287        2.502      870.737
11/17/2014  11:17:00      105.970       89.159       19.624       59.837       38.319       38.601     3580.450     1468.357     1490.019        1.305        0.327      138.488       29.137        0.044      333.218        2.389      870.723
11/17/2014  11:18:00       69.229       43.080       23.707       50.630       53.769       40.519     2563.369     2891.088     1641.787        0.715        0.355       81.539       35.591        0.191      333.595        3.012      870.713
11/17/2014  11:19:00        8.319       18.789        8.217       42.121       44.427       29.466     1774.170     1973.761      868.232        0.255        0.231       20.548       21.755        1.121      334.013        3.704      870.718
11/17/2014  11:20:00      -10.489       21.234       33.918       18.409       27.186       21.393      338.899      739.070      457.656        0.162        0.077       23.683       10.581        0.200      334.510        4.532      870.702
11/17/2014  11:21:00       32.259       40.003       14.046       53.212       35.517       21.908     2831.520     1261.483      479.954        0.370        0.229       51.389       17.605        0.117      333.734        3.243      870.698
11/17/2014  11:22:00       54.889      128.282      117.413       47.697       55.286       47.118     2275.043     3056.499     2220.078        2.040        0.378      139.532       35.796        0.066      333.540        2.921      870.669
11/17/2014  11:23:00       57.963      116.554      101.013       90.728       60.476       57.691     8231.649     3657.328     3328.300        2.118        0.761      130.171       55.855        0.184      333.469        2.802      870.653
11/17/2014  11:24:00       88.333       94.317       68.738       47.523       48.147       49.001     2258.482     2318.099     2401.131        1.420        0.349      129.223       33.717        0.068      333.308        2.538      870.632
11/17/2014  11:25:00       33.388       15.861       52.791       30.541       53.440       30.015      932.738     2855.851      900.896        0.442        0.234       36.963       30.793        0.694      333.647        3.099      870.618
11/17/2014  11:26:00      131.996       83.196       19.832       72.906       55.019       37.359     5315.355     3027.062     1395.675        1.724        0.487      156.027       26.677        0.029      333.447        2.768      870.599
11/17/2014  11:27:00      101.396       71.451        5.982       37.065       37.615       27.684     1373.821     1414.876      766.387        0.949        0.178      124.041       15.783        0.016      333.311        2.542      870.592
11/17/2014  11:28:00      152.008      161.642      122.244       88.087       70.024       66.629     7759.297     4903.310     4439.407        4.064        0.855      221.888       50.049        0.051      333.465        2.795      870.549
11/17/2014  11:29:00      150.268      119.384       72.542       82.598       50.598       57.078     6822.379     2560.182     3257.950        2.737        0.632      191.919       48.423        0.064      333.194        2.347      870.542
11/17/2014  11:30:00      149.841       92.416       47.640       81.907       56.436       44.035     6708.812     3185.050     1939.048        2.255        0.592      176.048       30.544        0.030      333.347        2.600      870.535
11/17/2014  11:31:00       45.244       48.889       74.696       46.862       69.122       58.169     2196.058     4777.915     3383.621        1.019        0.518       66.612       55.252        0.688      333.641        3.089      870.528
11/17/2014  11:32:00       85.341       71.788       57.129       49.463       47.411       52.176     2446.545     2247.826     2722.307        1.156        0.371      111.519       39.578        0.126      333.375        2.648      870.520
11/17/2014  11:33:00       85.998       30.115       46.853       38.386       47.308       35.047     1473.475     2238.087     1228.266        0.772        0.247       91.119       25.920        0.081      333.519        2.885      870.500
11/17/2014  11:34:00       44.844       22.033       22.967       40.859       44.185       23.746     1669.440     1952.316      563.894        0.360        0.209       49.965       13.543        0.073      333.632        3.073      870.479
11/17/2014  11:35:00       -2.778        3.503       24.423       15.862       13.056       18.234      251.595      170.463      332.496        0.069        0.038        4.471        5.178        1.341      334.149        3.931      870.453
11/17/2014  11:36:00      -17.189      -19.376        7.283       26.121       22.365       22.901      682.283      500.177      524.453        0.122        0.085       25.902       20.959        0.655      333.955        3.609      870.411
11/17/2014  11:37:00        9.689       13.669       20.953       25.742       30.676       22.729      662.668      941.005      516.607        0.142        0.106       16.755       17.318        1.068      334.251        4.100      870.386
11/17/2014  11:38:00       47.933       77.519      108.620       79.437       78.729       40.454     6310.284     6198.330     1636.543        1.712        0.707       91.141       34.578        0.144      333.990        3.666      870.349
11/17/2014  11:39:00      106.128      118.655       90.848       71.645       50.550       47.045     5132.991     2555.335     2213.200        2.175        0.495      159.192       30.024        0.036      333.800        3.350      870.310
11/17/2014  11:40:00       81.021      -57.520       34.118       53.176       56.774       45.442     2827.688     3223.308     2065.017        0.957        0.406       99.362       39.248        0.156      333.805        3.359      870.300
11/17/2014  11:41:00       81.864       28.448       27.022       40.419       51.447       35.516     1633.733     2646.769     1261.359        0.689        0.277       86.666       29.153        0.113      333.530        2.906      870.277
11/17/2014  11:42:00       57.153       57.893       22.752       33.917       20.554       29.613     1150.346      422.470      876.921        0.479        0.122       81.351       20.896        0.066      333.647        3.099      870.255
11/17/2014  11:43:00       44.634        5.432       10.937       50.569       39.327       28.507     2557.179     1546.634      812.653        0.353        0.246       44.963       23.135        0.265      333.951        3.603      870.239
11/17/2014  11:44:00       70.504       40.992       34.421       59.531       57.432       41.791     3543.885     3298.415     1746.514        0.821        0.429       81.555       31.781        0.152      334.007        3.695      870.217
11/17/2014  11:45:00       77.357       76.679       68.519       56.301       69.311       47.713     3169.775     4803.948     2276.504        1.340        0.513      108.921       40.152        0.136      333.813        3.374      870.208
11/17/2014  11:46:00       31.549        1.056       50.327       43.917       69.021       52.798     1928.721     4763.925     2787.681        0.650        0.474       31.566       51.743        2.687      334.050        3.766      870.186
11/17/2014  11:47:00       51.329       49.237       47.843       48.751       53.317       31.121     2376.703     2842.688      968.504        0.677        0.309       71.126       27.036        0.144      333.891        3.504      870.181
11/17/2014  11:48:00       31.695      -13.175       18.420       42.427       44.606       31.798     1800.075     1989.677     1011.094        0.316        0.240       34.324       28.281        0.679      334.050        3.767      870.156
11/17/2014  11:49:00       24.298      -77.870        8.348       52.349       74.509       39.025     2740.407     5551.592     1522.917        0.827        0.491       81.573       32.747        0.161      333.918        3.548      870.123
11/17/2014  11:50:00       20.540        1.594       49.716       25.340       45.564       21.758      642.138     2076.110      473.417        0.304        0.160       20.602       15.209        0.545      334.136        3.909      870.111
11/17/2014  11:51:00       16.530       44.187        1.950       36.569       33.628       22.646     1337.279     1130.852      512.848        0.260        0.149       47.178       10.010        0.045      333.758        3.282      870.082
11/17/2014  11:52:00        6.284       41.798        9.085       23.187       28.949       21.951      537.653      838.059      481.861        0.186        0.093       42.268       18.415        0.190      334.066        3.794      870.060
11/17/2014  11:53:00      -24.162       -9.968       -0.643       48.712       31.620       21.603     2372.892      999.846      466.675        0.226        0.192       26.138        8.421        0.104      334.325        4.225      870.043
11/17/2014  11:54:00      -25.886       11.771       -9.965       30.236       54.199       22.248      914.204     2937.522      494.967        0.263        0.217       28.437       17.423        0.375      334.239        4.081      870.020
11/17/2014  11:55:00       16.994       24.551       57.546       35.722       69.036       52.580     1276.061     4766.022     2764.643        0.650        0.440       29.859       54.941        3.386      334.279        4.148      870.011
11/17/2014  11:56:00       83.013       78.798       56.880       72.327       43.055       47.206     5231.160     1853.722     2228.437        1.282        0.466      114.456       40.104        0.123      333.985        3.657      869.984
11/17/2014  11:57:00      114.576       91.360       32.670       48.601       43.878       35.567     2362.011     1925.278     1264.998        1.405        0.278      146.542       19.204        0.017      333.936        3.578      869.964
11/17/2014  11:58:00      100.199      115.642       79.640       43.354       40.934       47.610     1879.591     1675.601     2266.710        1.779        0.291      153.013       39.771        0.068      333.855        3.443      869.944
11/17/2014  11:59:00       39.100       45.436       55.221       50.304       58.870       48.866     2530.532     3465.677     2387.909        0.751        0.419       59.944       41.019        0.468      334.320        4.215      869.921
11/17/2014  12:00:00       24.075        9.046       57.402       36.311       39.928       31.507     1318.480     1594.281      992.703        0.393        0.195       25.719       24.858        0.934      334.499        4.512      869.925
11/17/2014  12:01:00       51.986       34.797        1.331       43.400       37.307       20.206     1883.544     1391.837      408.281        0.380        0.184       62.557       12.591        0.041      334.320        4.214      869.911
11/17/2014  12:02:00       42.706       12.581       24.370       52.469       34.217       32.638     2752.992     1170.821     1065.264        0.378        0.249       44.521       30.390        0.466      334.548        4.595      869.904
11/17/2014  12:03:00       57.492       49.925        8.543       35.358       29.853       27.778     1250.200      891.191      771.640        0.439        0.146       76.143       11.398        0.022      334.180        3.984      869.897
11/17/2014  12:04:00       88.405       54.445       10.118       55.375       35.473       41.435     3066.374     1258.327     1716.830        0.846        0.302      103.826       18.855        0.033      334.150        3.933      869.874
11/17/2014  12:05:00        8.053       19.917       23.842       59.361       66.817       36.246     3523.687     4464.547     1313.756        0.516        0.465       21.484       25.543        1.414      334.881        5.147      869.860
11/17/2014  12:06:00       43.705      -69.176       -4.245       35.093       79.672       42.851     1231.502     6347.704     1836.215        0.806        0.471       81.826       34.836        0.181      334.540        4.579      869.837
11/17/2014  12:07:00        1.424      -11.282       28.692       43.782       36.047       30.853     1916.839     1299.356      951.895        0.256        0.208       11.371       14.128        1.544      334.833        5.065      869.803
11/17/2014  12:08:00       18.475       -2.447       18.441       32.032       39.149       32.041     1026.028     1532.656     1026.605        0.214        0.179       18.636       23.569        1.599      335.317        5.870      869.790
11/17/2014  12:09:00       14.353       81.053       95.560       32.888       54.996       31.963     1081.627     3024.521     1021.626        1.052        0.256       82.314       31.976        0.151      335.000        5.343      869.758
11/17/2014  12:10:00       29.255       40.440       40.364       50.702       68.941       43.705     2570.726     4752.925     1910.125        0.668        0.462       49.912       43.142        0.747      334.485        4.489      869.756
11/17/2014  12:11:00       26.984      -68.339        8.128       52.111       81.457       63.074     2715.521     6635.251     3978.273        0.939        0.666       73.473       54.345        0.547      334.689        4.827      869.729
11/17/2014  12:12:00       10.249      -67.031       25.556       68.482       65.836       49.426     4689.810     4334.339     2442.960        0.836        0.573       67.810       38.730        0.326      334.743        4.917      869.710
11/17/2014  12:13:00       20.208      -28.541       14.327       45.591       58.230       46.090     2078.578     3390.730     2124.259        0.451        0.380       34.970       43.378        1.539      334.642        4.750      869.709
11/17/2014  12:14:00       96.994      -64.857       17.002       66.395       69.499       60.727     4408.344     4830.165     3687.741        1.341        0.646      116.680       52.480        0.202      334.304        4.187      869.684
11/17/2014  12:15:00       88.019      -24.227       11.656       50.116       69.123       52.203     2511.566     4778.054     2725.201        0.924        0.501       91.292       53.899        0.349      334.444        4.421      869.682
11/17/2014  12:16:00      -16.492       10.513       32.635       28.510       29.294       34.619      812.836      858.154     1198.483        0.216        0.143       19.558       24.786        1.606      334.809        5.026      869.661
11/17/2014  12:17:00        0.735      -63.552        7.076       44.758      107.224       51.582     2003.263    11497.008     2660.720        1.012        0.808       63.556       66.679        1.101      334.781        4.978      869.635
11/17/2014  12:18:00       72.843      -72.027       -4.411       48.424       76.610       46.424     2344.914     5869.110     2155.180        1.044        0.518      102.440       47.707        0.217      334.289        4.162      869.630
11/17/2014  12:19:00       37.405       29.329       39.147       27.165       27.529       27.492      737.947      757.857      755.802        0.302        0.113       47.533       18.421        0.150      334.524        4.554      869.601
11/17/2014  12:20:00       58.358      -52.069       13.033       65.764       82.107       46.645     4324.960     6741.502     2175.786        0.976        0.662       78.210       52.420        0.449      334.625        4.719      869.581
11/17/2014  12:21:00       84.929      -65.526        6.874       69.904       88.953       47.789     4886.615     7912.679     2283.752        1.332        0.754      107.269       62.946        0.344      334.447        4.425      869.575
11/17/2014  12:22:00       18.512      -50.571      -14.325       56.052       54.828       24.591     3141.854     3006.105      604.693        0.493        0.338       53.853       24.366        0.205      334.435        4.407      869.551
11/17/2014  12:23:00       84.104     -158.681      -16.065       70.081       58.347       37.701     4911.338     3404.417     1421.383        2.112        0.487      179.591       21.817        0.015      334.603        4.682      869.521
11/17/2014  12:24:00       84.793     -150.874       -7.947       97.531       79.999       69.887     9512.391     6399.768     4884.141        2.540        1.040      173.069       68.678        0.157      334.428        4.392      869.509
11/17/2014  12:25:00      144.340     -168.042      -34.308       48.062       79.092       33.167     2309.959     6255.488     1100.019        2.996        0.483      221.522       19.859        0.008      334.235        4.070      869.505
11/17/2014  12:26:00       46.497      -17.168       19.368       43.248       42.180       39.496     1870.407     1779.156     1559.932        0.402        0.260       49.565       36.255        0.535      334.675        4.804      869.503
11/17/2014  12:27:00       68.767       41.111       40.499       40.264       45.616       40.653     1621.190     2080.818     1652.692        0.671        0.268       80.119       26.694        0.111      334.522        4.551      869.483
11/17/2014  12:28:00       65.424      -94.672      -15.146       91.575       72.477       40.364     8386.071     5252.912     1629.216        1.437        0.763      115.079       50.847        0.195      334.525        4.553      869.461
11/17/2014  12:29:00       64.119     -124.872      -13.322       71.176       56.908       45.760     5066.047     3238.533     2093.979        1.514        0.520      140.372       43.434        0.096      334.418        4.378      869.436
11/17/2014  12:30:00      -10.404       28.120       39.818       34.202       48.409       43.096     1169.760     2343.478     1857.265        0.393        0.269       29.982       35.650        1.414      334.881        5.147      869.409
11/17/2014  12:31:00       -7.992      -37.487        8.188       41.112       43.639       26.109     1690.195     1904.324      681.694        0.291        0.214       38.330       19.874        0.269      334.976        5.305      869.384
11/17/2014  12:32:00      -17.674      -35.150       10.245       38.519       52.440       27.547     1483.689     2749.958      758.864        0.332        0.250       39.344       28.665        0.531      335.111        5.529      869.373
11/17/2014  12:33:00      -60.884      -70.227       -4.648       55.800       40.270       28.232     3113.653     1621.674      797.028        0.710        0.277       92.944       23.242        0.063      334.810        5.029      869.352
11/17/2014  12:34:00      -60.847      -10.012       31.384       65.889       63.145       41.944     4341.298     3987.300     1759.319        0.744        0.504       61.665       46.779        0.575      334.860        5.111      869.334
11/17/2014  12:35:00      -66.995      -35.045       16.519       81.035       39.334       35.525     6566.645     1547.195     1262.008        0.768        0.469       75.607       45.064        0.355      334.943        5.249      869.330
11/17/2014  12:36:00      -35.320      -82.769       -5.118       68.639       48.809       31.393     4711.335     2382.336      985.503        0.810        0.404       89.990       27.996        0.097      334.764        4.952      869.312
11/17/2014  12:37:00     -120.657      -55.822       12.001       77.623       52.277       32.663     6025.383     2732.921     1066.843        1.382        0.491      132.945       31.490        0.056      334.804        5.016      869.297
11/17/2014  12:38:00      -24.903      -30.437       28.110       96.165       52.738       30.771     9247.728     2781.265      946.876        0.765        0.649       39.327       34.890        0.787      335.005        5.351      869.292
11/17/2014  12:39:00      -42.820      -43.658       16.211       61.677       57.116       30.602     3803.991     3262.269      936.467        0.600        0.400       61.152       26.654        0.190      334.940        5.244      869.283
11/17/2014  12:40:00      -47.862      -43.919        5.818       75.778       53.421       30.046     5742.365     2853.787      902.740        0.687        0.475       64.959       35.231        0.294      334.815        5.037      869.266
11/17/2014  12:41:00      -38.113      -44.644        5.632       46.634       28.007       27.468     2174.742      784.397      754.508        0.359        0.186       58.700       29.497        0.253      334.782        4.983      869.267
11/17/2014  12:42:00      -40.615      -50.431       -8.076       31.563       35.356       19.799      996.205     1250.045      392.004        0.345        0.132       64.752       15.801        0.060      334.776        4.972      869.277
11/17/2014  12:43:00       18.167      -52.376       25.084       56.623       69.586       48.739     3206.137     4842.206     2375.451        0.706        0.521       55.437       42.057        0.576      335.264        5.782      869.263
11/17/2014  12:44:00       32.533       85.023       95.433       45.182       52.898       42.459     2041.394     2798.168     1802.725        1.202        0.332       91.034       38.085        0.175      335.002        5.346      869.261
11/17/2014  12:45:00       79.872       59.565       63.082       87.043       62.306       65.770     7576.464     3882.065     4325.645        1.484        0.789       99.637       57.630        0.335      334.957        5.271      869.262
11/17/2014  12:46:00       69.758       66.834       28.744       75.581       52.096       43.726     5712.417     2714.013     1911.996        1.025        0.517       96.608       33.161        0.118      334.761        4.947      869.252
11/17/2014  12:47:00       40.619      -21.286        1.839       40.087       41.984       27.967     1606.983     1762.649      782.141        0.313        0.208       45.859       11.173        0.059      334.830        5.063      869.245
11/17/2014  12:48:00       31.367      -37.484       23.115       52.306       51.913       42.178     2735.931     2694.922     1778.986        0.507        0.360       48.877       38.365        0.616      335.004        5.351      869.235
11/17/2014  12:49:00       21.590        4.115       35.521       30.075       21.179       21.786      904.508      448.558      474.613        0.179        0.091       21.979        8.612        0.154      335.264        5.783      869.228
11/17/2014  12:50:00       52.406      -55.925        6.493       58.619       72.832       35.865     3436.205     5304.497     1286.322        0.797        0.501       76.642       27.310        0.127      334.971        5.296      869.202
11/17/2014  12:51:00       62.815       -6.228       52.765       64.353       73.150       67.693     4141.268     5350.959     4582.329        1.042        0.704       63.123       53.848        0.728      335.161        5.611      869.187
11/17/2014  12:52:00       38.291       19.933       66.444       50.910      108.063       79.234     2591.802    11677.591     6277.998        1.341        1.027       43.169       91.170        4.460      334.738        4.908      869.178
11/17/2014  12:53:00       59.813      -12.903       23.442       38.389       59.612       30.363     1473.706     3553.610      921.886        0.512        0.297       61.189       32.659        0.285      334.822        5.049      869.149
11/17/2014  12:54:00       53.551      -16.680       16.163       52.820       60.378       43.758     2789.987     3645.539     1914.774        0.588        0.418       56.089       29.279        0.273      335.007        5.356      869.118
11/17/2014  12:55:00       44.441       95.019      100.028       78.379       71.792       77.041     6143.338     5154.096     5935.370        1.912        0.862      104.898       70.908        0.457      334.987        5.321      869.086
11/17/2014  12:56:00       70.110       28.413       12.725       41.542       33.789       45.386     1725.749     1141.711     2059.875        0.540        0.246       75.649       25.087        0.110      334.684        4.819      869.078
11/17/2014  12:57:00       -1.821       32.827       -0.418       28.063       47.690       14.814      787.526     2274.290      219.444        0.218        0.164       32.877       19.018        0.335      335.012        5.364      869.046
11/17/2014  12:58:00       -1.977       23.918        7.169       34.020       34.688       20.470     1157.342     1203.251      419.004        0.170        0.139       23.999       18.675        0.606      335.321        5.875      869.031
11/17/2014  12:59:00       57.937       89.615       27.416       72.132       59.872       56.253     5203.030     3584.619     3164.446        1.204        0.598      106.712       35.961        0.114      335.239        5.741      869.008
11/17/2014  13:00:00      126.423       21.566       24.167       70.942       37.486       44.951     5032.715     1405.215     2020.617        1.274        0.423      128.250       24.011        0.035      335.102        5.512      868.990
11/17/2014  13:01:00      103.895       87.246       16.274       51.798       36.224       36.666     2683.022     1312.155     1344.361        1.200        0.267      135.669       23.731        0.031      335.039        5.408      868.991
11/17/2014  13:02:00       65.130       62.936       -4.581       31.730       33.234       34.808     1006.821     1104.483     1211.626        0.577        0.166       90.570       12.287        0.018      334.975        5.303      868.985
11/17/2014  13:03:00       52.198       78.306        9.358       62.284       50.792       51.658     3879.270     2579.862     2668.500        0.903        0.456       94.108       38.179        0.165      335.090        5.494      868.970
11/17/2014  13:04:00        8.419       74.227      -33.387       47.671       77.276       29.030     2272.535     5971.654      842.720        0.789        0.454       74.703       19.226        0.066      335.009        5.358      868.974
11/17/2014  13:05:00      -29.017       91.531      -10.452       36.163       40.665       25.305     1307.775     1653.672      640.355        0.646        0.180       96.020       18.543        0.037      335.108        5.523      868.969
11/17/2014  13:06:00       55.552       37.171        8.005       31.267       23.829       21.360      977.635      567.819      456.241        0.327        0.100       66.841       12.035        0.032      335.238        5.738      868.967
11/17/2014  13:07:00       11.354      118.560      130.365       42.109       63.694       55.173     1773.127     4056.895     3044.062        2.003        0.444      119.103       46.982        0.156      335.366        5.952      868.954
11/17/2014  13:08:00       19.524      117.107      152.325       67.907       75.648       60.781     4611.391     5722.611     3694.272        2.566        0.701      118.723       53.939        0.206      335.282        5.811      868.940
11/17/2014  13:09:00       85.474      105.640      104.386      104.217       63.339       68.696    10861.081     4011.803     4719.082        2.447        0.980      135.889       69.424        0.261      335.285        5.816      868.945
11/17/2014  13:10:00      103.344      143.980      127.407       90.768       78.691       60.517     8238.784     6192.263     3662.298        3.286        0.905      177.229       51.566        0.085      335.337        5.902      868.932
11/17/2014  13:11:00      147.833      122.966       75.338       72.277       48.635       55.257     5223.942     2365.410     3053.297        2.664        0.532      192.290       24.527        0.016      335.154        5.599      868.950
11/17/2014  13:12:00      104.965       86.230       47.641       50.220       35.234       45.446     2522.046     1241.464     2065.330        1.327        0.291      135.843       31.312        0.053      335.057        5.439      868.947
11/17/2014  13:13:00       75.971       49.388       25.352       63.120       51.913       31.636     3984.095     2694.944     1000.858        0.827        0.384       90.613       12.062        0.018      335.130        5.559      868.932
11/17/2014  13:14:00      141.612       96.926       16.605       62.140       42.075       43.848     3861.350     1770.325     1922.676        1.864        0.378      171.606       25.785        0.023      335.005        5.352      868.894
11/17/2014  13:15:00       65.832      119.860      112.100       66.023       57.020       56.862     4359.034     3251.295     3233.336        2.105        0.542      136.749       50.177        0.135      335.198        5.673      868.874
11/17/2014  13:16:00       84.494       47.771       13.272       43.090       37.753       27.347     1856.729     1425.288      747.847        0.681        0.201       97.063       21.983        0.051      335.022        5.381      868.865
11/17/2014  13:17:00       82.052       57.520       44.631       94.204       58.798       63.638     8874.351     3457.206     4049.827        1.420        0.819      100.206       47.250        0.222      335.353        5.928      868.834
11/17/2014  13:18:00      155.326       91.970       30.227       53.127       47.598       40.177     2822.526     2265.598     1614.178        2.010        0.335      180.512       25.011        0.019      335.072        5.462      868.821
11/17/2014  13:19:00       77.354        6.230        4.104       64.501       36.263       31.363     4160.434     1315.018      983.615        0.625        0.323       77.605       16.076        0.043      335.119        5.541      868.807
11/17/2014  13:20:00      -32.114       30.625       -7.106       19.018       26.633       20.057      361.679      709.310      402.300        0.175        0.074       44.375       13.572        0.094      335.175        5.634      868.788
11/17/2014  13:21:00       31.344        5.750       14.210       45.320       39.297       26.758     2053.870     1544.253      715.975        0.276        0.216       31.867       27.046        0.720      335.539        6.239      868.786
11/17/2014  13:22:00      145.680       59.598       11.039       51.782       46.499       40.621     2681.352     2162.201     1650.025        1.569        0.325      157.399       18.431        0.014      335.287        5.821      868.783
11/17/2014  13:23:00       77.036       76.726        9.250       49.905       41.318       30.822     2490.520     1707.178      949.993        0.853        0.257      108.727       17.868        0.027      335.142        5.580      868.772
11/17/2014  13:24:00       51.845       66.802        0.245       30.088       34.857       29.114      905.270     1214.999      847.642        0.506        0.148       84.560       24.480        0.084      335.194        5.666      868.756
11/17/2014  13:25:00       41.326       76.909        5.460       39.544       33.741       32.693     1563.726     1138.445     1068.818        0.571        0.189       87.309       25.199        0.083      335.266        5.785      868.746
11/17/2014  13:26:00       54.172       88.596        4.785       51.729       35.085       30.062     2675.872     1230.926      903.745        0.781        0.241      103.845       28.200        0.074      335.477        6.136      868.728
11/17/2014  13:27:00       10.680       44.347        2.202       35.222       56.906       23.080     1240.564     3238.286      532.695        0.355        0.251       45.615       17.138        0.141      335.750        6.592      868.722
11/17/2014  13:28:00       30.580       24.721       21.692       27.641       29.995       20.293      764.037      899.678      411.802        0.205        0.104       39.322       12.272        0.097      335.894        6.832      868.716
11/17/2014  13:29:00        8.646        6.332        8.875       15.535       16.272       13.715      241.347      264.787      188.092        0.044        0.035       10.717        3.402        0.101      335.998        7.007      868.702
11/17/2014  13:30:00       17.947       70.468       -1.603       26.919       31.611       23.145      724.642      999.228      535.705        0.377        0.113       72.717       14.747        0.041      335.832        6.728      868.691
11/17/2014  13:31:00      -25.521       47.832       66.742       39.297       69.715       70.021     1544.246     4860.210     4902.939        0.935        0.565       54.215       59.433        1.202      336.020        7.042      868.669
11/17/2014  13:32:00      110.795       25.476       49.676       54.919       95.424       55.130     3016.091     9105.799     3039.344        1.527        0.758      113.686       59.494        0.274      335.296        5.836      868.663
11/17/2014  13:33:00       42.946      -41.070       24.033       47.185       46.956       35.597     2226.470     2204.901     1267.178        0.490        0.285       59.423       35.678        0.360      335.412        6.028      868.657
11/17/2014  13:34:00      149.763       64.654       47.880       92.707       53.623       55.883     8594.524     2875.461     3122.896        2.174        0.730      163.122       52.597        0.104      335.518        6.202      868.639
11/17/2014  13:35:00      110.242      119.857       45.634      119.313       63.754       76.004    14235.704     4064.594     5776.569        2.633        1.204      162.847       82.504        0.257      335.648        6.420      868.633
11/17/2014  13:36:00      187.024      116.041       14.165       60.314       43.985       39.856     3637.722     1934.723     1588.496        2.790        0.358      220.099       21.441        0.009      335.290        5.821      868.642
11/17/2014  13:37:00      148.086      104.699       23.858       46.606       38.204       50.738     2172.146     1459.557     2574.373        1.983        0.310      181.360       31.207        0.030      335.258        5.771      868.646
11/17/2014  13:38:00       75.313       81.951        8.272       43.271       51.499       34.651     1872.404     2652.142     1200.716        0.909        0.286      111.302       31.549        0.080      335.456        6.102      868.632
11/17/2014  13:39:00      109.583      127.796       -0.833       92.495       53.477       49.948     8555.309     2859.741     2494.836        2.112        0.695      168.346       36.278        0.046      335.597        6.335      868.608
11/17/2014  13:40:00       51.249       85.695        5.966       78.440       84.005       57.145     6152.766     7056.818     3265.506        1.324        0.824       99.850       58.716        0.346      335.665        6.449      868.590
11/17/2014  13:41:00       63.803       78.860        8.803       59.051       54.615       39.492     3487.014     2982.845     1559.629        0.920        0.401      101.438       34.795        0.118      335.500        6.175      868.590
11/17/2014  13:42:00       96.161       56.914       21.575       60.875       35.144       28.330     3705.783     1235.080      802.611        0.935        0.287      111.741       20.501        0.034      335.663        6.446      868.570
11/17/2014  13:43:00       50.318        8.600        7.512       46.245       48.400       29.718     2138.568     2342.603      883.189        0.401        0.268       51.047       27.829        0.297      335.811        6.694      868.547
11/17/2014  13:44:00       37.102        8.637       14.977       35.158       50.157       33.947     1236.063     2515.679     1152.393        0.329        0.245       38.094       34.879        0.838      336.050        7.091      868.531
11/17/2014  13:45:00       49.888       48.434       41.076       36.836       36.045       39.588     1356.916     1299.217     1567.248        0.537        0.211       69.531       17.973        0.067      335.903        6.847      868.511
11/17/2014  13:46:00       44.416      -34.351       20.356       59.608       79.380       49.422     3553.097     6301.165     2442.533        0.793        0.615       56.150       23.476        0.175      336.085        7.151      868.495
11/17/2014  13:47:00       49.737       14.002       37.001       39.127       74.087       38.462     1530.913     5488.815     1479.346        0.627        0.425       51.670       28.988        0.315      335.863        6.779      868.495
11/17/2014  13:48:00       52.247       11.113        9.395       61.757       58.717       41.733     3813.897     3447.719     1741.678        0.597        0.450       53.416       21.216        0.158      335.854        6.764      868.482
11/17/2014  13:49:00       66.545       30.280       71.550       75.349       99.864       54.262     5677.445     9972.744     2944.322        1.453        0.930       73.110       66.823        0.835      335.773        6.630      868.464
11/17/2014  13:50:00       52.858        8.459       43.149       54.985       56.852       42.947     3023.366     3232.186     1844.450        0.641        0.405       53.530       41.379        0.598      336.043        7.080      868.450
11/17/2014  13:51:00       89.239      -54.708       24.754       59.361       94.375       44.727     3523.773     8906.572     2000.479        1.300        0.722      104.673       55.559        0.282      335.931        6.893      868.432
11/17/2014  13:52:00       27.844      -20.385       44.580       65.195       99.611       53.226     4250.376     9922.395     2832.964        1.009        0.850       34.509       56.595        2.690      336.128        7.221      868.412
11/17/2014  13:53:00      113.056     -111.010        4.064       67.842       78.638       50.972     4602.490     6183.901     2598.159        1.925        0.669      158.446       49.944        0.099      336.012        7.027      868.402
11/17/2014  13:54:00      115.573       27.906       58.246       86.892       53.756       47.596     7550.303     2889.669     2265.359        1.511        0.635      118.895       47.222        0.158      335.855        6.765      868.400
11/17/2014  13:55:00       53.602       44.529       34.653       42.334       44.253       42.155     1792.135     1958.363     1777.004        0.579        0.276       69.685       30.105        0.187      335.796        6.669      868.394
11/17/2014  13:56:00       59.571       17.522       37.500       31.462       36.508       27.039      989.882     1332.869      731.088        0.416        0.153       62.094       17.236        0.077      335.805        6.684      868.385
11/17/2014  13:57:00       52.351       -7.408       25.635       32.539       52.518       31.463     1058.787     2758.139      989.891        0.413        0.240       52.873       29.035        0.302      335.885        6.816      868.353
11/17/2014  13:58:00       31.565      -37.416       12.940       29.144       58.711       36.211      849.351     3446.927     1311.268        0.408        0.280       48.953       40.285        0.677      336.211        7.360      868.331
11/17/2014  13:59:00       67.694       75.904       71.832       59.597       41.325       40.422     3551.763     1707.773     1633.931        1.120        0.345      101.705       30.436        0.090      335.901        6.843      868.322
11/17/2014  14:00:00       59.143       45.344       29.853       38.491       37.918       33.192     1481.548     1437.780     1101.682        0.523        0.201       74.525       25.204        0.114      335.687        6.486      868.309
11/17/2014  14:01:00       -5.071       23.942       36.752       41.170       45.029       39.639     1694.993     2027.574     1571.225        0.362        0.265       24.473       32.582        1.773      336.156        7.269      868.287
11/17/2014  14:02:00       79.283       61.155        6.330       56.041       37.719       32.404     3140.628     1422.757     1050.041        0.784        0.281      100.129       23.498        0.055      335.948        6.922      868.279
11/17/2014  14:03:00      107.274       83.649       35.227       72.476       38.801       30.068     5252.815     1505.547      904.074        1.370        0.383      136.033       23.471        0.030      335.898        6.838      868.260
11/17/2014  14:04:00      184.529      135.987       13.415       85.625       67.898       51.500     7331.718     4610.135     2652.270        3.366        0.730      229.223       28.982        0.016      335.881        6.806      868.254
11/17/2014  14:05:00      130.750       69.151       22.942       87.706       48.993       44.177     7692.285     2400.357     1951.632        1.722        0.602      147.910       30.041        0.041      335.722        6.543      868.261
11/17/2014  14:06:00       48.277      149.029      -21.065       27.905       42.539       29.606      778.707     1809.567      876.515        1.422        0.173      156.654       26.924        0.030      335.694        6.497      868.260
11/17/2014  14:07:00      132.068       77.297       15.254       65.596       37.053       39.180     4302.863     1372.941     1535.083        1.543        0.361      153.026       18.855        0.015      335.793        6.662      868.261
11/17/2014  14:08:00       51.029       52.876       84.288       52.061       37.118       28.547     2710.391     1377.779      814.940        0.870        0.245       73.484       21.487        0.086      335.996        7.001      868.244
11/17/2014  14:09:00      155.051      124.798       96.423       74.919       68.635       63.651     5612.889     4710.726     4051.452        3.164        0.719      199.036       46.198        0.054      335.915        6.864      868.227
11/17/2014  14:10:00       14.765       75.994       84.691       51.646       53.545       57.402     2667.348     2867.032     3294.985        1.100        0.441       77.415       48.840        0.398      336.140        7.242      868.232
11/17/2014  14:11:00       74.901       36.574       41.034       80.266       70.051       38.473     6442.599     4907.080     1480.181        1.073        0.641       83.353       23.750        0.081      336.253        7.431      868.216
11/17/2014  14:12:00      101.661       86.045       48.065       79.211       74.682       54.372     6274.372     5577.331     2956.333        1.743        0.740      133.187       43.872        0.109      336.071        7.126      868.214
11/17/2014  14:13:00       94.544       69.349       30.932       42.090       37.349       36.955     1771.604     1394.937     1365.705        0.962        0.227      117.251       18.396        0.025      336.085        7.149      868.204
11/17/2014  14:14:00       62.347       10.417        6.261       42.524       51.270       26.992     1808.262     2628.641      728.594        0.460        0.258       63.211       17.043        0.073      336.265        7.450      868.202
11/17/2014  14:15:00       28.582       39.454       49.591       54.618       37.920       39.102     2983.098     1437.899     1529.004        0.539        0.298       48.719       27.016        0.307      336.514        7.866      868.202
11/17/2014  14:16:00       -3.358       47.608       43.119       37.180       37.836       42.024     1382.330     1431.553     1766.053        0.436        0.229       47.726       24.270        0.259      336.519        7.876      868.202
11/17/2014  14:17:00       87.918       86.914       -2.310       61.704       55.602       45.580     3807.418     3091.635     2077.551        1.213        0.449      123.627       35.353        0.082      336.126        7.217      868.210
11/17/2014  14:18:00       26.530       98.090      -15.658       45.922       29.341       28.257     2108.870      860.890      798.480        0.717        0.188      101.614       22.716        0.050      336.014        7.031      868.207
11/17/2014  14:19:00       15.686       11.113        2.757       51.871       41.480       21.843     2690.561     1720.576      477.133        0.263        0.244       19.224       18.739        0.950      336.241        7.410      868.197
11/17/2014  14:20:00       19.884       -1.072       47.604       44.414       73.410       36.434     1972.599     5389.090     1327.444        0.567        0.434       19.912       37.347        3.518      336.338        7.573      868.181
11/17/2014  14:21:00      -27.151      -32.539       30.435       31.020       49.666       18.802      962.216     2466.667      353.518        0.325        0.189       42.378       15.003        0.125      336.547        7.923      868.181
11/17/2014  14:22:00       57.227       53.195       27.166       29.490       25.061       23.007      869.648      628.062      529.319        0.443        0.101       78.132       12.091        0.024      336.104        7.182      868.187
11/17/2014  14:23:00       42.450       21.855        6.568       24.468       21.859       18.909      598.687      477.819      357.542        0.188        0.072       47.746       12.024        0.063      336.209        7.357      868.187
11/17/2014  14:24:00      110.788       71.898       15.955       68.954       60.432       31.535     4754.585     3652.063      994.485        1.355        0.470      132.073       29.878        0.051      336.266        7.450      868.176
11/17/2014  14:25:00       88.426       56.641       26.323       81.760       46.592       48.828     6684.690     2170.791     2384.140        1.148        0.562      105.011       38.132        0.132      336.345        7.583      868.169
11/17/2014  14:26:00      116.280      120.221        7.377      100.248       79.987       68.302    10049.689     6397.890     4665.101        2.457        1.056      167.255       54.902        0.108      336.181        7.309      868.159
11/17/2014  14:27:00      191.929      137.829       21.380       65.257       55.514       58.225     4258.505     3081.828     3390.202        3.351        0.537      236.291       31.434        0.018      336.001        7.004      868.166
11/17/2014  14:28:00      149.470       98.791       25.152       48.163       39.458       31.005     2319.678     1556.924      961.315        1.878        0.242      179.167        8.526        0.002      335.980        6.972      868.165
11/17/2014  14:29:00      175.965      123.729       20.653       70.825       61.997       50.338     5016.250     3843.569     2533.922        2.904        0.570      215.110       31.966        0.022      336.057        7.101      868.148
11/17/2014  14:30:00      143.635      112.177       12.430       47.277       45.992       41.635     2235.099     2115.309     1733.497        1.973        0.304      182.249       20.871        0.013      336.103        7.180      868.139
11/17/2014  14:31:00      103.433       59.847       37.305       53.001       47.582       39.695     2809.143     2264.003     1575.662        1.116        0.332      119.499       24.658        0.043      336.263        7.449      868.130
11/17/2014  14:32:00      135.231       83.353       10.620       94.305       48.380       41.763     8893.497     2340.626     1744.137        1.916        0.649      158.856       30.359        0.037      336.104        7.180      868.137
11/17/2014  14:33:00      150.084       85.899       11.974       64.956       48.421       44.409     4219.247     2344.622     1972.120        1.929        0.427      172.927       26.063        0.023      336.110        7.190      868.124
11/17/2014  14:34:00      167.902      127.860       -4.717       62.337       55.241       36.581     3885.895     3051.592     1338.179        2.642        0.414      211.044       26.060        0.015      336.226        7.383      868.129
11/17/2014  14:35:00       92.040       89.378       10.821       81.581       57.610       52.626     6655.409     3318.888     2769.542        1.466        0.637      128.296       32.908        0.066      336.109        7.189      868.121
11/17/2014  14:36:00       29.431      123.300      -16.630       36.912       48.950       34.715     1362.469     2396.058     1205.137        1.065        0.248      126.764       21.882        0.030      336.080        7.141      868.107
11/17/2014  14:37:00       58.329      123.751      -16.584       36.513       55.830       33.417     1333.213     3117.030     1116.673        1.228        0.278      136.809       31.564        0.053      336.118        7.204      868.101
11/17/2014  14:38:00       89.009       72.973       12.653       59.280       45.205       43.415     3514.127     2043.535     1884.865        1.042        0.372      115.099       29.977        0.068      336.219        7.374      868.107
11/17/2014  14:39:00      109.004       71.397       55.979       80.756       72.987       66.622     6521.572     5327.046     4438.538        1.820        0.814      130.305       42.017        0.104      336.379        7.640      868.101
11/17/2014  14:40:00       85.806       58.364       46.103       92.095       63.708       55.074     8481.411     4058.741     3033.122        1.423        0.779      103.774       57.655        0.309      336.376        7.635      868.088
11/17/2014  14:41:00       36.815       45.819       28.035       37.853       54.588       30.118     1432.859     2979.884      907.068        0.478        0.266       58.777       23.672        0.162      336.475        7.802      868.069
11/17/2014  14:42:00       84.666       57.119       24.250       56.776       50.032       39.632     3223.470     2503.233     1570.680        0.916        0.365      102.132       20.917        0.042      336.546        7.920      868.076
11/17/2014  14:43:00      201.671      113.773       35.073       60.724       60.447       49.158     3687.360     3653.804     2416.554        3.230        0.488      231.550       34.498        0.022      336.170        7.287      868.082
11/17/2014  14:44:00      152.965      113.424       25.137       58.448       58.072       43.926     3416.185     3372.322     1929.452        2.280        0.436      190.429       17.585        0.009      336.185        7.313      868.081
11/17/2014  14:45:00       16.296       71.452       -0.973       43.204       43.370       32.230     1866.560     1880.983     1038.760        0.508        0.239       73.287       28.766        0.154      336.221        7.377      868.082
11/17/2014  14:46:00       24.158       42.550        1.352       30.422       41.433       24.531      925.527     1716.728      601.770        0.282        0.162       48.930       19.265        0.155      336.331        7.561      868.075
11/17/2014  14:47:00       24.553       42.339       -0.945       33.209       44.586       19.126     1102.818     1987.878      365.799        0.293        0.173       48.944       18.518        0.143      336.402        7.681      868.065
11/17/2014  14:48:00       84.641       42.381        1.692       48.491       36.368       28.358     2351.390     1322.657      804.179        0.672        0.224       94.659       17.651        0.035      336.358        7.605      868.043
11/17/2014  14:49:00      103.638       62.556        8.268       37.324       37.108       33.371     1393.046     1376.994     1113.619        0.930        0.194      121.054       15.718        0.017      336.447        7.755      868.027
11/17/2014  14:50:00       53.486       34.539       49.867       49.214       38.196       30.195     2421.974     1458.924      911.760        0.567        0.240       63.669       22.019        0.120      336.619        8.044      868.015
11/17/2014  14:51:00       28.838       55.398       81.985       72.068       59.850       38.389     5193.786     3582.053     1473.736        1.043        0.512       62.454       41.494        0.441      336.796        8.338      868.006
11/17/2014  14:52:00       -6.901       26.830       68.925       48.034       60.599       31.234     2307.247     3672.295      975.587        0.624        0.348       27.703       34.238        1.527      336.817        8.374      868.008
11/17/2014  14:53:00       37.123      -69.012        1.531       33.722       43.259       29.997     1137.181     1871.349      899.816        0.502        0.195       78.363       18.574        0.056      336.564        7.951      868.009
11/17/2014  14:54:00       39.769      -27.483       31.378       35.020       55.754       26.639     1226.371     3108.460      709.656        0.418        0.252       48.342       33.563        0.482      336.548        7.925      868.005
11/17/2014  14:55:00       33.702       10.422       23.341       58.848       34.792       31.825     3463.054     1210.494     1012.804        0.374        0.284       35.277       28.202        0.639      336.524        7.884      868.004
11/17/2014  14:56:00        1.471       42.281       68.534       26.936       33.952       21.638      725.523     1152.711      468.182        0.442        0.117       42.307       17.427        0.170      336.751        8.263      868.007
11/17/2014  14:57:00       79.954       73.453       64.887       70.395       51.144       49.719     4955.445     2615.664     2471.981        1.302        0.502      108.573       43.354        0.159      336.467        7.789      868.000
11/17/2014  14:58:00      103.481        6.511       30.712       77.860      126.589       59.616     6062.142    16024.733     3554.030        1.866        1.282      103.686       68.488        0.436      336.464        7.781      867.988
11/17/2014  14:59:00       57.666       -7.355       48.630       64.249       54.480       35.563     4127.893     2968.031     1264.701        0.705        0.418       58.133       42.267        0.529      336.614        8.034      867.983
11/17/2014  15:00:00       35.648       31.787       77.406       54.642       79.720       32.510     2985.730     6355.303     1056.911        0.933        0.520       47.762       36.712        0.591      336.711        8.196      867.985
11/17/2014  15:01:00      120.688       73.569       71.260       79.956       71.402       65.290     6392.945     5098.246     4262.788        2.040        0.788      141.343       54.820        0.150      336.456        7.768      867.995
11/17/2014  15:02:00       88.124       58.485       66.767       71.591       61.750       43.356     5125.265     3813.099     1879.710        1.323        0.541      105.766       43.221        0.167      336.520        7.878      868.007
11/17/2014  15:03:00       76.462       48.536       41.645       62.940       56.862       40.168     3961.443     3233.232     1613.452        0.937        0.440       90.566       42.788        0.223      336.437        7.739      868.016
11/17/2014  15:04:00       51.040      113.962      108.420       60.286       52.501       50.961     3634.404     2756.375     2597.053        1.817        0.449      124.870       43.561        0.122      336.500        7.843      868.011
11/17/2014  15:05:00       53.326       39.944       42.919       37.905       41.490       28.647     1436.754     1721.400      820.654        0.513        0.199       66.627       24.418        0.134      336.509        7.857      868.017
11/17/2014  15:06:00       82.548       67.055       55.762       63.186       55.533       51.679     3992.451     3083.915     2670.713        1.208        0.487      106.351       44.157        0.172      336.531        7.895      868.006
11/17/2014  15:07:00       99.480       23.252       63.191       72.384       93.777       48.231     5239.420     8794.216     2326.243        1.539        0.818      102.161       57.207        0.314      336.529        7.891      868.004
11/17/2014  15:08:00       18.504      -25.292       26.234       32.114       74.580       29.451     1031.313     5562.242      867.356        0.456        0.373       31.339       30.455        0.944      336.730        8.228      868.000
11/17/2014  15:09:00        6.547        0.502       21.339       30.977       43.030       26.475      959.601     1851.600      700.936        0.200        0.176        6.566       18.394        7.848      336.861        8.448      868.001
11/17/2014  15:10:00       54.604       36.038       -4.117       39.274       26.367       28.949     1542.426      695.201      838.041        0.369        0.154       65.424       16.555        0.064      336.753        8.268      868.002
11/17/2014  15:11:00       58.662       -4.830        6.370       37.994       35.135       24.282     1443.536     1234.473      589.619        0.339        0.163       58.860       16.704        0.081      336.713        8.200      868.007
11/17/2014  15:12:00       28.288      110.606      118.582       53.474       50.334       53.504     2859.427     2533.485     2862.651        1.767        0.413      114.166       45.943        0.162      336.621        8.045      868.006
11/17/2014  15:13:00       67.786       90.674      103.162       71.449       66.129       47.574     5104.999     4373.030     2263.295        1.760        0.587      113.211       36.840        0.106      336.657        8.106      868.007
11/17/2014  15:14:00      128.133      111.372       89.699       63.468       61.909       59.775     4028.188     3832.785     3573.037        2.415        0.572      169.770       45.122        0.071      336.471        7.794      868.009
11/17/2014  15:15:00      168.915       97.585       39.136       63.334       46.119       52.785     4011.230     2126.969     2786.238        2.425        0.446      195.078       41.467        0.045      336.419        7.705      868.008
11/17/2014  15:16:00      105.377       78.435       55.786       81.127       42.537       46.977     6581.634     1809.430     2206.828        1.548        0.530      131.363       43.198        0.108      336.543        7.917      868.006
11/17/2014  15:17:00      105.421      114.859       83.905       83.127       48.779       51.740     6910.105     2379.424     2677.007        2.165        0.598      155.904       47.114        0.091      336.597        8.004      868.010
11/17/2014  15:18:00       54.019       64.374       64.415       59.648       52.500       47.175     3557.883     2756.212     2225.502        0.987        0.427       84.036       36.873        0.193      336.550        7.927      868.001
11/17/2014  15:19:00       53.404       56.581       46.272       60.241       39.175       48.415     3628.985     1534.710     2344.039        0.785        0.375       77.804       45.318        0.339      336.609        8.026      867.991
11/17/2014  15:20:00       85.135       70.155       23.671       20.528       15.366       25.403      421.410      236.103      645.318        0.702        0.065      110.316        8.764        0.006      336.440        7.742      867.985
11/17/2014  15:21:00       84.817       40.342        8.435       13.092       20.318       13.183      171.413      412.808      173.786        0.483        0.038       93.922        7.120        0.006      336.446        7.752      867.980
11/17/2014  15:22:00       31.892       30.756       -1.829       14.882       12.366       11.230      221.488      152.914      126.121        0.123        0.025       44.306        4.336        0.010      336.466        7.786      867.971
11/17/2014  15:23:00       41.560       24.650       26.591       62.931       31.764       26.028     3960.373     1008.956      677.472        0.434        0.282       48.320       21.636        0.200      336.593        7.999      867.963
11/17/2014  15:24:00       39.541       45.325        2.464       51.224       37.071       33.906     2623.937     1374.267     1149.640        0.438        0.257       60.149       22.977        0.146      336.580        7.978      867.965
11/17/2014  15:25:00      156.909      115.098       11.884       54.777       38.521       37.916     3000.514     1483.830     1437.643        2.196        0.296      194.597       21.798        0.013      336.503        7.847      867.959
11/17/2014  15:26:00       56.141       56.888       31.911       63.901       57.924       30.465     4083.393     3355.239      928.096        0.788        0.418       79.926       25.899        0.105      336.569        7.959      867.945
11/17/2014  15:27:00       49.032       99.116      -12.591       55.138       53.329       42.530     3040.150     2844.023     1808.791        1.004        0.385      110.581       32.390        0.086      336.438        7.740      867.950
11/17/2014  15:28:00       68.792      102.142       -9.537       39.944       58.987       34.817     1595.563     3479.440     1212.202        1.077        0.314      123.148       29.713        0.058      336.378        7.640      867.945
11/17/2014  15:29:00       99.360       62.330       18.744       44.796       34.288       32.713     2006.639     1175.700     1070.155        0.918        0.213      117.292       10.916        0.009      336.513        7.867      867.936
11/17/2014  15:30:00       69.392       93.973        1.549       48.113       48.343       33.890     2314.839     2337.018     1148.565        0.972        0.290      116.817       31.181        0.071      336.448        7.756      867.942
11/17/2014  15:31:00       28.913       71.473        9.343       64.174       58.848       25.354     4118.361     3463.062      642.833        0.713        0.411       77.100       33.919        0.194      336.521        7.880      867.943
11/17/2014  15:32:00        2.987      133.015      -16.217       38.662       41.556       26.871     1494.737     1726.910      722.065        1.095        0.197      133.048       29.506        0.049      336.487        7.821      867.942
11/17/2014  15:33:00        5.843      108.002      -23.689       28.349       41.307       22.486      803.667     1706.251      505.614        0.764        0.151      108.160       16.436        0.023      336.554        7.934      867.942
11/17/2014  15:34:00       36.386      136.453      -22.338       37.900       56.395       28.631     1436.400     3180.382      819.733        1.294        0.272      141.221       31.795        0.051      336.496        7.836      867.945
11/17/2014  15:35:00       60.500      135.217      -10.028       47.693       54.553       39.835     2274.624     2976.029     1586.839        1.444        0.342      148.135       36.294        0.060      336.382        7.645      867.950
11/17/2014  15:36:00      171.389       80.544       13.745       69.216       44.113       51.193     4790.920     1945.996     2620.728        2.270        0.468      189.372       15.631        0.007      336.446        7.750      867.939
11/17/2014  15:37:00       57.936       49.068       25.014       56.310       43.537       31.460     3170.800     1895.504      989.736        0.622        0.303       75.923       26.166        0.119      336.462        7.779      867.936
11/17/2014  15:38:00      110.388       80.562       12.936       39.892       36.788       33.824     1591.332     1353.366     1144.056        1.147        0.204      136.660       23.709        0.030      336.374        7.634      867.932
11/17/2014  15:39:00       87.338       68.392       16.855       41.036       30.436       24.708     1683.966      926.359      610.474        0.790        0.161      110.930       15.324        0.019      336.409        7.691      867.926
11/17/2014  15:40:00       29.731       48.883        4.278       36.942       24.960       26.314     1364.736      622.982      692.409        0.299        0.134       57.214       16.263        0.081      336.489        7.826      867.926
11/17/2014  15:41:00       46.341       69.251       -1.714       45.389       48.115       32.182     2060.200     2315.074     1035.659        0.618        0.271       83.325       29.125        0.122      336.459        7.773      867.939
11/17/2014  15:42:00       46.185      119.122      -14.082       43.076       52.253       24.671     1855.511     2730.341      608.660        1.086        0.260      127.762       26.702        0.044      336.495        7.834      867.943
11/17/2014  15:43:00       51.710       67.368        1.521       31.250       41.491       24.662      976.576     1721.467      608.193        0.526        0.165       84.926       23.890        0.079      336.458        7.772      867.950
11/17/2014  15:44:00       37.053       66.393      -10.226       18.192       46.031       16.804      330.954     2118.881      282.374        0.431        0.137       76.033       22.011        0.084      336.458        7.773      867.958
11/17/2014  15:45:00       42.828       50.439       12.123       32.093       28.251       26.479     1029.948      798.139      701.147        0.353        0.126       66.169       16.363        0.061      336.433        7.731      867.961
11/17/2014  15:46:00       48.219       34.533        2.441       22.337       17.574       16.434      498.936      308.854      270.074        0.230        0.054       59.309        3.504        0.003      336.426        7.719      867.963
11/17/2014  15:47:00       54.785       35.412        9.810       27.153       14.702       18.311      737.266      216.138      335.279        0.282        0.064       65.234        9.986        0.023      336.422        7.713      867.957
11/17/2014  15:48:00       64.002       57.631       12.206       35.978       22.631       24.141     1294.385      512.167      582.774        0.498        0.119       86.125       10.789        0.016      336.453        7.764      867.955
11/17/2014  15:49:00       54.489       50.131        8.053       53.200       43.142       24.401     2830.234     1861.248      595.388        0.542        0.264       74.041       14.790        0.040      336.486        7.821      867.957
11/17/2014  15:50:00       51.516       40.643        5.704       47.711       33.956       23.781     2276.342     1153.017      565.534        0.417        0.200       65.619       14.435        0.048      336.445        7.751      867.952
11/17/2014  15:51:00       72.907       65.241        9.835       42.773       41.348       33.098     1829.532     1709.648     1095.451        0.715        0.232       97.835       25.790        0.069      336.390        7.658      867.951
11/17/2014  15:52:00      102.398       61.457       13.110       57.087       38.032       31.820     3258.881     1446.449     1012.499        1.007        0.286      119.425       23.359        0.038      336.371        7.627      867.943
11/17/2014  15:53:00      105.649       76.385        3.985       59.432       35.925       37.199     3532.191     1290.636     1383.758        1.161        0.310      130.370       18.290        0.020      336.383        7.647      867.939
11/17/2014  15:54:00       78.129       74.115        8.921       59.330       47.710       38.189     3520.037     2276.219     1458.378        0.946        0.363      107.691       31.685        0.087      336.373        7.631      867.927
11/17/2014  15:55:00       34.307       65.767       -0.148       47.970       38.324       34.143     2301.115     1468.724     1165.763        0.522        0.247       74.177       25.068        0.114      336.388        7.655      867.926
11/17/2014  15:56:00       92.305       46.725       18.427       61.313       44.269       32.839     3759.268     1959.740     1078.416        0.892        0.340      103.458       22.193        0.046      336.402        7.679      867.924
11/17/2014  15:57:00       92.204       47.446        2.255       32.949       36.062       30.493     1085.655     1300.490      929.828        0.704        0.166      103.695       21.934        0.045      336.379        7.640      867.909
11/17/2014  15:58:00       40.242       20.481       15.953       33.762       26.974       17.837     1139.896      727.615      318.158        0.224        0.109       45.154       15.264        0.114      336.392        7.663      867.897
11/17/2014  15:59:00      113.795       80.684       15.963       55.891       34.686       29.813     3123.749     1203.100      888.822        1.246        0.261      139.496       21.686        0.024      336.354        7.599      867.890
11/17/2014  16:00:00      134.144      106.963       16.705       64.463       48.072       47.362     4155.427     2310.942     2243.206        1.921        0.435      171.568       22.562        0.017      336.356        7.601      867.876
11/17/2014  16:01:00      133.105       99.536       28.754       43.101       40.956       44.227     1857.665     1677.394     1956.060        1.697        0.275      166.206       12.573        0.006      336.322        7.546      867.859
11/17/2014  16:02:00      175.993      104.080       31.301       62.469       50.116       40.550     3902.314     2511.633     1644.282        2.542        0.403      204.466       24.272        0.014      336.317        7.534      867.850
11/17/2014  16:03:00       95.480       51.026       36.000       65.923       46.219       41.104     4345.813     2136.182     1689.520        1.059        0.409      108.259       34.155        0.100      336.331        7.560      867.836
11/17/2014  16:04:00       47.887       38.489       41.487       52.783       40.329       38.431     2786.064     1626.454     1476.917        0.569        0.294       61.438       29.592        0.232      336.352        7.595      867.827
11/17/2014  16:05:00       88.356       64.071       13.761       27.017       21.880       22.078      729.932      478.740      487.418        0.690        0.085      109.141       14.499        0.018      336.324        7.550      867.824
11/17/2014  16:06:00       51.200       46.104       12.239       25.714       28.232       23.675      661.228      797.048      560.503        0.346        0.101       68.898       15.858        0.053      336.336        7.569      867.826
11/17/2014  16:07:00       74.966       68.678        5.513       37.922       35.732       26.721     1438.077     1276.746      714.017        0.690        0.171      101.668       24.082        0.056      336.319        7.541      867.827
11/17/2014  16:08:00       86.958       65.816        5.304       50.084       22.423       22.338     2508.358      502.782      499.007        0.772        0.176      109.057       16.420        0.023      336.316        7.537      867.825
11/17/2014  16:09:00       84.660       53.580        4.695       53.479       47.709       34.540     2860.048     2276.185     1192.984        0.819        0.316      100.191       24.657        0.061      336.306        7.518      867.826
11/17/2014  16:10:00       50.542       84.797      -13.772       32.376       40.594       24.071     1048.226     1647.863      579.413        0.660        0.164       98.717       24.337        0.061      336.279        7.474      867.824
11/17/2014  16:11:00       28.673      108.660      -15.622       33.776       34.005       21.440     1140.843     1156.318      459.662        0.781        0.138      112.379       20.382        0.033      336.332        7.562      867.821
11/17/2014  16:12:00       31.473       65.997       -9.930       33.691       30.674       21.352     1135.058      940.904      455.920        0.399        0.127       73.118       14.400        0.039      336.311        7.527      867.814
11/17/2014  16:13:00       61.506      125.169      -13.094       40.587       62.090       36.444     1647.288     3855.187     1328.189        1.322        0.342      139.464       35.217        0.064      336.260        7.441      867.807
11/17/2014  16:14:00       23.270      154.226      -15.370       40.549       63.551       36.839     1644.238     4038.680     1357.084        1.580        0.352      155.972       35.335        0.051      336.261        7.443      867.811
11/17/2014  16:15:00       31.306      198.258      -30.913       40.801       44.837       27.661     1664.748     2010.324      765.156        2.284        0.222      200.714       20.208        0.010      336.272        7.460      867.818
11/17/2014  16:16:00       52.923      100.033      -14.456       53.057       41.208       34.196     2815.021     1698.072     1169.397        0.935        0.284      113.170       28.195        0.062      336.250        7.426      867.826
11/17/2014  16:17:00       56.790       81.880        0.495       53.514       39.370       31.871     2863.786     1549.991     1015.740        0.768        0.271       99.646       26.659        0.072      336.243        7.413      867.832
11/17/2014  16:18:00       44.496       56.649       10.660       37.245       33.881       35.974     1387.215     1147.910     1294.109        0.457        0.191       72.035       27.424        0.145      336.224        7.382      867.836
11/17/2014  16:19:00       57.204       79.551       -1.844       41.391       42.552       30.289     1713.248     1810.708      917.408        0.702        0.222       97.983       28.473        0.084      336.228        7.389      867.839
11/17/2014  16:20:00       66.481       68.281       -0.449       46.968       32.582       23.599     2206.038     1061.600      556.933        0.645        0.191       95.300       18.336        0.037      336.185        7.316      867.851
11/17/2014  16:21:00       46.797       76.002       -1.744       51.520       41.873       28.971     2654.318     1753.352      839.341        0.661        0.262       89.253       24.703        0.077      336.180        7.309      867.856
11/17/2014  16:22:00       69.733       69.395        4.259       42.618       42.300       33.215     1816.328     1789.308     1103.208        0.720        0.235       98.379       30.092        0.094      336.172        7.294      867.862
11/17/2014  16:23:00       89.857       74.711        3.363       37.619       34.993       31.663     1415.157     1224.515     1002.561        0.865        0.182      116.859       21.888        0.035      336.177        7.302      867.857
11/17/2014  16:24:00      100.278       68.059        8.284       60.208       43.114       24.188     3624.990     1858.829      585.062        1.041        0.303      121.193       18.658        0.024      336.155        7.266      867.867
11/17/2014  16:25:00       65.122       53.831        2.760       54.473       29.907       20.662     2967.276      894.443      426.928        0.572        0.214       84.491       14.005        0.027      336.114        7.198      867.877
11/17/2014  16:26:00       95.840       73.646       11.933       46.287       33.928       26.941     2142.519     1151.090      725.813        0.938        0.201      120.868       18.483        0.023      336.118        7.204      867.878
11/17/2014  16:27:00       76.888       63.826       14.113       44.591       34.898       27.521     1988.390     1217.883      757.415        0.707        0.198       99.928       16.453        0.027      336.089        7.155      867.885
11/17/2014  16:28:00      110.322       68.710       16.140       42.899       22.075       28.731     1840.325      487.285      825.490        1.015        0.158      129.970       14.724        0.013      336.113        7.197      867.906
11/17/2014  16:29:00      104.384       69.048       18.014       38.618       29.492       29.294     1491.370      869.753      858.159        0.960        0.161      125.154       19.340        0.024      336.120        7.207      867.912
11/17/2014  16:30:00       82.067       58.363       14.394       26.913       24.318       22.589      724.319      591.358      510.250        0.609        0.091      100.704        8.469        0.007      336.096        7.168      867.932
11/17/2014  16:31:00       53.287       38.455       11.143       32.723       26.439       20.817     1070.822      699.000      433.330        0.332        0.110       65.714       12.339        0.035      336.066        7.119      867.947
11/17/2014  16:32:00       83.981       66.368        6.964       35.385       21.833       19.422     1252.070      476.701      377.205        0.681        0.105      107.040       14.242        0.018      336.183        7.313      867.956
11/17/2014  16:33:00       76.995       48.574       13.816       23.527       16.228       15.232      553.527      263.362      232.012        0.476        0.052       91.037        7.957        0.008      336.141        7.242      867.979
11/17/2014  16:34:00       76.705       49.686        3.387       28.319       21.715       18.525      801.938      471.561      343.160        0.499        0.081       91.391        8.050        0.008      336.085        7.148      867.984
11/17/2014  16:35:00       67.473       40.523        7.341       25.045       17.984       15.146      627.259      323.412      229.393        0.371        0.059       78.707       13.496        0.029      336.113        7.196      867.992
11/17/2014  16:36:00       62.658       33.474       15.709       29.635       20.134       17.494      878.239      405.381      306.043        0.344        0.079       71.038       14.424        0.041      336.071        7.127      867.990
11/17/2014  16:37:00       69.164       36.414        1.917       24.083       22.921       12.932      579.995      525.390      167.238        0.369        0.064       78.165        6.695        0.007      336.065        7.115      868.003
11/17/2014  16:38:00       97.049       52.838       10.170       24.790       14.446       15.171      614.541      208.693      230.155        0.668        0.053      110.500        6.605        0.004      336.103        7.181      867.999
11/17/2014  16:39:00       86.297       43.754        6.105       15.096       16.521       12.248      227.890      272.938      150.018        0.502        0.033       96.755        8.434        0.008      336.099        7.173      867.997
11/17/2014  16:40:00       75.933       38.989        6.856       25.791       26.175       14.127      665.183      685.130      199.583        0.444        0.077       85.358       11.438        0.018      336.050        7.091      867.998
11/17/2014  16:41:00       77.726       55.376       11.546       32.580       28.695       16.379     1061.480      823.386      268.269        0.570        0.108       95.435       11.535        0.015      336.045        7.084      868.010
11/17/2014  16:42:00       78.417       42.794        4.988       29.131       31.398       17.548      848.629      985.852      307.921        0.507        0.107       89.334       10.486        0.014      335.968        6.954      868.010
11/17/2014  16:43:00       63.504       44.676        8.579       31.928       30.527       23.433     1019.400      931.909      549.102        0.430        0.125       77.645       23.372        0.091      335.855        6.766      868.017
11/17/2014  16:44:00       38.937      127.269      -26.322       34.671       46.430       20.840     1202.107     2155.703      434.306        1.110        0.190      133.092       23.464        0.031      335.847        6.753      868.030
11/17/2014  16:45:00       62.407      172.109      -18.926       51.208       87.567       42.200     2622.218     7667.928     1780.811        2.297        0.604      183.074       51.478        0.079      335.706        6.519      868.033
11/17/2014  16:46:00       30.593      104.810       -7.055       42.070       71.198       39.554     1769.878     5069.103     1564.541        1.019        0.420      109.183       43.593        0.159      335.596        6.336      868.034
11/17/2014  16:47:00       45.168      103.754       -5.608       54.852       61.111       39.031     3008.731     3734.584     1523.414        1.055        0.413      113.160       40.235        0.126      335.549        6.258      868.037
11/17/2014  16:48:00       68.554       80.381        1.424       48.862       69.479       43.425     2387.497     4827.309     1885.707        1.013        0.455      105.645       42.095        0.159      335.537        6.237      868.043
11/17/2014  16:49:00       46.779      116.685       -9.270       44.297       53.006       37.082     1962.216     2809.595     1375.075        1.102        0.307      125.713       29.624        0.056      335.510        6.191      868.037
11/17/2014  16:50:00       52.869       45.467        4.257       46.391       28.257       28.026     2152.144      798.440      785.442        0.431        0.187       69.730       14.398        0.043      335.423        6.046      868.038
11/17/2014  16:51:00       61.823       45.886        8.917       37.639       30.768       28.229     1416.680      946.669      796.900        0.458        0.158       76.991       10.717        0.019      335.393        5.997      868.037
11/17/2014  16:52:00       51.220       61.485        3.318       48.607       39.653       27.045     2362.654     1572.369      731.421        0.554        0.233       80.024       24.842        0.096      335.389        5.990      868.036
11/17/2014  16:53:00       35.613       51.625        3.857       27.629       31.061       26.058      763.384      964.812      678.999        0.318        0.120       62.717       13.846        0.049      335.393        5.997      868.033
11/17/2014  16:54:00       58.982       64.735        4.885       46.453       45.931       40.520     2157.898     2109.644     1641.869        0.680        0.295       87.575       32.973        0.142      335.403        6.013      868.040
11/17/2014  16:55:00       88.136       71.260        9.771       42.321       36.345       33.988     1791.049     1320.955     1155.187        0.860        0.213      113.340       24.651        0.047      335.370        5.958      868.048
11/17/2014  16:56:00       57.749       50.759        7.017       41.168       25.390       19.975     1694.818      644.628      398.984        0.435        0.137       76.886       15.031        0.038      335.291        5.826      868.061
11/17/2014  16:57:00       48.054       43.378        7.132       31.404       23.863       21.809      986.231      569.429      475.642        0.314        0.102       64.737       17.747        0.075      335.275        5.799      868.070
11/17/2014  16:58:00       70.161       59.273        9.250       36.737       24.125       29.300     1349.616      582.029      858.518        0.566        0.140       91.847       15.328        0.028      335.278        5.805      868.090
11/17/2014  16:59:00       79.585       59.501       12.890       22.520       22.162       20.489      507.128      491.172      419.802        0.573        0.071       99.368        8.983        0.008      335.288        5.822      868.106
11/17/2014  17:00:00       48.181       45.818       10.659       23.463       18.758       14.309      550.516      351.868      204.749        0.282        0.055       66.488        5.451        0.007      335.245        5.750      868.127
11/17/2014  17:01:00       42.416       33.504        0.126       19.932       20.072       14.457      397.293      402.884      208.991        0.197        0.050       54.052        8.986        0.028      335.215        5.699      868.150
11/17/2014  17:02:00       97.212       77.120        5.970       37.379       36.733       33.093     1397.168     1349.280     1095.180        0.964        0.192      124.087       26.472        0.046      335.326        5.885      868.164
11/17/2014  17:03:00       74.100       62.219        6.237       41.631       27.147       27.108     1733.151      736.945      734.836        0.630        0.160       96.758       17.595        0.033      335.246        5.753      868.182
11/17/2014  17:04:00       49.729       51.070        9.871       43.131       37.993       28.484     1860.302     1443.469      811.318        0.465        0.206       71.282       20.881        0.086      335.201        5.677      868.189
11/17/2014  17:05:00       94.178       69.193       14.582       42.406       29.778       34.186     1798.269      886.724     1168.664        0.886        0.193      116.864       21.784        0.035      335.206        5.686      868.193
11/17/2014  17:06:00       76.889       57.703       15.301       49.641       32.479       30.101     2464.238     1054.898      906.081        0.695        0.221       96.133       22.632        0.055      335.134        5.567      868.197
11/17/2014  17:07:00       51.748       62.744        1.390       37.929       34.048       27.442     1438.607     1159.269      753.072        0.498        0.168       81.331       19.713        0.059      335.122        5.547      868.207
11/17/2014  17:08:00       89.571       82.641       -1.644       50.644       48.176       42.676     2564.848     2320.935     1821.271        1.078        0.335      121.871       32.624        0.072      335.157        5.605      868.210
11/17/2014  17:09:00       87.894       77.028       10.376       52.786       45.468       41.039     2786.311     2067.344     1684.212        1.015        0.327      116.871       33.808        0.084      335.130        5.560      868.212
11/17/2014  17:10:00       76.935       64.623        8.450       44.638       32.319       30.875     1992.586     1044.509      953.294        0.708        0.200      100.474       21.326        0.045      335.111        5.529      868.216
11/17/2014  17:11:00       97.129       54.517       15.728       37.420       18.516       24.982     1400.244      342.839      624.101        0.751        0.118      111.383       12.016        0.012      335.070        5.461      868.216
11/17/2014  17:12:00       49.609       33.672       -2.013       19.774       19.893       16.023      391.018      395.723      256.727        0.232        0.052       59.957       10.587        0.031      334.943        5.249      868.218
11/17/2014  17:13:00       59.770       48.690       17.984       28.604       20.769       18.339      818.211      431.336      336.333        0.393        0.079       77.091        9.131        0.014      335.007        5.355      868.211
11/17/2014  17:14:00       34.646       45.569        2.188       22.670       20.394       14.260      513.939      415.909      203.335        0.221        0.057       57.244       10.835        0.036      335.000        5.343      868.206
11/17/2014  17:15:00       74.648       81.209        2.223       59.780       49.151       40.837     3573.589     2415.845     1667.656        0.991        0.383      110.305       27.377        0.062      335.039        5.409      868.213
11/17/2014  17:16:00       75.675       60.653        0.676       33.578       31.219       28.564     1127.491      974.601      815.875        0.616        0.146       96.981       19.341        0.040      335.044        5.418      868.229
11/17/2014  17:17:00       48.535       34.488       13.676       34.258       22.186       18.352     1173.583      492.218      336.799        0.287        0.100       59.541       11.123        0.035      334.937        5.240      868.250
11/17/2014  17:18:00       31.703       31.581        8.827       23.254       22.122       21.100      540.745      489.368      445.212        0.178        0.074       44.748       15.037        0.113      334.883        5.150      868.272
11/17/2014  17:19:00       66.367       52.455        1.402       37.807       25.432       28.266     1429.378      646.809      798.963        0.502        0.144       84.593       16.743        0.039      334.954        5.267      868.290
11/17/2014  17:20:00       32.724       50.113       -0.900       40.744       26.289       20.661     1660.074      691.090      426.874        0.318        0.139       59.852       12.690        0.045      334.900        5.179      868.312
11/17/2014  17:21:00       24.871       39.266       -2.805       24.514       21.835       16.975      600.922      476.781      288.164        0.177        0.068       46.480       10.974        0.056      334.852        5.098      868.324
11/17/2014  17:22:00       27.331       71.626       -3.309       31.635       38.326       19.191     1000.794     1468.858      368.305        0.436        0.142       76.664       19.393        0.064      334.895        5.169      868.343
11/17/2014  17:23:00       26.470       69.969       -4.032       28.352       38.318       26.086      803.837     1468.233      680.454        0.428        0.148       74.808       22.338        0.089      334.875        5.136      868.354
11/17/2014  17:24:00       32.602       64.281        6.585       24.553       30.611       28.972      602.826      937.062      839.355        0.381        0.119       72.076       21.618        0.090      334.812        5.032      868.370
11/17/2014  17:25:00       28.438       48.665        0.937       29.913       29.771       20.228      894.796      886.312      409.185        0.268        0.110       56.365       16.757        0.088      334.798        5.008      868.389
11/17/2014  17:26:00       32.957       73.737      -14.240       19.717       30.051       13.674      388.776      903.084      186.969        0.410        0.074       80.767       13.095        0.026      334.810        5.029      868.403
11/17/2014  17:27:00       45.150       81.043      -11.232       36.654       39.157       22.628     1343.548     1533.282      512.018        0.606        0.169       92.771       21.674        0.055      334.776        4.972      868.413
11/17/2014  17:28:00       46.513       82.542       -6.626       32.575       49.870       30.636     1061.113     2486.998      938.561        0.675        0.224       94.745       27.723        0.086      334.748        4.925      868.414
11/17/2014  17:29:00       32.629       42.017        5.857       26.580       32.256       21.908      706.502     1040.436      479.980        0.255        0.111       53.199       20.677        0.151      334.692        4.832      868.416
11/17/2014  17:30:00       37.384       52.152       11.901       39.468       31.171       31.644     1557.754      971.608     1001.374        0.389        0.177       64.167       24.168        0.142      334.708        4.858      868.423
11/17/2014  17:31:00       23.391       30.014        7.858       32.570       21.162       15.667     1060.798      447.838      245.467        0.163        0.088       38.052        8.338        0.048      334.653        4.768      868.425
11/17/2014  17:32:00       19.439       21.228        6.189       22.945       28.467       18.052      526.466      810.355      325.892        0.126        0.083       28.784       14.744        0.262      334.662        4.783      868.434
11/17/2014  17:33:00       21.983       30.081       -2.637       31.265       21.190       16.062      977.481      449.035      257.978        0.154        0.084       37.258       10.928        0.086      334.680        4.814      868.441
11/17/2014  17:34:00       53.158       52.434        1.255       34.006       25.334       20.374     1156.421      641.791      415.089        0.389        0.111       74.667       18.544        0.062      334.762        4.950      868.449
11/17/2014  17:35:00       18.182       59.272       -7.573       20.451       27.849       18.107      418.225      775.544      327.862        0.271        0.076       61.998       17.574        0.080      334.722        4.883      868.463
11/17/2014  17:36:00       15.026       59.805       -7.081       20.429       35.410       17.403      417.326     1253.870      302.874        0.291        0.099       61.663       21.825        0.125      334.710        4.863      868.470
11/17/2014  17:37:00       22.789       58.629       -8.207       17.806       26.272       14.193      317.057      690.244      201.428        0.262        0.060       62.902       14.358        0.052      334.680        4.813      868.482
11/17/2014  17:38:00       30.744       77.233      -15.748       18.852       27.322       16.074      355.383      746.484      258.369        0.426        0.068       83.127       16.608        0.040      334.710        4.862      868.486
11/17/2014  17:39:00        8.699       54.329      -11.147       14.158       34.176        9.851      200.444     1167.969       97.044        0.231        0.073       55.021       15.282        0.077      334.673        4.800      868.486
11/17/2014  17:40:00       11.835       93.851      -18.485       12.452       16.405        7.203      155.047      269.134       51.890        0.488        0.024       94.594        6.181        0.004      334.724        4.885      868.498
11/17/2014  17:41:00       29.706       57.090      -12.256       23.146       25.731       12.533      535.740      662.082      157.073        0.282        0.068       64.356        9.385        0.021      334.648        4.760      868.500
11/17/2014  17:42:00       26.102       56.573       -6.273       19.880       23.024       16.493      395.197      530.126      272.027        0.256        0.060       62.304       13.534        0.047      334.645        4.754      868.505
11/17/2014  17:43:00       42.421       40.716       -1.231       27.767       26.070       23.613      771.021      679.638      557.585        0.273        0.100       58.799       19.404        0.109      334.643        4.751      868.515
11/17/2014  17:44:00       56.400       44.851        6.663       32.788       18.851       18.588     1075.082      355.344      345.513        0.351        0.089       72.059       13.000        0.033      334.653        4.768      868.519
11/17/2014  17:45:00       68.507       45.287       11.504       21.668       17.314       14.021      469.488      299.789      196.590        0.392        0.048       82.122       10.779        0.017      334.645        4.754      868.537
11/17/2014  17:46:00       60.099       43.191        8.501       28.197       20.116       14.908      795.076      404.642      222.248        0.349        0.071       74.009       10.080        0.019      334.602        4.684      868.541
11/17/2014  17:47:00       86.333       52.382        8.994       19.050       17.391       13.625      362.921      302.451      185.645        0.556        0.043      100.981       11.371        0.013      334.664        4.785      868.552
11/17/2014  17:48:00       60.193       40.154       13.553       26.515       15.169       12.456      703.050      230.086      155.161        0.325        0.054       72.357        9.353        0.017      334.520        4.546      868.557
11/17/2014  17:49:00       72.918       53.088        2.900       13.714       10.431        9.429      188.063      108.816       88.912        0.426        0.019       90.197        7.300        0.007      334.510        4.530      868.557
11/17/2014  17:50:00       79.685       53.182       10.622       16.532       11.449       14.484      273.314      131.090      209.800        0.495        0.031       95.802        5.982        0.004      334.563        4.617      868.564
11/17/2014  17:51:00       59.491       45.105       23.204       21.299       17.934       10.982      453.645      321.628      120.600        0.350        0.045       74.657        9.921        0.018      334.478        4.476      868.566
11/17/2014  17:52:00       52.488       34.675       17.881       17.544       11.409       10.369      307.779      130.165      107.522        0.241        0.027       62.907        2.457        0.002      334.440        4.415      868.573
11/17/2014  17:53:00       51.714       35.684       21.511       21.671       15.852       18.545      469.645      251.299      343.910        0.274        0.053       62.830       10.259        0.027      334.395        4.341      868.578
11/17/2014  17:54:00       66.814       34.127       14.160       20.234       13.235       13.281      409.412      175.163      176.387        0.329        0.038       75.025        7.070        0.009      334.520        4.547      868.583
11/17/2014  17:55:00       33.979       18.357       14.826       10.731        7.949       11.581      115.165       63.189      134.124        0.101        0.016       38.621        7.621        0.039      334.431        4.401      868.586
11/17/2014  17:56:00       75.958       41.717        9.901       26.720       24.268       16.952      713.943      588.951      287.386        0.460        0.080       86.660       15.370        0.031      334.459        4.446      868.588
11/17/2014  17:57:00       59.158       37.119       20.893       26.474       26.272       18.414      700.876      690.224      339.078        0.352        0.087       69.839       11.391        0.027      334.298        4.178      868.597
11/17/2014  17:58:00       97.408       51.190       24.776       32.072       28.338       27.379     1028.607      803.025      749.612        0.765        0.129      110.040       16.778        0.023      334.406        4.359      868.616
11/17/2014  17:59:00       77.476       39.674       22.451       30.743       23.295       24.923      945.110      542.666      621.172        0.509        0.105       87.043       20.811        0.057      334.355        4.274      868.628
11/17/2014  18:00:00       89.771       53.611       11.185       29.009       21.166       22.617      841.500      447.985      511.527        0.643        0.090      104.561       16.384        0.025      334.334        4.241      868.634
11/17/2014  18:01:00       80.674       52.834       18.466       25.470       14.231       17.141      648.742      202.518      293.808        0.539        0.057       96.435       11.894        0.015      334.309        4.197      868.641
11/17/2014  18:02:00       62.378       49.049       10.889       34.149       25.832       25.616     1166.146      667.295      656.188        0.445        0.124       79.352       12.150        0.023      334.255        4.107      868.652
11/17/2014  18:03:00       55.945       48.624        4.325       27.613       31.581       26.825      762.478      997.348      719.572        0.400        0.124       74.122       21.888        0.087      334.217        4.045      868.664
11/17/2014  18:04:00       29.133       47.789        0.618       27.628       28.104       21.451      763.330      789.845      460.124        0.257        0.101       55.969       16.450        0.086      334.195        4.008      868.658
11/17/2014  18:05:00       33.132       75.215       -6.064       20.325       43.519       19.504      413.118     1893.931      380.412        0.474        0.134       82.189       25.213        0.094      334.240        4.083      868.664
11/17/2014  18:06:00       25.555       84.176       -5.768       30.927       37.725       25.368      956.449     1423.201      643.547        0.540        0.151       87.970       24.145        0.075      334.234        4.073      868.657
11/17/2014  18:07:00       28.486       98.161      -12.827       27.226       37.841       24.574      741.232     1431.967      603.879        0.669        0.139      102.211       18.230        0.032      334.218        4.046      868.657
11/17/2014  18:08:00       20.627       87.344       -4.005       28.104       52.959       26.410      789.845     2804.665      697.477        0.618        0.215       89.746       30.573        0.116      334.155        3.942      868.656
11/17/2014  18:09:00       38.516      114.009      -20.738       31.333       41.785       22.141      981.753     1746.006      490.246        0.906        0.161      120.339       21.868        0.033      334.189        3.997      868.653
11/17/2014  18:10:00       40.240      107.112      -10.860       44.099       53.233       34.435     1944.693     2833.774     1185.756        0.959        0.298      114.421       31.903        0.078      334.143        3.921      868.655
11/17/2014  18:11:00       49.598      106.780      -12.699       32.455       38.789       25.371     1053.326     1504.581      643.685        0.861        0.160      117.737       21.526        0.033      334.161        3.950      868.653
11/17/2014  18:12:00       38.217       78.881       -4.581       37.317       50.936       30.247     1392.536     2594.513      914.887        0.630        0.245       87.652       30.401        0.120      334.097        3.845      868.656
11/17/2014  18:13:00       41.766      125.200      -18.210       30.747       30.867       24.392      945.368      952.777      594.970        1.012        0.125      131.983       22.228        0.028      334.091        3.833      868.639
11/17/2014  18:14:00       39.938       90.594       -6.713       34.521       31.730       25.210     1191.673     1006.793      635.530        0.634        0.142       99.007       20.673        0.044      334.078        3.813      868.643
11/17/2014  18:15:00       35.177       74.063       -0.404       35.485       46.129       30.806     1259.152     2127.885      948.979        0.553        0.217       81.992       28.858        0.124      334.042        3.754      868.640
11/17/2014  18:16:00       31.659       80.897        0.771       30.855       46.447       33.559      952.031     2157.321     1126.193        0.589        0.212       86.871       32.819        0.143      334.013        3.706      868.640
11/17/2014  18:17:00       40.250       81.876       -4.821       37.485       44.783       30.950     1405.106     2005.535      957.887        0.636        0.218       91.235       27.954        0.094      334.018        3.714      868.645
11/17/2014  18:18:00       40.593       59.101        2.617       39.600       30.499       29.152     1568.185      930.193      849.812        0.425        0.167       71.699       21.455        0.090      334.017        3.713      868.650
11/17/2014  18:19:00        9.808      116.391      -18.562       20.811       34.072       15.225      433.100     1160.911      231.807        0.791        0.091      116.804       16.249        0.019      333.984        3.659      868.658
11/17/2014  18:20:00       17.630      105.165      -17.452       19.293       20.103       10.450      372.201      404.139      109.212        0.628        0.044      106.633        7.173        0.005      333.939        3.583      868.667
11/17/2014  18:21:00       16.358       84.574      -16.840       16.623       28.232       14.144      276.315      797.071      200.054        0.449        0.064       86.141       13.165        0.023      333.924        3.558      868.658
11/17/2014  18:22:00       13.193       92.211      -16.731       18.190       35.622       12.066      330.867     1268.930      145.600        0.535        0.087       93.150       16.043        0.030      333.932        3.572      868.671
11/17/2014  18:23:00        0.945      134.261      -22.935       12.796       14.990        6.132      163.726      224.690       37.599        0.949        0.021      134.264        2.770        0.000      334.001        3.686      868.685
11/17/2014  18:24:00       -2.806      101.594      -18.322       10.128       16.717        6.602      102.567      279.453       43.587        0.555        0.021      101.633        5.884        0.003      333.995        3.675      868.682
11/17/2014  18:25:00       20.054       90.890      -13.953       11.147       13.014        6.682      124.255      169.355       44.655        0.460        0.017       93.076        6.313        0.005      333.968        3.633      868.697
11/17/2014  18:26:00        6.748       63.985      -11.677       12.244       10.440        9.255      149.912      108.994       85.661        0.231        0.017       64.340        6.250        0.009      333.969        3.636      868.701
11/17/2014  18:27:00        5.637       59.713      -13.691       10.436       13.204        6.671      108.906      174.350       44.502        0.206        0.016       59.979        6.918        0.013      333.969        3.631      868.712
11/17/2014  18:28:00        0.099       67.527      -11.009       14.352       20.808        7.910      205.978      432.974       62.572        0.269        0.035       67.527        7.779        0.013      334.029        3.732      868.719
11/17/2014  18:29:00       -6.524       63.653       -8.389       21.304       19.675        7.588      453.862      387.086       57.583        0.253        0.045       63.986        6.471        0.010      334.050        3.766      868.746
11/17/2014  18:30:00      -45.891        6.459      -11.039       20.709       15.462       12.042      428.863      239.064      145.019        0.154        0.041       46.343       10.743        0.054      333.661        3.123      868.758
11/17/2014  18:31:00      -66.403      -16.638       -7.024       15.885       14.757       11.423      252.337      217.783      130.488        0.267        0.030       68.456        8.358        0.015      333.624        3.061      868.773
11/17/2014  18:32:00      -90.991       -6.255      -10.900       25.811       15.620       14.721      666.220      244.000      216.715        0.478        0.056       91.206        9.889        0.012      333.441        2.756      868.781
11/17/2014  18:33:00      -93.194       -2.990      -11.286       23.421       16.383       14.513      548.548      268.413      210.619        0.492        0.051       93.242       13.171        0.020      333.390        2.673      868.782
11/17/2014  18:34:00     -100.363      -11.961      -16.593       16.133       14.901       10.587      260.259      222.052      112.088        0.554        0.030      101.073        6.389        0.004      333.306        2.533      868.799
11/17/2014  18:35:00      -76.729      -24.546      -13.712       18.277       19.046       11.624      334.055      362.765      135.120        0.375        0.042       80.560        7.461        0.009      333.287        2.502      868.808
11/17/2014  18:36:00     -103.381      -16.533      -14.915       20.723       13.775       12.811      429.445      189.752      164.130        0.598        0.039      104.694       12.015        0.013      333.330        2.574      868.816
11/17/2014  18:37:00     -122.343       -9.860      -14.880       21.679       21.925       14.858      469.963      480.699      220.756        0.823        0.059      122.739       10.764        0.008      333.300        2.524      868.825
11/17/2014  18:38:00     -106.204       -2.082      -17.201       42.728       28.570       25.329     1825.700      816.258      641.545        0.743        0.164      106.225       26.535        0.062      333.253        2.445      868.825
11/17/2014  18:39:00     -132.057       -9.576      -19.994       37.119       28.411       19.787     1377.785      807.197      391.544        1.025        0.129      132.403       19.179        0.021      333.223        2.396      868.823
11/17/2014  18:40:00      -83.515      -41.102      -16.413       25.655       19.056       14.950      658.154      363.138      223.495        0.509        0.062       93.082        9.172        0.010      333.150        2.277      868.817
11/17/2014  18:41:00      -45.591      -37.372       -0.453       25.041       25.132       15.177      627.032      631.610      230.337        0.248        0.074       58.951       11.321        0.037      333.167        2.305      868.812
11/17/2014  18:42:00      -90.930      -20.816      -13.460       20.788       18.927       13.703      432.130      358.246      187.781        0.493        0.049       93.282       12.733        0.019      333.110        2.210      868.809
11/17/2014  18:43:00      -93.111      -18.289      -14.169       30.853       21.197       15.924      951.904      449.303      253.560        0.543        0.083       94.890       17.091        0.032      333.140        2.259      868.810
11/17/2014  18:44:00      -71.996        1.012      -11.844       39.533       21.787       22.399     1562.862      474.695      501.720        0.393        0.127       72.003       20.548        0.081      333.212        2.380      868.807
11/17/2014  18:45:00      -72.041        0.322      -13.014       34.102       32.292       21.581     1162.951     1042.799      465.754        0.401        0.134       72.042       22.770        0.100      333.245        2.433      868.811
11/17/2014  18:46:00      -56.592       -3.582      -11.406       26.779       21.123       15.853      717.128      446.193      251.309        0.238        0.071       56.705       14.923        0.069      333.296        2.518      868.814
11/17/2014  18:47:00      -36.523      -11.184       -8.858       18.340       19.273        9.518      336.355      371.439       90.596        0.117        0.040       38.197        9.305        0.059      333.151        2.278      868.809
11/17/2014  18:48:00      -54.154       -5.027      -10.120       24.450       12.768       13.463      597.811      163.020      181.266        0.200        0.047       54.386       12.663        0.054      333.198        2.357      868.812
11/17/2014  18:49:00      -63.680       -8.704      -14.081       17.142       12.383        9.886      293.849      153.349       97.733        0.244        0.027       64.272        3.571        0.003      333.237        2.419      868.800
11/17/2014  18:50:00      -62.252      -10.331      -10.253       27.055       13.603       12.591      731.946      185.048      158.521        0.258        0.054       63.104       10.863        0.030      333.186        2.335      868.800
11/17/2014  18:51:00      -94.182       -0.975      -19.414       20.637       16.905       15.167      425.900      285.774      230.024        0.509        0.047       94.187       12.293        0.017      333.120        2.227      868.801
11/17/2014  18:52:00      -92.608       -6.120      -17.808       27.132       17.263       14.264      736.153      298.006      203.461        0.508        0.062       92.810       13.596        0.021      332.920        1.898      868.794
11/17/2014  18:53:00      -78.187       -8.004      -14.166       40.468       25.215       17.907     1637.674      635.810      320.647        0.449        0.130       78.596       18.452        0.055      332.993        2.018      868.798
11/17/2014  18:54:00     -117.637        1.927      -17.478       22.401       20.137       16.707      501.804      405.500      279.132        0.767        0.059      117.653       11.424        0.009      333.008        2.041      868.799
11/17/2014  18:55:00      -86.955       -5.709      -11.228       31.742       27.540       20.835     1007.550      758.467      434.090        0.496        0.110       87.142       17.127        0.039      333.056        2.120      868.808
11/17/2014  18:56:00     -105.131       -9.277      -16.371       26.323       23.685       14.178      692.894      560.998      201.029        0.643        0.073      105.539       10.648        0.010      333.066        2.138      868.808
11/17/2014  18:57:00      -91.878       -6.926      -15.699       24.760       25.283       16.401      613.079      639.226      268.980        0.513        0.076       92.139       13.558        0.022      333.160        2.293      868.803
11/17/2014  18:58:00      -70.394        1.325      -12.510       43.996       26.919       17.025     1935.665      724.616      289.834        0.403        0.148       70.406       18.467        0.069      333.219        2.390      868.808
11/17/2014  18:59:00      -74.215       -6.520       -9.742       42.307       18.989       17.354     1789.853      360.592      301.164        0.405        0.123       74.501       15.949        0.046      333.144        2.266      868.806
11/17/2014  19:00:00      -50.022       -5.762       -8.920       34.050       26.403       17.148     1159.403      697.110      294.040        0.238        0.108       50.353       18.190        0.131      333.178        2.323      868.813
11/17/2014  19:01:00      -71.901      -18.747       -5.245       34.278       23.761       15.730     1174.971      564.593      247.442        0.377        0.099       74.305       11.714        0.025      333.121        2.228      868.815
11/17/2014  19:02:00      -35.169      -16.763       -1.692       25.807       25.908       11.744      666.025      671.242      137.920        0.150        0.074       38.959       13.687        0.123      333.133        2.247      868.827
11/17/2014  19:03:00      -49.666       -9.768       -9.487       21.630       14.448        9.317      467.863      208.741       86.814        0.171        0.038       50.618        8.048        0.025      333.135        2.250      868.823
11/17/2014  19:04:00      -68.860      -20.291       -8.534       16.140       13.368       10.478      260.501      178.714      109.791        0.289        0.027       71.787        8.192        0.013      333.117        2.221      868.830
11/17/2014  19:05:00      -59.320      -27.132       -6.168       14.717       13.572       13.608      216.591      184.186      185.179        0.244        0.029       65.231        7.296        0.013      333.127        2.237      868.837
11/17/2014  19:06:00      -67.888      -24.778       -9.513       15.042       20.101       11.769      226.271      404.061      138.506        0.304        0.038       72.268       10.305        0.020      333.119        2.226      868.827
11/17/2014  19:07:00      -70.037      -16.335      -14.183       16.260       13.035       10.229      264.402      169.905      104.642        0.296        0.027       71.916        7.873        0.012      333.152        2.279      868.829
11/17/2014  19:08:00      -60.045      -22.866      -13.498       19.528       13.102       10.617      381.335      171.661      112.724        0.249        0.033       64.251        8.761        0.019      333.167        2.304      868.829
11/17/2014  19:09:00      -62.825      -20.945      -13.358       10.126        9.226        8.900      102.538       85.118       79.218        0.242        0.013       66.224        4.162        0.004      333.093        2.184      868.837
11/17/2014  19:10:00      -63.936      -28.355      -14.906       21.086       14.834       12.309      444.636      220.039      151.514        0.296        0.041       69.941        8.016        0.013      333.051        2.112      868.849
11/17/2014  19:11:00      -52.926      -24.080       -9.318       31.808       19.304       15.535     1011.775      372.641      241.347        0.255        0.081       58.146       12.368        0.045      333.049        2.109      868.853
11/17/2014  19:12:00      -70.177      -23.022      -19.072       13.417       16.874       15.178      180.012      284.742      230.385        0.326        0.035       73.857        2.342        0.001      332.967        1.975      868.864
11/17/2014  19:13:00      -26.129      -38.989        9.475       19.829       22.247       21.028      393.178      494.942      442.163        0.181        0.067       46.934       19.240        0.168      332.998        2.025      868.869
11/17/2014  19:14:00      -63.888      -43.172      -13.841       23.478       17.550       13.781      551.200      308.012      189.920        0.359        0.052       77.107        6.462        0.007      332.957        1.958      868.882
11/17/2014  19:15:00      -45.067      -50.863       -1.802       22.573       27.678       19.325      509.526      766.055      373.462        0.313        0.082       67.956       18.257        0.072      332.904        1.870      868.887
11/17/2014  19:16:00      -68.408      -18.545       -0.752       37.939       21.422       17.405     1439.361      458.885      302.917        0.361        0.110       70.877       17.836        0.063      332.819        1.731      868.895
11/17/2014  19:17:00      -90.612      -35.051      -16.884       17.687       21.625       12.057      312.832      467.619      145.366        0.532        0.046       97.155        4.930        0.003      332.836        1.759      868.914
11/17/2014  19:18:00     -103.840      -46.548      -11.272       19.482       15.922        9.398      379.547      253.523       88.316        0.690        0.036      113.796        7.389        0.004      332.832        1.751      868.924
11/17/2014  19:19:00      -70.454      -49.414       -1.155       31.514       26.330       15.561      993.135      693.277      242.140        0.467        0.096       86.055       16.666        0.038      332.809        1.714      868.934
11/17/2014  19:20:00      -61.549      -48.849       -5.430       24.003       21.121       14.260      576.136      446.089      203.337        0.371        0.061       78.578       12.887        0.027      332.870        1.815      868.959
11/17/2014  19:21:00      -47.480      -30.712        0.777       32.890       15.623       15.645     1081.752      244.071      244.765        0.238        0.079       56.547       19.774        0.122      332.873        1.821      868.966
11/17/2014  19:22:00      -43.348      -22.079        1.499       16.897        9.834        8.800      285.512       96.706       77.431        0.141        0.023       48.647        7.270        0.022      332.834        1.756      868.976
11/17/2014  19:23:00      -65.757      -21.949       -6.813       11.970        9.944        7.920      143.269       98.885       62.730        0.258        0.015       69.323        5.015        0.005      332.880        1.832      868.979
11/17/2014  19:24:00      -79.776      -32.131      -14.754        9.447       11.202       12.644       89.254      125.476      159.867        0.399        0.019       86.004        4.570        0.003      332.948        1.942      868.975
11/17/2014  19:25:00      -91.306      -43.103       -6.216       13.327       18.302       10.256      177.597      334.952      105.185        0.543        0.031      100.968        9.170        0.008      332.904        1.871      868.977
11/17/2014  19:26:00      -79.337      -43.202       -5.658       14.748       11.892        8.130      217.493      141.414       66.090        0.431        0.021       90.337        7.666        0.007      332.856        1.793      868.990
11/17/2014  19:27:00      -43.837      -25.187       -3.329       21.800       17.081       14.383      475.247      291.773      206.870        0.177        0.049       50.557       10.348        0.042      332.819        1.731      868.993
11/17/2014  19:28:00      -64.215      -37.019       -3.126       26.525       10.343       11.172      703.591      106.971      124.823        0.322        0.047       74.121       13.288        0.032      332.826        1.743      869.000
11/17/2014  19:29:00      -59.340      -32.143       -0.276       30.461       11.137       14.701      927.878      124.042      216.106        0.291        0.063       67.487       18.448        0.075      332.805        1.707      869.011
11/17/2014  19:30:00      -31.807      -22.689        4.465       20.507       15.244       13.740      420.531      232.368      188.775        0.119        0.042       39.070       12.544        0.103      332.803        1.705      869.016
11/17/2014  19:31:00      -80.877      -38.692       -8.686       11.958        8.336        9.119      142.993       69.489       83.154        0.420        0.015       89.656        4.968        0.003      332.874        1.822      869.006
11/17/2014  19:32:00      -75.339      -23.247      -12.301        9.119       12.958        8.942       83.154      167.912       79.962        0.335        0.017       78.844        6.525        0.007      332.895        1.857      869.003
11/17/2014  19:33:00      -72.494      -24.659       -8.007       11.320       13.173        7.793      128.147      173.524       60.731        0.314        0.018       76.573        5.926        0.006      332.995        2.020      869.006
11/17/2014  19:34:00      -74.128       -5.227      -12.442        9.455       12.348        8.252       89.392      152.464       68.089        0.299        0.015       74.312        6.406        0.007      332.919        1.896      869.002
11/17/2014  19:35:00      -88.150        5.893      -19.748       16.111       14.188        9.713      259.559      201.299       94.336        0.438        0.028       88.347        3.338        0.001      332.998        2.026      868.995
11/17/2014  19:36:00      -67.431      -27.057      -20.571       13.985       13.748        8.314      195.590      189.002       69.118        0.308        0.023       72.657        8.496        0.014      332.894        1.854      869.005
11/17/2014  19:37:00      -78.371       -4.843      -22.350       15.895       11.116        9.955      252.643      123.570       99.098        0.357        0.024       78.521        6.849        0.008      332.843        1.770      869.007
11/17/2014  19:38:00      -60.280      -20.295      -16.630       11.827       12.570        9.236      139.887      158.008       85.300        0.235        0.019       63.605        4.922        0.006      332.723        1.571      869.001
11/17/2014  19:39:00      -49.333      -21.781       -8.970       13.482        7.498        6.859      181.773       56.214       47.048        0.164        0.014       53.927        5.513        0.010      332.770        1.649      869.009
11/17/2014  19:40:00      -32.582      -15.001       -7.554       14.455       12.691        9.258      208.938      161.070       85.720        0.090        0.023       35.869        4.256        0.014      332.819        1.731      869.023
11/17/2014  19:41:00      -49.245       -5.796      -10.002       24.412       15.578       10.052      595.969      242.678      101.052        0.175        0.047       49.585        4.931        0.010      332.806        1.710      869.038
11/17/2014  19:42:00      -52.703       -6.246       -2.999       14.998       11.766       14.398      224.932      138.443      207.306        0.170        0.029       53.072        7.358        0.019      332.772        1.652      869.050
11/17/2014  19:43:00      -18.821       51.408       -9.963       15.960       28.360        9.203      254.726      804.315       84.689        0.212        0.057       54.744        8.684        0.025      333.254        2.450      869.053
11/17/2014  19:44:00      -14.467       50.695      -20.860       26.363       57.268       16.975      695.011     3279.657      288.152        0.374        0.213       52.719       27.148        0.265      333.236        2.418      869.065
11/17/2014  19:45:00      -36.915       23.808      -18.430       17.550       34.851       15.971      308.017     1214.559      255.082        0.202        0.089       43.926       20.197        0.211      333.131        2.244      869.072
11/17/2014  19:46:00      -17.790       10.149        3.243       19.445       18.982       16.034      378.106      360.325      257.098        0.071        0.050       20.481       14.467        0.499      333.102        2.197      869.080
11/17/2014  19:47:00      -22.489       78.972      -15.635       25.225       21.433       12.712      636.309      459.374      161.608        0.412        0.063       82.112        4.188        0.003      333.268        2.471      869.078
11/17/2014  19:48:00       -8.678       59.575       -9.104       27.048       24.364       15.610      731.592      593.612      243.669        0.264        0.078       60.204       11.160        0.034      333.163        2.298      869.089
11/17/2014  19:49:00       -2.742       84.247      -15.094       24.656       16.161       13.411      607.910      261.187      179.850        0.419        0.052       84.292       11.119        0.017      333.321        2.558      869.097
11/17/2014  19:50:00       -3.105       83.660       -7.973       24.685       18.504       10.042      609.360      342.394      100.838        0.406        0.053       83.718        6.699        0.006      333.192        2.345      869.096
11/17/2014  19:51:00      -33.747       50.541      -12.871       31.190       30.390       12.811      972.805      923.525      164.114        0.296        0.103       60.771       11.523        0.036      333.020        2.062      869.091
11/17/2014  19:52:00      -46.187       25.307      -12.907       19.480       44.362       13.003      379.453     1968.000      169.088        0.273        0.126       52.665       12.355        0.055      332.800        1.699      869.090
11/17/2014  19:53:00      -48.593       -5.530       -9.576       18.292       18.555       13.334      334.614      344.284      177.788        0.167        0.043       48.907        8.994        0.034      332.504        1.211      869.094
11/17/2014  19:54:00      -61.991       -8.804       -9.118       20.216       25.563       11.567      408.680      653.464      133.804        0.260        0.060       62.613        6.144        0.010      332.418        1.068      869.100
11/17/2014  19:55:00      -81.666       -5.080      -12.055       23.739       17.860       12.317      563.531      318.994      151.708        0.394        0.052       81.824       10.981        0.018      332.481        1.171      869.091
11/17/2014  19:56:00      -89.739       -6.411      -17.675       18.315       17.427       10.605      335.442      303.685      112.471        0.458        0.038       89.968        9.435        0.011      332.543        1.274      869.097
11/17/2014  19:57:00      -71.663      -10.339      -11.927       21.677       16.405       13.146      469.907      269.133      172.826        0.315        0.046       72.405       13.822        0.036      332.492        1.189      869.106
11/17/2014  19:58:00      -68.621       -6.132      -11.129       20.126       15.460       11.781      405.057      239.016      138.790        0.283        0.039       68.894        9.430        0.019      332.478        1.166      869.128
11/17/2014  19:59:00      -77.213       -2.231      -14.288       18.622       13.743       11.908      346.778      188.872      141.790        0.342        0.034       77.245        8.619        0.012      332.407        1.048      869.127
11/17/2014  20:00:00      -81.351      -13.492      -19.243       16.740       12.930       11.177      280.216      167.184      124.934        0.387        0.029       82.462        8.152        0.010      332.425        1.078      869.125
11/17/2014  20:01:00      -84.314       -7.497      -16.427       15.820       18.635       14.888      250.257      347.261      221.664        0.413        0.041       84.647        9.962        0.014      332.509        1.218      869.126
11/17/2014  20:02:00      -62.001      -10.813      -13.905       15.993       14.848       11.209      255.766      220.468      125.640        0.238        0.030       62.937        9.388        0.022      332.427        1.082      869.121
11/17/2014  20:03:00      -23.362        5.220       -7.552       22.365       23.523       13.164      500.173      553.345      173.281        0.093        0.061       23.938        9.296        0.151      332.760        1.632      869.104
11/17/2014  20:04:00      -31.507       20.147       -7.219       28.612       33.272       13.305      818.664     1107.037      177.021        0.178        0.105       37.398       10.775        0.083      332.903        1.869      869.092
11/17/2014  20:05:00      -16.912       -6.113       -0.364       23.335       20.138       12.173      544.534      405.537      148.174        0.071        0.055       17.983        8.391        0.218      332.788        1.679      869.085
11/17/2014  20:06:00      -24.795       12.050       -7.204       23.534       17.748       11.207      553.826      314.980      125.600        0.090        0.050       27.568       10.811        0.154      332.717        1.560      869.079
11/17/2014  20:07:00      -28.607        8.291       -7.578       33.570       15.787       18.266     1126.914      249.222      333.661        0.133        0.085       29.785       21.560        0.524      332.752        1.619      869.069
11/17/2014  20:08:00      -44.239        3.102      -15.538       20.438       11.180       10.636      417.712      125.001      113.135        0.143        0.033       44.348        9.036        0.042      332.364        0.979      869.070
11/17/2014  20:09:00      -43.902        5.165      -10.936       20.930       19.176       14.387      438.054      367.725      206.995        0.154        0.051       44.204        7.009        0.025      332.551        1.287      869.086
11/17/2014  20:10:00      -12.283       28.328       -1.182       24.000       27.088       14.549      575.985      733.752      211.682        0.124        0.076       30.876        8.076        0.068      332.956        1.956      869.101
11/17/2014  20:11:00      -31.615       41.160      -13.431       21.910       41.969       15.059      480.057     1761.419      226.785        0.267        0.123       51.901       13.147        0.064      332.873        1.820      869.105
11/17/2014  20:12:00       -8.265       69.271       -8.452       32.218       25.951       14.639     1037.979      673.466      214.292        0.343        0.096       69.762       12.320        0.031      333.188        2.338      869.107
11/17/2014  20:13:00       -2.197      107.984      -14.099       21.455       23.118       14.969      460.310      534.444      224.083        0.654        0.061      108.007       10.407        0.009      333.354        2.613      869.106
11/17/2014  20:14:00       -0.143      119.867      -21.517       20.567       20.584       13.901      423.011      423.713      193.226        0.794        0.052      119.867       10.593        0.008      333.217        2.386      869.096
11/17/2014  20:15:00       -1.549      117.836      -21.640       21.483       23.222       15.138      461.505      539.257      229.162        0.779        0.061      117.846       14.370        0.015      333.253        2.445      869.077
11/17/2014  20:16:00       -1.275      123.315      -19.283       34.164       22.534       16.130     1167.165      507.786      260.166        0.876        0.097      123.322       15.972        0.017      333.185        2.334      869.068
11/17/2014  20:17:00        0.975      109.085      -17.941       12.587       16.557        9.513      158.425      274.145       90.501        0.637        0.026      109.089        5.810        0.003      333.118        2.224      869.066
11/17/2014  20:18:00        4.703      105.206      -20.719       26.326       16.317        9.885      693.048      266.243       97.704        0.629        0.053      105.311        7.910        0.006      333.103        2.198      869.054
11/17/2014  20:19:00        3.995       99.217      -16.269       21.423       21.705       12.871      458.952      471.108      165.653        0.561        0.055       99.298        8.900        0.008      333.145        2.266      869.048
11/17/2014  20:20:00        7.429       84.509      -12.899       14.040       13.971       10.691      197.133      195.187      114.300        0.393        0.025       84.835        8.198        0.009      333.071        2.143      869.046
11/17/2014  20:21:00       -3.620       82.996      -10.906       20.023       19.927       11.732      400.920      397.078      137.646        0.398        0.047       83.074        9.215        0.012      333.102        2.197      869.056
11/17/2014  20:22:00       -6.166       98.977      -19.229       12.447       19.277        8.712      154.935      371.595       75.904        0.540        0.030       99.169        7.679        0.006      333.150        2.275      869.054
11/17/2014  20:23:00        3.470       97.215      -17.960       12.052       16.909       11.161      145.252      285.908      124.557        0.517        0.028       97.277        6.283        0.004      333.205        2.368      869.046
11/17/2014  20:24:00       10.179       91.288      -16.209       14.826       12.918        8.856      219.799      166.880       78.429        0.458        0.023       91.853        8.315        0.008      333.149        2.275      869.037
11/17/2014  20:25:00        5.765       94.349      -16.560       13.771       16.698       10.609      189.638      278.819      112.541        0.490        0.029       94.525        8.044        0.007      333.136        2.254      869.048
11/17/2014  20:26:00        0.434       86.147      -13.717       11.542       12.998        6.258      133.228      168.947       39.167        0.398        0.017       86.148        2.772        0.001      333.079        2.157      869.046
11/17/2014  20:27:00      -10.571       98.599      -15.990       12.636       17.470        8.073      159.671      305.203       65.169        0.531        0.027       99.164        4.062        0.002      333.151        2.278      869.035
11/17/2014  20:28:00        6.614       89.388       -9.086       20.145       21.697       13.551      405.805      470.774      183.637        0.459        0.053       89.632       11.435        0.016      333.073        2.149      869.050
11/17/2014  20:29:00        7.851       49.102       -1.650       26.853       33.666       14.460      721.087     1133.376      209.086        0.227        0.103       49.725       12.989        0.068      332.814        1.723      869.070
11/17/2014  20:30:00      -63.924       -8.440       -9.891       17.639       14.754       11.270      311.152      217.672      127.012        0.246        0.033       64.479       11.045        0.029      332.232        0.762      869.088
11/17/2014  20:31:00      -86.966        0.268      -13.779       15.447       11.631       10.164      238.605      135.287      103.311        0.411        0.024       86.966        6.364        0.005      332.095        0.535      869.112
11/17/2014  20:32:00      -91.961       -8.008      -17.740       26.384       19.452       15.728      696.114      378.361      247.378        0.508        0.066       92.309       12.044        0.017      332.110        0.561      869.131
11/17/2014  20:33:00      -77.885       -2.854      -10.240       28.989       20.515       17.366      840.366      420.853      301.574        0.387        0.078       77.937        9.880        0.016      332.174        0.665      869.157
11/17/2014  20:34:00      -87.871       -8.999      -14.968       26.195       20.754       12.690      686.198      430.722      161.033        0.465        0.064       88.331        4.337        0.002      332.118        0.574      869.174
11/17/2014  20:35:00      -59.379      -36.350       -7.248       15.545       17.217       15.866      241.659      296.436      251.738        0.284        0.039       69.621       10.491        0.023      332.109        0.558      869.171
11/17/2014  20:36:00      -62.674      -21.941       -5.241       20.130       19.040       13.895      405.199      362.538      193.064        0.270        0.048       66.404       11.139        0.028      332.104        0.548      869.169
11/17/2014  20:37:00      -73.234      -12.360      -15.126       21.051       21.974       11.768      443.144      482.864      138.488        0.340        0.053       74.269        8.637        0.014      332.156        0.635      869.161
11/17/2014  20:38:00      -76.010       -5.405      -14.642       10.089       12.074        7.696      101.779      145.773       59.230        0.316        0.015       76.202        5.057        0.004      332.142        0.611      869.172
11/17/2014  20:39:00      -61.050      -23.103      -10.000       12.719       15.865       11.357      161.774      251.683      128.987        0.245        0.027       65.275        6.168        0.009      332.182        0.678      869.166
11/17/2014  20:40:00      -53.315      -24.664      -13.343       21.853       18.766        9.740      477.569      352.167       94.861        0.228        0.046       58.743        7.452        0.016      332.182        0.678      869.153
11/17/2014  20:41:00      -73.025      -10.685      -17.474       10.372       16.763       16.357      107.586      281.004      267.554        0.320        0.033       73.803        4.860        0.004      332.113        0.566      869.151
11/17/2014  20:42:00      -57.677      -24.467      -15.655       18.594       13.515       15.422      345.755      182.654      237.853        0.247        0.038       62.652        8.410        0.018      332.095        0.535      869.159
11/17/2014  20:43:00      -48.495      -26.608       -6.658       18.979       18.065       15.269      360.191      326.343      233.153        0.201        0.046       55.315        6.324        0.013      332.023        0.417      869.159
11/17/2014  20:44:00      -54.377      -26.323      -16.266       15.345       14.759       10.185      235.459      217.816      103.732        0.224        0.028       60.414        8.305        0.019      332.078        0.508      869.151
11/17/2014  20:45:00      -31.838      -32.084       -7.940       19.235       13.406       20.831      370.002      179.709      433.918        0.154        0.049       45.200       14.182        0.098      331.998        0.375      869.155
11/17/2014  20:46:00      -17.416       -6.118      -15.563       23.878       16.566       11.994      570.165      274.427      143.865        0.079        0.049       18.459       11.607        0.395      332.211        0.727      869.165
11/17/2014  20:47:00       -2.039        2.138        0.989       13.865       10.674       11.516      192.240      113.935      132.608        0.022        0.022        2.955        7.749        6.878      332.490        1.186      869.174
11/17/2014  20:48:00        2.531      -11.799        1.413        8.856        7.966        5.564       78.430       63.465       30.959        0.016        0.009       12.067        4.385        0.132      332.534        1.258      869.172
11/17/2014  20:49:00       16.060       -3.283        0.276       13.983       11.776        6.259      195.536      138.669       39.174        0.032        0.019       16.392        4.950        0.091      332.645        1.441      869.170
11/17/2014  20:50:00      -18.316       -3.074       -2.377       16.196        9.060        6.015      262.325       82.086       36.177        0.037        0.019       18.572        6.350        0.117      332.337        0.934      869.174
11/17/2014  20:51:00      -11.690        3.932        1.372       20.145        8.501        4.795      405.807       72.261       22.994        0.033        0.025       12.334        2.593        0.044      332.327        0.917      869.178
11/17/2014  20:52:00       33.298       16.084        6.881       26.004       18.343       11.906      676.186      336.460      141.741        0.128        0.058       36.979        6.091        0.027      332.565        1.310      869.175
11/17/2014  20:53:00       22.962       36.149       -0.189       12.772       15.364        8.957      163.127      236.053       80.226        0.116        0.024       42.825        9.147        0.046      332.539        1.267      869.161
11/17/2014  20:54:00       21.953       17.984        2.974       13.509       13.595        8.276      182.494      184.829       68.498        0.062        0.022       28.379        5.738        0.041      332.451        1.123      869.146
11/17/2014  20:55:00       27.412       43.146       -3.391       22.099       22.789       13.607      488.366      519.360      185.142        0.191        0.060       51.117       13.679        0.072      332.461        1.139      869.131
11/17/2014  20:56:00       10.880       38.004       -3.160       22.284       16.828       13.519      496.566      283.198      182.762        0.127        0.048       39.530        7.087        0.032      332.372        0.992      869.114
11/17/2014  20:57:00       10.758       18.063       -4.181       11.208       17.077        8.923      125.616      291.627       79.625        0.048        0.025       21.024        8.790        0.175      332.416        1.063      869.103
11/17/2014  20:58:00       11.507       18.895       -3.431       12.508       16.910       10.571      156.446      285.938      111.741        0.053        0.028       22.123        8.765        0.157      332.347        0.948      869.089
11/17/2014  20:59:00       25.723       39.296       -1.357       15.883       17.786       12.209      252.264      316.347      149.058        0.146        0.036       46.967        9.599        0.042      332.363        0.977      869.084
11/17/2014  21:00:00        2.423       74.237      -15.453       24.952       23.912        8.015      622.616      571.791       64.242        0.351        0.063       74.276        6.854        0.009      332.417        1.066      869.079
11/17/2014  21:01:00      -23.285       99.481      -18.900       28.677       21.961       16.114      822.394      482.273      259.669        0.618        0.078      102.170       13.522        0.018      332.631        1.419      869.073
11/17/2014  21:02:00       18.753       92.612       -7.018       27.337       14.346       11.810      747.314      205.819      139.466        0.504        0.055       94.492        9.211        0.010      332.554        1.292      869.070
11/17/2014  21:03:00       18.483       74.598       -3.283       33.086       21.740       17.035     1094.663      472.615      290.197        0.389        0.093       76.854       14.960        0.038      332.492        1.188      869.070
11/17/2014  21:04:00       12.729       69.633      -10.029       22.119       29.918       13.320      489.242      895.098      177.425        0.334        0.078       70.787        6.320        0.008      332.505        1.211      869.087
11/17/2014  21:05:00       17.464       87.639      -11.066       13.611       24.223        8.972      185.268      586.757       80.501        0.448        0.043       89.362        6.240        0.005      332.630        1.417      869.092
11/17/2014  21:06:00       32.448       60.762       -9.740       13.532       19.577       16.302      183.111      383.268      265.743        0.284        0.042       68.883       15.217        0.049      332.449        1.119      869.087
11/17/2014  21:07:00       14.627       56.501       -7.440       11.898       12.708        7.755      141.553      161.501       60.137        0.191        0.018       58.364        7.870        0.018      332.428        1.083      869.087
11/17/2014  21:08:00       -4.476       67.371      -10.713       10.083       10.841        6.526      101.673      117.537       42.595        0.247        0.013       67.519        3.103        0.002      332.545        1.276      869.088
11/17/2014  21:09:00       -4.209       60.637      -10.565        5.820       11.532        5.398       33.869      132.993       29.133        0.200        0.010       60.783        1.764        0.001      332.607        1.380      869.086
11/17/2014  21:10:00       21.095       42.288       -1.919       14.008       25.724        9.980      196.228      661.748       99.602        0.160        0.048       47.258       11.989        0.064      332.512        1.222      869.079
11/17/2014  21:11:00       30.089       34.942       -0.754       20.474       26.184       12.907      419.198      685.601      166.585        0.170        0.064       46.112        8.520        0.034      332.454        1.126      869.073
11/17/2014  21:12:00       -4.564       -4.097       -2.388       19.087       10.552        6.377      364.316      111.349       40.663        0.028        0.026        6.133        5.371        0.767      332.337        0.933      869.074
11/17/2014  21:13:00      -36.235      -17.983       -6.507        6.335        7.258        5.099       40.130       52.682       25.999        0.090        0.006       40.452        4.185        0.011      332.111        0.562      869.082
11/17/2014  21:14:00      -47.548      -18.794       -6.860        9.963        9.986        6.305       99.257       99.723       39.755        0.145        0.012       51.128        4.131        0.007      331.961        0.313      869.089
11/17/2014  21:15:00      -45.639      -27.399       -6.859       15.545        8.833        7.444      241.643       78.018       55.410        0.163        0.019       53.232        3.840        0.005      331.995        0.370      869.100
11/17/2014  21:16:00      -45.864      -27.268       -8.206       18.278       10.442        7.604      334.084      109.037       57.821        0.171        0.025       53.357        7.071        0.018      332.006        0.387      869.097
11/17/2014  21:17:00      -58.245      -25.607      -10.584        9.629        6.679        5.683       92.721       44.603       32.301        0.216        0.008       63.626        2.370        0.001      331.941        0.282      869.094
11/17/2014  21:18:00      -50.079      -34.994       -8.617       21.061       11.443        9.965      443.578      130.952       99.294        0.224        0.034       61.094        6.182        0.010      331.734       -0.060      869.099
11/17/2014  21:19:00      -78.145      -44.266      -12.683       22.049       10.255        8.750      486.143      105.163       76.559        0.445        0.033       89.812        9.508        0.011      331.802        0.052      869.100
11/17/2014  21:20:00      -68.961      -45.661       -8.622       27.841       16.256       10.522      775.096      264.269      110.712        0.403        0.058       82.707        4.370        0.003      331.813        0.071      869.102
11/17/2014  21:21:00      -68.012      -35.825       -6.445       24.301       13.481       13.357      590.534      181.729      178.407        0.345        0.048       76.871        7.347        0.009      331.791        0.034      869.104
11/17/2014  21:22:00      -93.299      -42.297      -10.034       24.577       16.388        8.523      604.005      268.559       72.641        0.577        0.047      102.439        5.335        0.003      331.751       -0.033      869.108
11/17/2014  21:23:00     -120.309      -63.603       -5.888       30.351       21.910       18.861      921.183      480.031      355.754        1.016        0.088      136.087       14.699        0.012      331.701       -0.114      869.114
11/17/2014  21:24:00      -98.627      -49.922        2.689       28.751       24.530       17.210      826.631      601.716      296.178        0.698        0.086      110.542       17.520        0.025      331.610       -0.262      869.120
11/17/2014  21:25:00      -93.172      -51.085       -9.568       33.796       20.501       16.624     1142.153      420.285      276.347        0.661        0.092      106.258        7.446        0.005      331.670       -0.165      869.127
11/17/2014  21:26:00      -73.384      -42.225       -2.955       37.725       24.801       16.187     1423.198      615.112      262.003        0.474        0.115       84.665       14.404        0.029      331.632       -0.228      869.132
11/17/2014  21:27:00      -97.193      -44.401       -9.433       26.404       20.257       14.285      697.178      410.338      204.052        0.641        0.066      106.854       12.810        0.014      331.607       -0.268      869.135
11/17/2014  21:28:00      -99.685      -44.104      -13.091       16.475       18.699       10.956      271.430      349.635      120.027        0.640        0.037      109.005        6.397        0.003      331.578       -0.316      869.129
11/17/2014  21:29:00     -107.252      -62.754      -10.748       17.579       16.298       11.876      309.038      265.627      141.030        0.814        0.036      124.262        6.378        0.003      331.565       -0.337      869.123
11/17/2014  21:30:00     -106.312      -27.110       -8.135       28.924       27.932       20.247      836.622      780.208      409.942        0.706        0.101      109.714       15.554        0.020      331.603       -0.276      869.118
11/17/2014  21:31:00     -111.488      -33.202      -10.298       30.902       23.443       15.244      954.932      549.581      232.380        0.769        0.087      116.327       13.384        0.013      331.615       -0.255      869.121
11/17/2014  21:32:00      -62.561      -47.484       -6.833       27.557       27.749       19.723      759.386      770.000      388.981        0.407        0.096       78.540       12.158        0.024      331.557       -0.352      869.117
11/17/2014  21:33:00      -39.618      -48.113       -6.512       27.780       28.104       16.555      771.701      789.833      274.071        0.288        0.092       62.325       11.131        0.032      331.569       -0.332      869.106
11/17/2014  21:34:00      -35.975      -24.059        1.270       27.617       18.247       17.450      762.688      332.949      304.498        0.164        0.070       43.278       17.895        0.171      331.555       -0.355      869.085
11/17/2014  21:35:00      -69.935      -36.851       -9.533       40.502       17.943       13.765     1640.445      321.966      189.485        0.425        0.108       79.050        8.826        0.012      331.512       -0.427      869.075
11/17/2014  21:36:00      -87.652      -24.943      -11.802       25.820       20.379       13.247      666.684      415.305      175.476        0.485        0.063       91.132       11.308        0.015      331.543       -0.374      869.067
11/17/2014  21:37:00      -79.209      -18.799      -16.350       18.816       24.497       12.188      354.033      600.089      148.535        0.400        0.055       81.410       11.998        0.022      331.641       -0.213      869.058
11/17/2014  21:38:00      -75.251      -34.774      -14.911       20.587       19.517       13.917      423.844      380.902      193.691        0.405        0.050       82.897        5.049        0.004      331.614       -0.257      869.057
11/17/2014  21:39:00      -62.777      -38.790      -10.044       14.605       15.492       10.230      213.297      240.004      104.658        0.305        0.028       73.795        6.407        0.008      331.494       -0.455      869.050
11/17/2014  21:40:00      -49.650      -10.979       -4.083       28.448       16.318       13.826      809.290      266.276      191.154        0.193        0.063       50.850        9.864        0.038      331.504       -0.439      869.056
11/17/2014  21:41:00      -82.807       -5.307      -12.682       13.943       15.506       16.226      194.404      240.447      263.295        0.387        0.035       82.976        3.566        0.002      331.479       -0.480      869.078
11/17/2014  21:42:00      -51.766      -20.983       -2.532       29.296       16.103       19.489      858.271      259.293      379.810        0.231        0.075       55.857       19.762        0.125      331.481       -0.477      869.094
11/17/2014  21:43:00      -28.067      -35.779        0.107       34.342       21.925       16.191     1179.365      480.705      262.148        0.199        0.096       45.474       18.241        0.161      331.438       -0.548      869.102
11/17/2014  21:44:00     -113.811      -35.738      -11.459       15.143       15.961       10.951      229.296      254.742      119.929        0.748        0.030      119.290        4.669        0.002      331.417       -0.581      869.099
11/17/2014  21:45:00      -93.816      -47.866       -6.523       13.389       18.727        9.964      179.259      350.712       99.274        0.588        0.031      105.321        5.417        0.003      331.481       -0.476      869.111
11/17/2014  21:46:00     -106.942      -41.993      -17.274       18.476       15.080        8.693      341.347      227.404       75.575        0.707        0.032      114.891        7.341        0.004      331.449       -0.529      869.118
11/17/2014  21:47:00     -107.348      -20.943       -8.026       22.247       19.606       14.782      494.939      384.408      218.503        0.656        0.055      109.372       12.139        0.012      331.478       -0.481      869.108
11/17/2014  21:48:00     -104.992      -33.389      -10.253       21.755       19.625       12.814      473.286      385.141      164.186        0.663        0.051      110.173        8.328        0.006      331.437       -0.549      869.106
11/17/2014  21:49:00     -135.305      -28.562       -8.734       25.300       25.681       15.507      640.069      659.536      240.479        1.037        0.077      138.286       13.348        0.009      331.390       -0.625      869.104
11/17/2014  21:50:00     -105.472      -44.077       -7.752       34.649       27.516       16.929     1200.521      757.103      286.604        0.769        0.112      114.311       18.315        0.026      331.377       -0.648      869.106
11/17/2014  21:51:00     -113.014      -35.292       -7.182       24.042       28.699       16.499      578.037      823.632      272.214        0.787        0.084      118.397       13.903        0.014      331.352       -0.687      869.104
11/17/2014  21:52:00     -114.657      -41.085       -8.671       28.568       29.234       15.104      816.140      854.628      228.146        0.840        0.095      121.795       10.426        0.007      331.415       -0.586      869.098
11/17/2014  21:53:00     -124.995      -57.946      -15.964       17.788       17.728       18.527      316.400      314.297      343.246        1.011        0.049      137.774       11.343        0.007      331.363       -0.669      869.097
11/17/2014  21:54:00     -108.050      -45.802       -2.332       37.825       26.529       16.806     1430.707      703.792      282.438        0.810        0.121      117.356       14.019        0.014      331.335       -0.715      869.095
11/17/2014  21:55:00      -95.720      -40.438       -5.471       50.351       21.893       18.767     2535.247      479.292      352.186        0.710        0.168      103.911       19.311        0.035      331.335       -0.715      869.093
11/17/2014  21:56:00     -100.606      -60.650       -2.436       30.869       25.139       16.888      952.882      631.953      285.200        0.784        0.094      117.473       15.930        0.018      331.396       -0.617      869.095
11/17/2014  21:57:00      -70.686      -35.438        2.338       49.869       26.841       18.272     2486.947      720.420      333.852        0.490        0.177       79.072       20.322        0.066      331.398       -0.612      869.095
11/17/2014  21:58:00      -67.784      -48.673        2.557       40.957       31.155       20.859     1677.510      970.654      435.078        0.503        0.154       83.449       23.169        0.077      331.368       -0.662      869.107
11/17/2014  21:59:00     -109.657      -49.178       -2.534       42.401       24.331       18.442     1797.813      591.989      340.099        0.859        0.136      120.179       17.532        0.021      331.354       -0.686      869.098
11/17/2014  22:00:00      -98.630      -57.043       -2.674       36.878       23.221       18.889     1360.015      539.211      356.782        0.762        0.113      113.938       15.510        0.019      331.340       -0.708      869.085
11/17/2014  22:01:00     -121.054      -61.897      -13.508       23.732       20.917       14.234      563.229      437.505      202.607        0.994        0.060      135.961        7.888        0.003      331.342       -0.706      869.071
11/17/2014  22:02:00     -103.778      -60.561      -13.133       23.354       16.146       17.498      545.395      260.682      306.167        0.786        0.056      120.156       13.961        0.013      331.328       -0.728      869.068
11/17/2014  22:03:00     -127.541      -34.914      -17.503       21.281       22.107       14.126      452.874      488.720      199.554        0.947        0.057      132.233        5.199        0.002      331.324       -0.734      869.061
11/17/2014  22:04:00     -132.669      -38.675       -8.251       15.920       18.295       15.173      253.438      334.708      230.206        0.999        0.041      138.192        9.523        0.005      331.284       -0.800      869.047
11/17/2014  22:05:00     -113.416      -52.144      -17.849       17.257       15.882       10.949      297.815      252.228      119.873        0.829        0.033      124.829        7.751        0.004      331.249       -0.857      869.047
11/17/2014  22:06:00      -96.619      -48.615      -16.280       22.178       21.416       16.070      491.850      458.625      258.252        0.659        0.060      108.161       11.051        0.010      331.262       -0.835      869.054
11/17/2014  22:07:00     -101.226      -44.813      -15.020       18.274       21.768       14.764      333.924      473.855      217.973        0.675        0.051      110.702       10.036        0.008      331.261       -0.836      869.046
11/17/2014  22:08:00     -105.030      -45.585      -17.150       19.448       22.075       14.361      378.238      487.324      206.229        0.724        0.054      114.495        8.102        0.005      331.209       -0.923      869.041
11/17/2014  22:09:00      -96.151      -44.872       -6.542       26.795       16.719       20.630      717.989      279.519      425.589        0.636        0.071      106.106       16.904        0.025      331.180       -0.971      869.041
11/17/2014  22:10:00     -103.985      -38.677      -16.128       19.440       20.123       17.825      377.919      404.946      317.737        0.683        0.055      110.945       11.938        0.012      331.159       -1.004      869.035
11/17/2014  22:11:00     -114.700      -63.841      -15.295       16.396       20.554       12.871      268.835      422.468      165.660        0.916        0.043      131.270        9.193        0.005      331.080       -1.138      869.015
11/17/2014  22:12:00     -124.490      -56.405      -20.192        8.273       20.398        9.585       68.438      416.094       91.873        0.983        0.029      136.672        9.065        0.004      331.052       -1.182      869.004
11/17/2014  22:13:00     -143.530      -44.658      -17.116       16.159       15.136       14.015      261.122      229.113      196.427        1.179        0.034      150.317        7.962        0.003      331.030       -1.218      869.000
11/17/2014  22:14:00     -139.834      -41.955      -18.009       14.837       18.852       13.859      220.150      355.394      192.074        1.120        0.038      145.992        5.299        0.001      331.049       -1.186      869.001
11/17/2014  22:15:00     -139.012      -48.762      -17.750       18.023       18.555       14.224      324.826      344.292      202.320        1.144        0.044      147.316       11.052        0.006      331.141       -1.036      868.996
11/17/2014  22:16:00     -147.208      -45.975       -9.122       21.599       17.474       13.912      466.518      305.340      193.542        1.242        0.048      154.220       11.818        0.006      331.209       -0.923      868.993
11/17/2014  22:17:00     -112.991      -29.219       -5.592       33.733       20.659       16.799     1137.920      426.785      282.208        0.775        0.092      116.707       16.553        0.020      331.186       -0.961      868.998
11/17/2014  22:18:00     -132.870      -22.052       -6.135       26.014       21.951       16.796      676.705      481.844      282.098        0.981        0.072      134.688       14.426        0.011      331.256       -0.845      868.998
11/17/2014  22:19:00     -125.637      -30.706       -6.170       29.929       21.971       16.687      895.734      482.729      278.454        0.921        0.083      129.335       16.191        0.016      331.225       -0.896      868.998
11/17/2014  22:20:00     -129.963      -30.603      -16.236       18.370       22.335       13.221      337.458      498.872      174.793        0.955        0.051      133.517        8.347        0.004      331.254       -0.849      868.990
11/17/2014  22:21:00     -145.758      -37.711      -11.620       20.781       19.537       16.217      431.871      381.709      262.978        1.194        0.054      150.557       12.757        0.007      331.150       -1.022      868.981
11/17/2014  22:22:00     -141.970      -54.584      -11.522       17.107       18.074       10.795      292.665      326.682      116.526        1.200        0.037      152.101        5.886        0.001      331.058       -1.172      868.978
11/17/2014  22:23:00     -124.610      -29.082       -9.111       18.889       23.786       16.717      356.800      565.794      279.451        0.883        0.060      127.959       11.349        0.008      331.029       -1.220      868.980
11/17/2014  22:24:00     -121.872      -42.337      -18.699       20.467       15.359       13.133      418.907      235.903      172.465        0.891        0.041      129.017        9.199        0.005      330.992       -1.280      868.971
11/17/2014  22:25:00     -112.156      -50.696       -7.817       14.770       16.571       11.656      218.139      274.598      135.861        0.792        0.031      123.081        7.042        0.003      330.999       -1.268      868.952
11/17/2014  22:26:00      -83.835      -39.473      -14.871       12.987       15.306       11.830      168.654      234.272      139.945        0.468        0.027       92.663       10.076        0.012      330.969       -1.319      868.940
11/17/2014  22:27:00      -69.711      -43.738      -13.816       21.252       25.239       12.492      451.645      636.982      156.054        0.410        0.062       82.296        4.139        0.003      330.998       -1.270      868.934
11/17/2014  22:28:00      -49.858      -30.651       -5.129       21.963       25.799       10.857      482.388      665.601      117.866        0.236        0.063       58.526        8.373        0.020      331.032       -1.214      868.918
11/17/2014  22:29:00      -41.569      -27.654       -1.067       29.425       14.628       13.070      865.806      213.982      170.834        0.187        0.063       49.927       15.921        0.102      330.965       -1.324      868.900
11/17/2014  22:30:00      -65.171      -37.954      -11.012       11.548       12.712        9.899      133.360      161.607       97.996        0.310        0.020       75.417        5.562        0.005      330.989       -1.284      868.885
11/17/2014  22:31:00      -70.059      -30.162      -11.816       13.442       11.037       10.249      180.692      121.811      105.032        0.318        0.020       76.276        7.167        0.009      330.952       -1.345      868.880
11/17/2014  22:32:00      -83.959      -30.558      -13.224       14.220        8.069        8.222      202.203       65.116       67.605        0.425        0.017       89.347        5.636        0.004      330.954       -1.342      868.886
11/17/2014  22:33:00      -68.702      -26.037      -15.900        9.336        8.683        7.800       87.162       75.397       60.832        0.294        0.011       73.471        5.633        0.006      330.948       -1.351      868.892
11/17/2014  22:34:00      -52.691      -32.911      -16.129        7.811        9.310        5.666       61.009       86.674       32.106        0.215        0.009       62.125        2.243        0.001      330.966       -1.323      868.883
11/17/2014  22:35:00      -63.272      -31.137      -15.152        8.644       10.129        8.040       74.716      102.589       64.638        0.272        0.012       70.518        4.965        0.005      330.975       -1.309      868.874
11/17/2014  22:36:00      -85.219      -27.914      -16.579       12.406        9.768        8.558      153.905       95.417       73.231        0.432        0.016       89.674        6.083        0.005      330.972       -1.312      868.867
11/17/2014  22:37:00      -46.488      -22.583       -9.731       30.344       14.183       11.288      920.748      201.149      127.410        0.201        0.062       51.682       11.208        0.047      331.013       -1.247      868.856
11/17/2014  22:38:00      -25.742      -21.807        5.980       29.983       19.734       17.458      898.964      389.441      304.772        0.138        0.080       33.737       16.858        0.250      330.979       -1.302      868.854
11/17/2014  22:39:00      -95.564      -33.980      -11.225       25.701       19.833       14.546      660.565      393.346      211.588        0.584        0.063      101.426       16.947        0.028      330.897       -1.435      868.853
11/17/2014  22:40:00     -113.705      -17.178      -11.742       14.766       14.185       11.074      218.021      201.213      122.624        0.695        0.027      114.995        7.560        0.004      330.891       -1.446      868.843
11/17/2014  22:41:00      -83.284      -31.156       -8.251       17.836       15.316       12.262      318.125      234.566      150.366        0.434        0.035       88.921        6.525        0.005      330.972       -1.314      868.837
11/17/2014  22:42:00      -79.182      -20.617       -5.971       18.874       14.800       11.947      356.217      219.033      142.721        0.372        0.036       81.822        9.807        0.014      330.968       -1.320      868.836
11/17/2014  22:43:00      -74.719      -19.632       -4.093       20.257       16.880       12.134      410.359      284.951      147.242        0.341        0.042       77.255       12.269        0.025      330.963       -1.326      868.829
11/17/2014  22:44:00      -92.120      -18.948       -6.556       19.955       15.005       12.259      398.208      225.153      150.275        0.483        0.039       94.048       10.746        0.013      330.952       -1.346      868.834
11/17/2014  22:45:00      -70.547      -18.525       -1.674       20.038       12.956       11.228      401.516      167.861      126.068        0.301        0.035       72.939        8.845        0.015      331.015       -1.242      868.839
11/17/2014  22:46:00      -65.400      -19.722       -9.535       18.476       14.908       10.415      341.366      222.262      108.479        0.271        0.034       68.309       10.040        0.022      331.021       -1.234      868.842
11/17/2014  22:47:00      -83.752      -19.839      -11.618       13.041       13.245        9.839      170.071      175.423       96.807        0.399        0.022       86.070        5.903        0.005      331.059       -1.169      868.836
11/17/2014  22:48:00      -76.684      -37.159       -7.705       13.124       17.047        8.872      172.235      290.603       78.706        0.393        0.027       85.213        3.981        0.002      331.054       -1.179      868.836
11/17/2014  22:49:00      -81.938      -44.123       -1.845       24.468       19.940       14.825      598.675      397.600      219.785        0.494        0.061       93.062       14.358        0.024      330.979       -1.302      868.838
11/17/2014  22:50:00      -79.395      -42.045        3.606       47.375       26.192       15.217     2244.357      685.998      231.568        0.562        0.158       89.841       23.977        0.071      330.901       -1.430      868.840
11/17/2014  22:51:00      -40.405      -30.756        8.839       34.613       25.390       19.019     1198.031      644.649      361.705        0.243        0.110       50.779       17.302        0.116      330.780       -1.627      868.849
11/17/2014  22:52:00      -47.008      -25.397        6.481       38.422       25.522       21.986     1476.269      651.359      483.373        0.275        0.131       53.429       23.485        0.193      330.745       -1.684      868.861
11/17/2014  22:53:00      -84.824      -51.200        3.493       36.319       26.051       19.302     1319.039      678.653      372.563        0.610        0.119       99.079       19.321        0.038      330.784       -1.620      868.874
11/17/2014  22:54:00      -82.000      -54.757        2.834       41.414       25.387       25.302     1715.147      644.503      640.184        0.636        0.150       98.602       26.143        0.070      330.771       -1.643      868.881
11/17/2014  22:55:00      -47.643      -47.184        4.497       51.426       33.000       22.783     2644.612     1088.967      519.047        0.438        0.213       67.053       25.764        0.148      330.744       -1.687      868.891
11/17/2014  22:56:00     -103.530      -56.609        2.166       43.222       34.005       22.191     1868.120     1156.310      492.450        0.872        0.176      117.995       21.398        0.033      330.731       -1.708      868.905
11/17/2014  22:57:00     -106.367      -56.696        3.058       35.719       29.247       17.203     1275.836      855.411      295.951        0.848        0.121      120.534       13.651        0.013      330.829       -1.547      868.917
11/17/2014  22:58:00      -79.541      -43.761        8.777       48.911       27.500       22.430     2392.300      756.270      503.087        0.598        0.183       90.784       21.226        0.055      330.776       -1.636      868.921
11/17/2014  22:59:00      -75.913      -44.205        7.977       46.720       28.466       23.799     2182.712      810.308      566.399        0.567        0.178       87.846       14.912        0.029      330.773       -1.640      868.922
11/17/2014  23:00:00     -109.895      -49.271       -0.443       42.906       20.821       20.957     1840.941      433.535      439.179        0.861        0.136      120.435       22.174        0.034      330.790       -1.612      868.924
11/17/2014  23:01:00      -80.595      -44.107        1.322       47.598       25.820       20.584     2265.544      666.658      423.691        0.590        0.168       91.875       24.800        0.073      330.710       -1.744      868.938
11/17/2014  23:02:00      -47.882      -36.916       10.093       44.577       24.312       22.689     1987.068      591.076      514.795        0.342        0.155       60.461       19.086        0.100      330.684       -1.785      868.945
11/17/2014  23:03:00     -104.662      -63.245      -11.199       34.884       30.783       16.887     1216.895      947.598      285.174        0.876        0.122      122.287       14.803        0.015      330.724       -1.721      868.941
11/17/2014  23:04:00      -65.750      -50.952        2.958       46.605       33.817       21.821     2172.023     1143.609      476.148        0.536        0.190       83.181       20.543        0.061      330.654       -1.834      868.933
11/17/2014  23:05:00     -101.299      -66.492      -10.095       30.445       25.401       14.824      926.906      645.218      219.742        0.829        0.090      121.172       11.127        0.008      330.733       -1.707      868.920
11/17/2014  23:06:00      -95.225      -65.107      -10.707       41.245       24.240       15.392     1701.179      587.579      236.925        0.797        0.126      115.355       16.892        0.021      330.719       -1.729      868.913
11/17/2014  23:07:00      -81.899      -74.808       -9.442       37.371       24.356       18.698     1396.562      593.206      349.614        0.737        0.117      110.922       13.581        0.015      330.693       -1.771      868.908
11/17/2014  23:08:00     -135.058      -42.556       -9.502       27.956       17.997       13.349      781.546      323.889      178.188        1.071        0.064      141.604        8.614        0.004      330.616       -1.897      868.892
11/17/2014  23:09:00     -108.350      -40.588       -3.522       26.825       28.186       16.201      719.555      794.452      262.468        0.759        0.089      115.703       12.819        0.012      330.627       -1.879      868.878
11/17/2014  23:10:00     -132.238      -47.820      -13.192       20.069       15.287       13.238      402.748      233.685      175.257        1.038        0.041      140.619        7.964        0.003      330.551       -2.003      868.870
11/17/2014  23:11:00     -101.253      -29.025      -14.927       18.970       26.871       13.775      359.850      722.049      189.762        0.629        0.064      105.331        7.213        0.005      330.688       -1.779      868.870
11/17/2014  23:12:00      -76.784      -15.780       -7.976       29.532       25.061       15.532      872.164      628.057      241.257        0.397        0.087       78.389       12.268        0.024      330.676       -1.799      868.862
11/17/2014  23:13:00      -25.232      -30.631       -1.377       28.064       16.492       16.177      787.589      271.982      261.685        0.145        0.066       39.685       15.392        0.150      330.601       -1.921      868.854
11/17/2014  23:14:00       -7.458       -6.385        0.871       12.789       14.399        7.929      163.550      207.325       62.862        0.027        0.022        9.818        6.162        0.394      330.672       -1.807      868.852
11/17/2014  23:15:00      -57.526       -4.666       -4.192       22.537       15.276       13.504      507.898      233.351      182.355        0.214        0.046       57.715        7.406        0.016      330.971       -1.314      868.852
11/17/2014  23:16:00      -50.087      -17.110       -5.567       12.073       12.131        8.543      145.756      147.159       72.990        0.160        0.018       52.929        5.737        0.012      330.809       -1.581      868.847
11/17/2014  23:17:00      -50.055      -25.812       -9.585       15.360       13.457       13.021      235.925      181.078      169.545        0.192        0.029       56.318        6.028        0.011      330.709       -1.745      868.850
11/17/2014  23:18:00      -47.783      -25.897      -11.338       13.892       11.251        9.196      192.985      126.593       84.568        0.174        0.020       54.349        8.087        0.022      330.701       -1.756      868.858
11/17/2014  23:19:00      -27.449      -26.028       -0.151       19.243       11.242        9.423      370.284      126.393       88.802        0.101        0.029       37.828        4.601        0.015      330.681       -1.792      868.868
11/17/2014  23:20:00      -48.677      -22.009      -12.429        9.184       10.965        7.526       84.351      120.223       56.640        0.163        0.013       53.421        4.018        0.006      330.707       -1.748      868.882
11/17/2014  23:21:00      -38.001      -21.465       -9.891       10.603        8.718       10.154      112.427       76.002      103.101        0.115        0.015       43.644        2.979        0.005      330.672       -1.805      868.897
11/17/2014  23:22:00      -58.159      -25.998      -16.130        9.636        8.486        5.243       92.846       72.011       27.491        0.226        0.010       63.705        3.539        0.003      330.546       -2.014      868.908
11/17/2014  23:23:00      -83.859       -8.153      -16.115       11.320        8.060        8.503      128.141       64.959       72.293        0.381        0.013       84.255        2.360        0.001      330.492       -2.102      868.918
11/17/2014  23:24:00      -85.548      -15.501      -18.576        9.692       10.384        9.148       93.936      107.835       83.681        0.409        0.014       86.941        4.264        0.002      330.550       -2.006      868.926
11/17/2014  23:25:00     -105.934       -4.930      -17.727       13.949       13.074       11.407      194.580      170.941      130.120        0.603        0.025      106.049        4.845        0.002      330.481       -2.119      868.938
11/17/2014  23:26:00      -82.952      -13.894      -11.273       18.115       14.549       14.052      328.138      211.661      197.454        0.397        0.037       84.108       13.676        0.026      330.392       -2.265      868.938
11/17/2014  23:27:00      -58.013      -34.730      -14.317       16.983       16.253       11.179      288.437      264.157      124.980        0.273        0.034       67.614        8.630        0.016      330.457       -2.159      868.934
11/17/2014  23:28:00      -68.108      -23.488      -11.676       17.679       15.550       12.846      312.550      241.815      165.022        0.302        0.036       72.044        9.478        0.017      330.419       -2.219      868.924
11/17/2014  23:29:00      -65.731      -22.275      -18.114       11.199       10.331        8.998      125.419      106.733       80.972        0.273        0.016       69.403        4.386        0.004      330.423       -2.213      868.914
11/17/2014  23:30:00      -62.751      -22.884      -17.967       11.941       15.027        9.465      142.592      225.805       89.594        0.262        0.023       66.793        4.187        0.004      330.559       -1.989      868.907
11/17/2014  23:31:00      -34.526      -26.762      -10.627       29.640       15.530       19.465      878.505      241.176      378.868        0.176        0.075       43.683       16.827        0.148      330.494       -2.097      868.909
11/17/2014  23:32:00      -19.344      -28.196        1.853       22.524       17.919       19.341      507.331      321.086      374.061        0.119        0.060       34.194       16.536        0.234      330.460       -2.153      868.921
11/17/2014  23:33:00      -50.102      -33.757      -14.854       22.542       15.999       12.770      508.130      255.978      163.066        0.240        0.046       60.413       10.265        0.029      330.482       -2.118      868.928
11/17/2014  23:34:00      -56.464      -32.786       -6.714       13.345       14.548       10.777      178.097      211.639      116.144        0.241        0.025       65.293        5.570        0.007      330.437       -2.193      868.924
11/17/2014  23:35:00      -55.840      -26.191       -8.579        9.209       10.445       10.088       84.813      109.092      101.765        0.209        0.015       61.677        5.562        0.008      330.464       -2.146      868.920
11/17/2014  23:36:00      -45.269      -19.104      -13.850       15.543       10.135        7.420      241.595      102.710       55.055        0.150        0.020       49.135        5.137        0.011      330.499       -2.089      868.910
11/17/2014  23:37:00      -61.198      -22.376      -10.622       12.504       12.973        7.074      156.359      168.311       50.039        0.237        0.019       65.161        5.952        0.008      330.443       -2.182      868.904
11/17/2014  23:38:00      -69.588      -23.826      -14.544        9.331       10.762        8.977       87.066      115.818       80.590        0.295        0.014       73.554        3.808        0.003      330.446       -2.176      868.909
11/17/2014  23:39:00      -74.348      -26.154      -14.726       15.932       15.543       13.036      253.826      241.599      169.926        0.355        0.033       78.814       11.260        0.020      330.520       -2.054      868.906
11/17/2014  23:40:00      -79.184      -21.320      -17.319       20.078       15.109       10.804      403.117      228.284      116.719        0.389        0.037       82.004        4.895        0.004      330.454       -2.164      868.901
11/17/2014  23:41:00      -82.932      -18.166       -7.924       17.293       24.628       12.429      299.032      606.556      154.472        0.417        0.053       84.898        9.281        0.012      330.493       -2.100      868.882
11/17/2014  23:42:00      -78.051      -24.952      -19.873       16.276       15.325       16.986      264.908      234.858      288.513        0.395        0.039       81.942        6.893        0.007      330.477       -2.125      868.871
11/17/2014  23:43:00      -59.347      -31.143      -11.253       35.336       19.655       18.331     1248.604      386.323      336.010        0.329        0.099       67.022       16.565        0.061      330.472       -2.132      868.856
11/17/2014  23:44:00      -92.557      -16.005      -16.766       19.577       17.615       14.017      383.264      310.292      196.470        0.500        0.045       93.931        7.001        0.006      330.447       -2.174      868.848
11/17/2014  23:45:00     -103.627      -28.735      -21.010       18.465       19.661       14.072      340.975      386.539      198.033        0.647        0.046      107.537        8.510        0.006      330.351       -2.331      868.837
11/17/2014  23:46:00      -76.647      -40.485      -13.032       31.765       23.942       24.492     1009.010      573.231      599.856        0.493        0.109       86.682       12.220        0.020      330.331       -2.364      868.826
11/17/2014  23:47:00     -104.217      -43.462      -12.879       15.066       18.491       13.921      226.984      341.934      193.781        0.684        0.038      112.916        8.065        0.005      330.282       -2.445      868.817
11/17/2014  23:48:00      -80.367      -48.224       -8.921       29.920       18.748       13.703      895.204      351.491      187.770        0.515        0.072       93.725       14.223        0.023      330.275       -2.457      868.804
11/17/2014  23:49:00      -93.442      -45.784      -21.927       19.328       16.923       13.206      373.572      286.385      174.386        0.607        0.042      104.056        9.127        0.008      330.305       -2.406      868.790
11/17/2014  23:50:00      -73.632      -34.230      -11.333       31.125       21.340       14.053      968.742      455.380      197.495        0.417        0.081       81.199       13.611        0.028      330.339       -2.352      868.786
11/17/2014  23:51:00      -80.367      -23.812        1.454       47.239       22.628       16.850     2231.498      512.018      283.912        0.503        0.151       83.821       19.527        0.054      330.161       -2.642      868.776
11/17/2014  23:52:00      -99.948      -30.816      -15.889       30.278       22.083       14.632      916.729      487.662      214.101        0.640        0.081      104.590       11.395        0.012      330.255       -2.488      868.751
11/17/2014  23:53:00     -114.346      -36.261      -14.000       24.476       25.167       17.795      599.082      633.362      316.657        0.807        0.077      119.958        7.855        0.004      330.210       -2.564      868.737
11/17/2014  23:54:00      -75.597      -33.430       -5.153       51.274       27.814       24.585     2629.074      773.600      604.402        0.543        0.200       82.659       25.192        0.093      330.202       -2.576      868.723
11/17/2014  23:55:00      -87.050      -27.467      -15.972       33.032       26.825       21.646     1091.118      719.575      468.568        0.543        0.114       91.280       20.325        0.050      330.207       -2.569      868.715
11/17/2014  23:56:00      -52.300      -24.420       -9.311       35.746       23.477       20.335     1277.768      551.174      413.500        0.283        0.112       57.721       13.674        0.056      330.220       -2.547      868.710
11/17/2014  23:57:00      -28.219      -34.519      -13.281       37.848       32.278       21.095     1432.508     1041.870      444.994        0.254        0.146       44.586       14.933        0.112      330.255       -2.489      868.706
11/17/2014  23:58:00      -71.683      -39.538      -12.204       44.857       31.122       20.708     2012.142      968.562      428.801        0.513        0.170       81.864       12.113        0.022      330.190       -2.596      868.700
11/17/2014  23:59:00     -117.368      -47.255      -18.296       19.753       18.747       15.787      390.191      351.461      249.224        0.867        0.050      126.524       10.677        0.007      330.133       -2.690      868.695
